GFSCGP_500_spd_000.txt.gz
Wind_Speed
58 62 60 47 41 32 32 30 24 15 18 24 21 25 15 13 21 18 20 21 21 17 15 24 29 27 29 26 23 25 25 24 25 26 25 26 24 26 21 23 21 19 22 21
44 50 41 40 34 36 34 30 28 18 20 27 22 24 17 13 23 24 20 21 21 22 20 24 30 29 27 23 22 25 25 24 26 24 25 25 24 24 26 25 18 16 19 20
30 29 37 35 36 35 33 33 22 22 19 27 23 23 21 18 21 23 19 19 21 21 26 30 31 31 23 20 24 25 23 23 24 22 24 22 23 24 22 20 14 16 19 20
36 32 34 37 38 36 39 28 22 23 23 26 23 24 23 20 19 21 17 19 17 20 28 30 36 26 18 20 23 21 21 21 20 20 21 20 23 25 19 17 18 19 20 15
34 35 38 40 36 38 38 28 24 21 26 20 25 27 8 10 14 13 12 10 15 19 25 31 23 15 16 20 18 20 19 18 17 20 17 18 21 20 19 19 23 23 13 10
47 44 43 40 39 39 30 33 28 29 29 31 16 15 3 8 12 10 10 13 17 21 21 17 15 13 16 18 17 19 17 14 16 18 14 17 20 18 23 22 17 18 10 8
46 47 43 39 42 40 39 38 37 35 36 17 12 13 1 8 11 9 10 15 17 25 17 17 15 14 15 16 19 16 14 14 15 13 12 14 19 18 23 20 16 15 9 7
36 36 37 32 39 42 45 38 40 37 27 15 15 17 2 8 11 6 11 16 17 27 13 13 12 13 13 13 16 14 12 11 13 7 10 14 18 18 20 16 13 12 7 6
37 34 29 31 28 37 39 37 26 28 21 26 16 16 13 12 12 5 11 15 16 15 13 15 10 13 11 16 12 11 9 9 11 8 11 13 14 16 18 14 12 10 7 7
36 32 28 25 30 32 35 31 36 32 28 25 19 18 15 11 14 9 11 13 15 20 14 15 11 10 12 10 9 9 6 8 10 7 9 9 12 15 14 15 14 10 9 10
42 38 31 34 35 34 37 41 37 28 27 25 17 14 7 13 20 16 14 16 16 23 12 11 7 7 10 6 7 7 5 7 8 7 7 8 10 14 18 13 14 13 12 13
41 44 36 34 36 30 29 33 33 31 31 28 22 14 18 16 11 9 13 14 19 22 7 9 5 8 6 5 6 5 5 5 9 9 8 11 12 13 19 14 15 16 14 14
45 46 42 41 38 38 40 38 38 33 30 28 25 12 20 18 7 10 9 10 17 22 7 11 8 7 4 3 5 5 7 7 9 9 10 11 12 14 17 15 14 17 20 16
60 54 48 47 42 38 39 40 36 35 34 27 26 17 17 12 10 8 11 10 13 21 5 10 7 7 2 2 3 5 5 6 7 7 9 9 10 13 16 17 14 17 18 20
60 59 54 46 41 39 37 37 35 34 28 28 22 21 20 16 11 12 12 9 9 11 5 6 7 5 2 2 2 5 5 4 8 7 9 10 10 13 14 16 16 16 18 20
61 56 53 49 45 43 43 42 37 34 31 29 23 23 21 20 19 17 13 6 5 9 10 5 7 4 1 3 2 5 5 7 7 8 12 11 9 14 15 18 20 21 17 18
61 59 56 54 49 45 52 47 43 36 32 29 26 18 26 22 20 18 11 8 7 7 11 7 8 5 1 3 4 4 6 8 8 7 11 11 13 15 17 18 17 15 14 16
62 62 61 56 51 58 53 47 43 37 30 28 26 21 24 27 19 17 15 10 7 4 11 8 8 7 1 2 4 4 5 7 8 8 13 16 16 18 19 20 21 22 25 23
63 65 62 57 58 57 53 48 46 41 38 31 28 24 25 26 23 21 17 6 5 3 10 10 8 9 5 1 2 4 5 5 7 9 12 15 16 15 14 16 18 20 23 24
60 59 59 60 58 61 53 45 42 30 41 39 30 28 25 29 26 16 13 9 1 0 10 13 11 13 8 3 1 2 5 6 7 9 11 11 14 15 14 14 17 18 20 21
62 60 59 55 55 62 55 36 43 42 37 26 31 28 25 26 20 19 18 15 7 5 4 14 12 13 12 7 5 4 6 9 8 9 9 9 11 15 16 14 14 14 15 16
68 63 63 57 48 61 61 51 47 41 38 30 24 30 25 21 22 24 21 19 17 6 4 9 15 12 15 15 7 7 6 8 11 10 9 8 8 10 12 12 10 11 12 13
66 69 71 63 49 57 53 60 54 41 37 43 33 32 26 24 26 26 21 20 21 11 8 8 15 16 12 16 10 8 8 8 12 14 12 10 8 8 10 11 12 12 15 17
57 72 70 67 53 54 55 61 56 50 42 44 35 38 32 30 28 27 25 24 23 19 9 9 18 17 13 15 15 12 11 9 10 15 15 13 12 11 9 9 12 14 13 13
46 71 72 73 60 52 59 60 56 46 45 47 43 35 35 33 34 34 30 28 25 20 13 15 16 17 16 19 12 11 17 14 12 12 15 15 14 13 12 11 12 12 12 11
51 69 74 74 62 53 59 63 57 51 56 57 52 44 43 38 31 31 32 32 29 23 15 18 22 20 20 20 18 13 14 17 15 14 14 16 17 15 13 13 13 13 12 12

GFSCGP_500_spd_003.txt.gz
Wind_Speed
54 57 57 56 55 57 56 52 45 29 18 33 33 31 18 27 28 18 11 12 12 16 12 18 20 25 32 37 33 29 27 29 30 30 29 29 31 30 31 33 29 25 19 21
39 45 42 47 52 55 54 52 42 29 15 35 31 32 25 26 25 15 11 9 14 17 13 17 23 29 34 40 34 27 27 27 26 27 27 28 29 28 32 26 21 20 21 23
43 29 29 32 39 46 48 47 32 28 19 35 38 34 27 26 18 11 10 11 14 13 15 18 25 34 40 41 29 25 25 23 25 25 25 27 26 25 26 25 23 25 29 27
46 38 34 30 34 38 42 28 26 28 27 33 38 43 27 25 12 15 14 16 10 12 13 18 25 30 35 28 22 21 21 24 23 23 24 26 23 24 23 25 25 26 26 17
45 37 34 32 24 29 26 28 30 28 32 36 35 41 15 19 12 16 18 10 9 8 12 17 21 24 21 20 20 20 22 22 22 22 24 23 21 22 22 25 23 21 21 17
50 43 38 33 28 37 34 33 32 33 37 47 31 38 9 16 18 14 4 7 11 8 14 22 18 18 19 17 18 18 20 20 21 23 22 18 19 21 22 24 20 18 17 11
55 53 44 35 36 38 39 38 38 41 46 46 26 32 14 16 12 6 5 7 11 9 16 14 14 17 16 15 14 18 19 20 19 20 15 16 19 19 21 19 18 18 14 8
47 49 48 40 39 37 37 41 44 47 48 37 28 24 13 17 8 5 4 7 7 10 12 13 14 13 12 11 15 17 17 16 18 17 14 17 18 16 21 16 17 16 10 4
47 44 42 40 38 37 38 48 41 41 37 39 35 21 23 10 4 2 4 4 7 13 18 17 14 13 12 11 15 15 16 15 18 16 14 16 13 16 17 13 16 9 8 9
45 42 38 34 33 37 40 45 42 45 43 40 28 24 15 9 5 4 4 4 9 16 19 11 12 12 7 11 11 14 14 14 16 12 11 10 10 17 16 12 8 11 9 11
52 45 35 37 38 38 42 47 44 42 39 34 25 21 16 11 10 5 2 6 11 15 11 9 11 10 11 9 10 13 11 12 11 11 6 8 9 15 13 12 8 11 10 12
58 52 40 35 40 37 41 40 36 39 34 30 26 20 20 14 7 5 4 4 16 12 12 9 11 11 12 8 9 11 9 9 9 7 5 7 9 11 11 14 10 10 11 12
64 59 50 39 43 41 39 37 39 35 36 35 30 20 20 13 8 6 5 5 13 15 16 9 9 8 11 6 8 9 5 4 7 8 5 5 8 12 9 15 15 12 14 13
68 63 56 50 42 37 40 42 42 39 38 26 24 23 17 17 14 11 5 4 8 13 10 9 7 7 8 4 7 8 5 6 8 4 2 5 7 12 12 15 15 19 15 13
67 63 57 48 42 39 40 39 38 39 30 33 20 23 19 18 14 9 6 1 6 8 10 9 6 5 6 3 6 7 5 5 7 6 3 6 8 12 14 15 16 17 15 15
66 64 62 56 48 45 43 42 40 37 32 29 24 21 19 21 17 11 6 3 2 6 10 6 5 3 5 2 4 5 4 6 6 7 5 6 8 13 15 14 14 13 13 11
66 64 64 60 51 48 53 49 43 36 34 28 27 21 23 24 15 12 6 3 3 3 8 5 4 2 4 3 3 3 3 6 6 4 5 11 10 12 11 8 8 10 10 14
69 66 64 60 56 58 54 46 42 39 34 27 24 19 18 26 21 14 10 6 1 2 6 5 3 3 1 4 4 3 2 6 8 5 10 15 15 15 15 17 16 12 13 13
70 70 66 62 59 60 54 48 48 44 39 33 25 15 19 18 28 24 14 8 5 1 5 5 2 5 3 4 4 4 2 4 8 9 8 14 13 13 14 17 19 20 19 17
65 65 67 65 59 61 57 53 49 45 43 37 29 22 20 23 30 21 15 11 8 3 4 6 2 6 6 1 3 4 3 2 7 9 8 8 9 10 13 15 18 18 18 19
62 61 63 57 60 60 58 56 49 46 45 38 37 32 33 31 22 21 17 13 11 8 7 5 2 3 11 8 2 4 4 4 4 8 9 11 10 11 13 15 15 15 16 16
57 59 57 53 57 57 58 54 52 48 43 39 36 35 33 26 22 26 19 16 14 12 10 4 2 4 6 13 8 5 6 5 6 6 7 8 11 10 11 12 11 11 11 12
53 61 61 51 54 58 53 58 57 52 46 43 35 41 38 30 31 26 20 18 15 14 12 9 5 1 5 9 12 8 7 7 7 9 7 6 8 9 9 9 11 12 15 16
48 72 63 52 53 59 58 57 56 51 50 48 41 36 35 36 31 26 21 20 19 14 15 13 9 5 2 6 10 12 10 9 7 10 10 8 6 9 10 11 12 15 15 15
42 71 67 60 53 55 54 60 49 51 51 47 43 45 42 38 35 32 24 20 19 16 17 16 15 10 5 5 10 10 13 13 11 9 12 12 9 9 9 11 14 14 14 14
33 63 70 67 53 60 61 61 65 57 46 48 43 41 39 38 36 32 33 29 25 22 19 22 20 15 9 8 9 13 10 15 15 12 12 13 13 12 12 12 14 14 14 14

GFSCGP_500_spd_009.txt.gz
Wind_Speed
60 65 58 54 56 58 59 60 58 58 54 54 51 53 51 36 35 33 31 29 28 24 27 30 30 26 26 27 29 21 25 25 31 40 37 33 31 30 29 32 32 32 31 33
60 57 47 51 52 51 52 53 53 49 45 47 48 48 46 37 35 33 28 28 26 27 28 28 25 25 24 27 25 23 25 29 33 37 33 31 29 29 31 32 31 33 33 34
61 45 44 48 44 44 41 39 35 37 33 41 45 50 47 38 36 33 26 28 23 25 27 28 24 25 24 28 22 24 24 28 32 32 30 27 28 30 31 29 31 33 33 33
63 55 51 46 47 44 42 25 23 25 29 39 42 52 41 36 37 32 23 26 22 27 24 23 26 24 25 22 21 22 23 27 28 28 26 25 28 29 26 28 32 31 32 29
64 64 58 49 44 34 30 27 25 27 34 40 39 45 33 29 24 23 24 25 26 22 24 24 21 25 24 18 18 18 21 23 24 25 24 25 28 27 27 31 27 29 27 26
64 62 56 48 45 37 38 35 34 34 37 41 34 39 30 14 22 19 20 26 20 21 21 18 18 22 14 16 16 16 19 20 22 22 23 25 27 27 27 28 29 26 24 15
67 67 61 57 55 50 47 43 44 39 38 34 27 37 13 12 6 17 22 21 20 19 16 15 17 15 15 16 16 17 17 20 20 22 23 26 26 24 23 26 24 20 13 7
68 67 65 59 54 51 47 40 42 35 31 29 25 32 22 13 10 15 17 18 21 18 13 13 14 10 12 12 13 15 18 18 20 19 22 24 20 19 21 22 17 15 6 5
69 65 60 55 50 45 42 41 31 33 32 21 28 18 13 14 18 20 12 18 16 16 12 12 7 9 10 8 12 14 14 17 16 17 22 18 16 18 19 16 14 6 8 9
70 69 62 55 50 46 43 37 39 38 34 27 25 21 13 18 20 18 18 18 16 13 9 8 8 8 9 9 13 12 13 15 13 16 19 15 16 17 16 14 10 3 9 8
70 70 65 60 57 51 50 47 45 39 36 30 22 19 11 17 20 14 19 21 16 8 8 6 8 9 9 8 11 9 12 13 11 16 17 15 16 17 15 12 3 5 8 9
70 70 63 57 55 49 45 44 41 38 33 28 18 13 13 20 22 18 19 22 15 7 6 9 6 8 7 9 6 8 11 10 12 16 14 13 15 12 11 8 4 7 9 9
70 69 65 60 56 54 53 44 46 46 39 32 22 16 15 26 23 21 17 19 13 7 6 4 2 6 5 4 5 7 10 10 12 12 11 11 13 10 11 7 7 8 9 10
71 70 63 58 54 54 50 48 47 45 41 31 26 22 23 27 26 23 19 17 11 5 6 3 1 2 4 3 5 8 10 10 10 11 11 10 10 11 11 11 9 9 10 11
66 65 62 56 57 54 52 44 46 45 37 29 23 30 30 28 26 20 20 14 9 7 2 1 1 1 3 3 5 9 10 9 8 10 9 9 8 11 9 7 9 10 10 10
65 65 61 57 54 53 51 46 45 43 32 27 28 35 36 30 24 21 20 12 10 7 1 2 1 3 3 3 4 8 10 9 8 9 9 8 5 8 8 8 7 8 9 8
62 65 60 58 56 51 50 45 44 43 29 30 38 33 35 30 26 22 19 10 10 7 3 2 1 4 4 4 5 6 10 8 8 8 9 10 9 7 8 8 10 12 10 12
52 66 63 58 56 54 47 43 42 37 32 31 49 47 41 33 27 25 20 14 11 9 5 5 2 5 5 4 7 6 9 7 7 9 11 12 12 11 12 10 11 14 14 13
46 60 64 59 57 54 48 43 41 39 35 41 48 47 42 36 28 24 23 18 13 11 7 8 6 7 7 7 8 7 7 6 6 7 10 13 12 16 18 16 17 16 16 13
41 50 60 62 55 54 56 48 40 38 37 40 47 44 43 39 32 28 25 21 17 13 8 10 9 9 8 7 8 8 6 6 4 6 9 10 12 13 16 16 16 17 16 17
35 43 48 58 60 58 54 49 41 40 43 43 44 43 40 39 35 33 28 24 20 15 12 9 11 9 9 6 6 7 5 5 5 5 7 9 10 11 13 13 15 17 18 21
23 30 39 50 58 57 53 49 50 47 42 43 39 40 41 38 36 35 30 20 22 18 13 9 12 9 9 9 6 4 5 2 4 5 7 8 7 9 10 11 11 14 17 20
25 26 28 43 57 54 55 58 53 44 42 41 39 39 38 36 36 31 29 23 24 23 17 13 10 10 9 10 9 5 3 2 2 4 5 6 4 4 6 7 7 9 14 16
23 29 31 34 47 54 57 50 50 49 41 41 40 39 36 35 34 32 31 27 27 26 21 17 13 10 10 10 10 10 6 4 3 3 4 4 5 4 6 8 10 11 12 14
24 31 29 28 38 49 52 50 44 46 46 42 42 40 38 34 36 35 32 28 29 29 26 20 15 12 12 9 9 12 11 8 5 4 5 4 5 7 7 10 12 13 15 16
25 26 30 32 37 45 51 53 47 44 45 45 42 40 39 37 37 37 36 30 30 29 29 24 19 17 14 13 11 14 13 10 10 7 5 7 7 8 9 11 13 14 15 17

GFSCGP_500_spd_012.txt.gz
Wind_Speed
64 65 60 50 53 57 59 60 58 54 52 58 57 57 48 52 55 49 46 42 39 36 26 21 25 29 32 30 31 32 32 28 28 29 31 32 36 36 34 32 32 32 31 32
70 68 46 53 55 57 58 56 55 51 54 56 59 57 54 53 53 44 43 36 39 30 25 23 28 30 29 30 31 31 29 28 29 30 32 35 38 34 32 32 31 30 32 32
73 53 54 52 57 51 49 52 49 48 46 48 47 53 49 49 44 35 35 35 35 27 24 24 28 26 26 30 32 30 30 30 30 31 31 34 33 31 30 31 31 32 33 32
75 63 63 57 53 47 46 43 44 42 40 38 38 52 40 37 36 32 33 33 29 31 21 26 26 24 29 30 29 28 27 28 28 28 29 30 30 30 30 33 32 33 32 31
71 74 70 65 54 49 49 41 39 38 38 41 38 45 32 32 31 25 22 26 27 24 24 26 25 26 26 27 29 26 25 24 24 24 26 27 28 28 31 29 28 30 28 21
73 74 71 63 61 51 48 40 35 43 40 44 35 33 32 28 17 19 21 23 24 22 22 21 22 21 23 27 27 23 22 21 20 23 24 24 24 27 24 23 26 24 18 13
71 78 75 69 64 57 52 45 41 46 43 46 27 32 17 11 14 20 18 16 20 23 20 20 16 20 24 27 21 20 20 19 20 20 20 20 23 19 20 21 21 18 12 9
67 74 78 74 67 60 58 51 48 47 44 35 28 31 6 15 11 11 16 20 16 16 17 17 18 21 22 17 16 14 16 15 16 17 16 19 16 18 18 18 16 11 8 5
44 70 73 73 68 64 59 58 43 43 43 35 25 19 20 18 8 12 11 14 16 14 14 16 21 22 13 12 13 14 14 12 15 13 14 16 14 18 17 15 12 7 6 3
57 67 64 71 64 64 59 48 49 47 47 39 34 13 18 15 14 12 11 11 12 12 13 18 20 14 12 11 12 14 10 12 10 11 14 13 14 16 13 14 6 4 5 4
56 66 49 63 70 66 61 57 50 49 44 36 27 16 18 23 26 18 17 14 11 12 15 19 14 14 9 11 12 8 8 10 7 12 13 10 12 11 12 9 4 5 4 5
60 67 53 58 64 59 54 54 53 50 43 34 21 18 21 21 19 17 17 17 12 12 17 14 10 12 7 10 6 5 6 7 7 11 10 8 8 9 11 7 5 6 4 5
68 50 47 47 47 60 59 55 50 43 44 33 22 14 15 25 25 24 20 15 12 13 17 11 8 7 5 5 2 3 5 6 8 9 5 7 7 9 9 6 6 7 6 6
67 50 54 38 49 57 62 55 53 48 46 35 24 21 25 32 31 26 21 16 13 13 14 11 8 6 3 3 0 4 5 6 8 5 4 7 8 7 8 6 4 8 9 10
61 52 50 48 58 61 61 58 57 52 41 37 30 25 30 35 30 27 22 15 14 14 10 8 7 5 1 2 1 4 5 6 5 4 3 4 7 7 6 7 5 5 9 10
49 60 52 44 56 62 62 58 50 46 35 36 31 30 38 37 33 29 24 20 15 10 8 7 5 4 0 1 1 5 6 7 7 5 4 6 6 6 6 6 4 4 6 9
32 58 59 44 49 54 54 52 50 45 37 34 28 35 44 42 40 34 28 23 19 10 8 7 6 5 1 1 2 6 6 8 8 6 7 8 9 7 9 9 6 5 9 8
35 43 58 58 41 45 43 48 47 38 40 36 43 51 51 42 35 31 30 25 22 15 9 7 8 7 2 1 3 7 6 8 8 7 8 10 12 12 10 11 10 12 9 6
31 35 46 54 55 39 44 46 46 40 35 37 45 43 50 42 37 32 28 25 24 19 15 10 12 9 5 2 4 7 7 7 6 7 8 10 16 15 14 14 13 11 7 5
30 30 42 48 42 38 46 45 40 33 35 38 50 52 50 44 37 35 30 29 24 19 15 12 12 13 7 3 3 8 8 8 6 6 9 10 11 15 15 16 14 12 13 15
24 27 35 48 39 45 44 37 35 33 42 40 54 55 51 45 38 32 31 31 25 19 16 14 12 14 12 6 3 6 8 9 7 6 8 9 10 12 14 15 16 19 17 16
18 23 31 43 51 42 45 45 41 44 41 41 48 53 51 44 37 34 32 32 27 21 17 15 14 12 13 10 5 4 7 8 8 6 8 9 9 9 12 14 15 19 18 22
19 16 26 37 52 44 48 49 46 37 37 40 48 46 50 45 39 36 34 32 29 22 21 16 15 13 11 12 10 4 5 8 8 7 6 8 8 7 8 10 12 15 17 18
19 19 23 31 42 49 53 43 41 42 36 38 43 46 47 43 40 38 37 34 31 25 23 17 14 14 12 11 12 9 4 6 8 8 6 6 7 8 8 10 11 13 15 15
18 27 26 25 31 40 46 47 41 39 38 40 40 44 48 44 42 40 38 37 34 28 25 20 16 14 14 12 11 11 10 7 7 8 8 6 6 7 9 11 12 13 16 18
18 22 31 28 27 34 39 42 44 41 42 38 39 43 47 47 43 41 38 37 35 31 28 24 20 17 15 12 11 12 12 11 9 9 9 9 8 7 10 11 12 14 15 17

GFSCGP_500_spd_015.txt.gz
Wind_Speed
66 69 64 52 56 54 58 61 58 51 46 39 41 43 48 52 45 46 47 49 53 46 44 40 38 35 34 29 29 30 30 33 32 35 32 34 37 40 40 40 35 37 37 36
73 70 43 55 55 56 55 58 52 51 48 39 40 43 46 46 48 42 43 43 47 45 38 35 34 31 33 28 26 26 31 32 32 32 34 37 39 40 40 38 35 36 39 38
77 53 57 60 56 56 56 52 50 46 44 37 40 52 47 48 43 39 39 44 45 37 33 31 31 28 30 25 24 28 31 30 32 34 36 37 37 38 35 37 36 35 37 34
72 65 64 64 59 53 51 49 46 47 49 46 39 50 44 42 34 38 34 34 31 31 29 28 29 27 27 24 25 29 33 30 32 33 32 32 33 32 34 33 35 32 30 30
66 66 70 70 55 55 46 42 42 44 45 40 43 47 41 33 34 29 27 29 26 28 27 25 25 25 23 24 27 30 31 30 30 30 28 28 28 28 30 31 26 28 26 22
65 63 68 69 64 59 49 44 45 42 38 44 40 47 36 25 29 27 25 20 19 26 28 24 22 22 22 24 27 29 29 28 30 28 26 25 24 26 24 23 24 21 19 14
63 69 69 68 72 65 57 51 43 43 43 45 39 41 28 21 26 20 21 22 23 26 20 22 20 20 21 24 25 27 26 25 25 23 20 21 21 21 20 21 18 16 13 11
59 65 70 67 70 72 67 62 55 52 40 38 35 35 24 21 19 13 13 16 17 21 20 17 17 18 21 22 24 24 22 20 20 17 18 17 18 15 18 18 13 10 10 7
40 53 61 70 72 71 70 63 49 35 28 24 21 21 19 20 14 11 14 18 15 12 12 13 15 18 21 22 22 19 19 20 16 15 13 14 14 15 14 12 5 6 7 3
35 37 58 64 72 71 59 52 50 50 39 29 21 19 16 19 19 15 12 12 11 12 12 12 16 19 19 20 18 18 18 15 13 12 13 14 13 11 9 6 3 4 5 1
35 43 51 55 59 71 69 51 57 44 37 32 24 17 20 23 13 12 10 13 6 7 10 12 16 17 21 16 16 15 12 11 12 11 14 12 11 6 7 3 2 2 2 2
33 35 39 49 40 59 62 53 55 54 45 30 23 16 22 25 26 22 19 20 10 9 11 15 16 18 14 14 12 9 9 10 9 11 10 7 5 3 1 3 2 1 2 5
40 34 45 46 41 47 47 52 47 49 33 35 24 16 20 21 24 22 24 16 12 9 14 16 15 15 10 11 7 6 8 8 8 7 3 4 3 1 2 3 3 1 2 5
40 49 39 40 37 42 47 49 46 51 43 32 35 16 28 26 23 25 22 18 15 15 13 14 15 12 9 8 4 5 6 6 6 5 2 3 2 2 3 2 3 2 4 6
25 57 50 32 49 43 48 47 44 49 41 31 26 27 22 22 31 27 24 20 18 14 13 13 10 9 9 4 4 4 5 5 4 2 1 4 5 4 2 1 3 3 5 7
26 54 57 31 52 43 43 41 43 41 39 32 24 29 30 20 23 34 30 25 20 15 13 9 8 8 5 4 4 3 2 2 2 1 3 5 3 3 2 2 3 5 5 7
34 52 48 29 38 38 43 44 44 39 41 34 34 35 35 33 36 45 35 29 25 18 13 9 9 9 4 3 4 2 1 3 2 3 5 6 3 5 3 3 2 6 7 7
38 62 42 24 41 28 32 38 39 36 36 35 33 30 44 53 45 37 34 31 27 20 14 10 10 10 4 4 4 1 3 4 5 5 7 8 8 6 5 5 6 8 6 7
22 55 48 23 29 29 33 44 40 39 50 53 51 50 58 38 37 39 32 30 26 21 15 11 11 10 5 5 5 3 4 4 6 7 8 11 10 8 7 7 7 4 2 3
21 53 51 26 28 26 27 42 49 54 53 49 43 44 39 40 39 40 35 31 26 21 16 14 13 12 7 5 5 5 5 5 6 7 7 10 11 11 11 8 8 8 8 6
23 34 46 41 27 34 23 39 41 40 46 41 40 42 48 53 49 39 36 32 28 22 16 16 14 15 10 6 5 5 6 6 7 7 7 10 11 11 10 13 12 9 12 12
13 24 34 42 24 32 17 30 45 52 45 42 43 42 52 54 49 39 34 32 29 22 17 18 15 15 14 8 4 4 6 7 8 8 7 8 11 11 10 12 16 15 15 14
14 24 34 46 48 30 38 35 48 45 44 41 43 45 56 56 50 40 37 35 30 24 20 18 16 13 14 13 8 3 4 6 8 9 8 6 7 9 11 10 13 15 17 20
17 23 32 46 62 21 50 39 41 40 36 40 41 47 60 56 50 41 40 35 30 26 21 19 15 15 12 13 12 7 3 5 8 9 8 7 7 8 11 11 11 13 14 16
17 20 32 38 48 47 33 42 40 39 36 35 37 45 60 53 48 43 38 34 31 27 23 22 16 16 13 11 13 12 8 5 8 9 9 7 7 9 11 12 12 12 13 16
16 17 26 31 31 39 38 33 42 39 34 33 35 44 57 54 49 44 40 36 31 29 26 26 18 16 16 12 12 13 12 8 7 8 9 9 9 10 12 12 13 15 17 19

GFSCGP_500_spd_021.txt.gz
Wind_Speed
70 70 61 48 51 53 53 54 51 49 48 47 45 45 40 32 32 33 34 29 29 34 38 42 32 33 41 45 39 39 35 34 32 31 28 25 25 27 29 32 32 33 39 43
69 64 50 55 56 60 59 55 48 45 46 44 38 43 40 33 34 32 34 29 35 36 34 29 31 34 41 44 41 38 29 32 29 27 26 25 26 29 30 31 34 38 39 41
66 53 56 61 65 64 57 55 47 46 49 43 43 50 46 33 27 32 34 36 34 29 27 29 33 39 40 37 31 25 27 28 26 25 24 25 28 30 30 31 31 37 37 38
64 56 56 60 66 63 59 54 52 53 52 47 45 56 42 28 28 31 31 38 23 21 27 30 32 34 36 26 18 21 24 22 23 24 23 27 28 29 29 30 33 34 35 33
54 57 60 63 57 64 56 54 53 52 51 49 51 47 23 28 25 25 27 25 21 23 28 28 30 30 24 20 19 19 19 22 22 22 25 27 27 26 26 29 30 33 32 30
52 55 58 57 57 63 59 58 52 49 47 50 38 44 20 21 23 27 19 20 21 27 27 26 24 20 16 14 15 17 21 20 20 23 26 24 23 24 24 27 29 29 27 27
52 51 55 55 59 57 58 58 55 54 53 45 33 41 28 16 20 14 19 20 25 24 22 20 14 13 11 14 15 19 18 19 22 23 21 20 22 23 25 25 26 25 24 20
35 46 53 54 55 59 58 61 60 59 55 43 40 48 18 20 17 10 14 19 21 17 17 14 13 11 14 14 17 15 17 20 20 20 17 21 23 23 23 23 24 21 20 13
36 45 41 53 56 53 55 64 51 57 54 51 46 40 27 18 11 8 18 15 13 10 14 6 9 11 14 16 13 15 17 17 18 18 19 20 20 20 23 23 22 20 14 11
33 38 35 43 60 62 58 53 56 56 55 54 45 41 31 15 9 13 13 15 9 11 11 10 11 10 14 12 13 14 16 15 16 17 15 18 17 19 21 19 18 14 10 10
31 33 34 44 54 58 55 53 61 57 57 51 46 35 10 12 18 17 17 13 13 14 12 13 12 12 9 9 10 12 12 14 14 13 14 16 17 20 15 14 12 10 9 7
31 31 35 40 45 53 65 61 58 62 55 50 43 26 12 15 22 17 18 15 17 14 10 14 14 10 6 7 8 10 12 11 11 13 14 16 14 13 11 12 11 9 8 6
23 22 25 40 47 41 59 61 56 58 52 49 46 32 18 14 20 19 19 25 11 14 9 12 13 9 6 8 9 10 10 9 10 13 14 14 11 10 9 10 9 8 7 5
14 20 26 34 35 47 55 65 59 58 61 49 50 32 14 12 19 28 20 23 15 11 15 16 14 8 8 8 10 9 8 9 11 13 12 11 8 9 8 10 8 6 5 5
8 8 20 35 37 48 54 69 64 64 62 59 44 36 18 23 25 26 25 17 18 17 15 15 12 7 8 8 8 6 7 9 9 9 7 8 9 9 8 9 6 4 3 3
11 9 20 35 43 43 53 67 66 66 61 59 41 32 16 23 24 23 24 16 22 20 17 15 7 6 6 6 6 4 6 5 7 6 8 9 9 7 5 6 4 3 2 2
11 9 13 24 29 36 49 66 63 63 57 48 45 34 28 32 41 30 27 26 27 21 18 14 5 4 5 4 5 3 4 4 6 7 8 5 5 6 5 2 1 2 1 2
7 11 13 18 28 39 39 40 47 46 47 51 39 41 24 37 30 23 23 30 29 23 18 12 3 4 4 5 4 3 2 2 4 6 5 6 6 8 9 6 3 2 1 3
4 8 10 20 21 33 42 48 57 55 41 52 42 40 33 40 36 26 24 24 27 19 12 5 2 4 5 4 4 2 1 1 3 4 7 9 10 9 10 9 3 1 2 6
10 3 11 31 10 16 53 56 56 52 41 34 41 49 46 39 37 31 25 28 25 18 12 7 3 5 4 1 3 3 1 1 1 1 5 8 10 12 10 8 7 7 3 2
3 3 11 30 19 30 45 58 53 52 35 28 49 46 45 39 43 35 30 20 24 17 13 7 4 7 6 2 1 3 2 1 1 0 3 5 9 12 14 10 7 7 7 5
3 11 5 23 26 22 21 61 55 48 49 51 31 48 43 38 37 33 31 26 21 20 14 8 6 10 8 4 2 3 3 2 1 1 3 4 8 11 14 15 11 7 8 9
6 5 5 22 20 13 29 64 56 48 54 43 43 41 43 45 41 35 29 27 23 22 15 11 9 10 12 7 3 2 3 3 2 1 1 3 7 8 11 15 20 19 14 9
8 4 3 7 15 15 37 47 38 35 31 37 41 51 42 41 44 39 31 27 27 28 22 15 11 12 12 12 7 3 2 4 3 0 2 2 5 7 8 11 16 20 19 16
4 9 9 13 11 18 14 27 43 31 41 34 40 42 51 39 37 39 38 32 28 27 24 19 16 13 9 11 11 7 3 4 5 2 2 3 5 6 7 7 13 17 20 26
2 9 11 15 21 16 16 19 27 33 29 38 40 46 49 45 39 37 39 35 30 27 24 22 19 15 11 10 10 10 6 3 5 6 3 3 5 6 7 9 12 18 20 22

GFSCGP_500_spd_027.txt.gz
Wind_Speed
74 73 67 59 61 61 62 64 65 62 60 57 59 58 53 51 47 45 44 45 44 40 38 37 36 35 35 36 35 37 39 36 37 39 36 35 32 35 31 32 37 32 31 32
79 73 65 64 67 65 64 63 60 58 55 53 51 53 54 51 46 43 41 42 41 39 33 31 30 32 33 33 39 36 34 37 39 32 35 33 30 35 30 32 35 32 39 35
79 72 69 69 69 66 66 64 60 58 55 52 54 56 52 47 44 41 41 39 37 33 30 29 32 32 30 34 34 33 36 34 34 32 31 32 31 26 27 33 32 31 32 33
68 69 73 73 70 68 66 63 60 60 55 55 51 55 48 39 40 43 40 38 33 31 29 32 29 24 32 32 32 33 35 34 32 29 26 24 22 23 29 31 28 30 32 28
54 64 69 68 65 69 62 62 62 61 58 55 52 52 30 36 35 32 30 30 27 29 31 27 23 29 26 28 31 30 31 25 25 21 23 19 22 27 27 27 26 26 27 25
49 45 53 60 59 64 63 64 58 60 60 62 49 50 22 30 29 28 30 31 29 25 20 22 27 23 25 29 31 27 23 21 20 19 20 22 26 25 26 25 25 25 23 22
37 40 45 49 54 56 62 64 62 60 62 52 49 50 25 15 28 28 30 28 20 19 23 20 19 24 27 30 28 24 17 15 18 19 21 25 24 23 24 23 23 21 21 24
16 27 34 44 52 50 58 60 62 64 58 48 50 47 34 14 24 25 23 18 19 21 16 16 21 24 21 22 18 14 12 15 16 19 22 22 20 21 22 20 18 18 22 19
8 13 25 33 43 50 52 56 52 53 55 52 51 44 40 24 24 21 18 18 18 15 18 19 19 15 11 11 14 12 13 15 18 20 19 17 18 17 15 16 17 21 17 13
16 14 18 27 37 46 50 51 51 54 55 55 51 47 38 34 18 20 17 17 14 17 17 17 14 9 8 9 12 12 15 16 17 16 14 14 12 14 15 18 19 14 10 9
20 22 23 23 30 36 43 50 54 52 54 55 52 50 40 32 28 28 20 20 17 18 15 15 10 8 10 10 10 13 15 14 12 13 11 11 13 14 17 13 9 8 6 9
12 13 19 23 31 33 38 48 54 57 56 55 54 51 46 33 33 26 22 17 19 14 12 11 5 8 8 9 10 13 12 10 10 10 11 13 14 14 10 10 7 4 6 9
19 21 16 19 29 39 41 48 55 58 61 60 58 53 28 37 35 31 23 23 18 9 9 4 5 5 7 9 10 12 10 8 8 10 13 15 13 11 7 9 5 4 6 6
15 21 17 17 23 35 45 48 55 61 60 57 56 52 37 40 36 33 28 24 14 7 4 7 5 7 7 8 11 11 7 6 7 10 11 8 6 6 9 9 6 6 6 3
17 16 17 14 20 27 38 50 56 63 60 56 54 43 47 39 39 36 35 28 16 7 7 6 4 5 8 9 9 7 5 5 7 9 10 10 11 11 10 8 6 5 5 4
25 17 17 13 15 24 32 47 55 62 63 59 55 47 51 45 42 38 33 28 19 14 12 9 5 7 8 9 6 5 6 5 7 10 11 12 7 6 6 5 5 4 4 5
17 18 19 16 18 19 26 38 51 60 63 60 55 53 50 48 44 34 31 31 21 15 14 10 8 8 9 8 6 5 5 5 5 10 10 5 4 3 0 3 4 5 5 8
17 17 19 13 16 17 14 27 48 57 62 63 59 58 52 50 42 38 36 28 24 18 16 13 9 10 9 7 6 5 4 3 5 8 5 4 2 3 2 5 5 7 6 9
8 17 13 7 12 8 14 19 43 54 60 63 55 63 54 51 49 37 31 30 27 23 18 18 11 11 8 7 5 4 3 1 4 5 4 4 2 2 4 5 4 6 8 9
3 9 9 11 5 4 19 15 33 43 51 57 56 64 54 51 48 38 36 36 32 28 24 14 12 9 8 6 5 5 3 1 3 2 4 5 5 1 2 3 3 6 9 11
3 6 5 2 7 11 16 19 25 41 46 48 48 63 58 53 50 46 50 32 29 26 22 16 14 9 9 6 7 7 4 2 4 4 5 5 6 5 0 5 5 4 9 14
5 2 4 2 9 11 6 13 34 38 45 47 46 65 59 52 50 44 38 20 30 25 22 17 15 12 11 7 8 8 6 5 4 7 6 6 6 8 6 4 3 4 8 15
8 7 10 6 7 9 10 19 36 37 52 44 53 61 61 51 44 36 26 38 37 35 27 20 14 15 14 10 8 8 7 7 5 7 5 5 7 11 8 5 3 6 10 14
10 16 14 5 5 15 28 32 34 40 45 42 53 58 60 51 45 41 32 28 40 33 26 19 14 15 17 12 9 8 7 9 6 6 6 6 8 9 8 9 8 7 12 13
12 12 7 8 13 14 27 28 45 50 30 41 55 57 56 50 44 45 32 29 34 34 29 21 14 13 17 13 9 8 7 8 7 5 8 9 10 9 13 14 13 12 13 16
9 7 5 7 15 23 34 36 45 48 25 40 53 58 54 47 40 44 45 36 31 34 28 22 17 13 14 16 12 8 7 7 7 6 7 9 12 12 14 18 16 15 17 17

GFSCGP_500_spd_030.txt.gz
Wind_Speed
74 76 70 64 67 65 67 68 66 66 66 64 69 72 66 64 62 55 51 47 45 43 44 47 47 48 46 46 42 42 42 42 43 44 44 44 34 31 30 34 38 34 31 36
72 75 71 71 74 71 69 68 67 64 63 63 61 65 61 62 58 50 44 44 43 42 40 43 46 42 40 40 41 42 42 43 45 45 44 33 32 33 35 36 30 29 31 33
64 66 69 77 77 75 73 70 67 66 63 61 57 61 58 55 54 49 46 43 41 40 42 41 38 38 38 40 42 42 41 44 38 40 36 33 29 29 27 26 26 29 31 34
46 55 64 73 79 76 76 73 69 66 63 59 56 63 54 47 45 42 40 38 35 38 39 33 37 38 39 40 39 37 41 34 36 37 34 25 22 22 22 23 25 30 32 28
29 39 52 66 74 78 75 73 69 67 65 60 56 62 48 40 41 38 33 33 38 35 34 33 37 37 35 33 35 37 33 34 34 32 24 21 21 22 22 24 27 29 29 27
27 28 38 51 61 66 68 70 67 67 64 63 54 56 42 33 34 34 34 32 32 31 32 33 31 30 31 35 34 33 33 32 30 23 21 21 21 22 25 26 27 28 27 25
20 22 36 35 47 58 62 67 61 63 66 55 52 52 25 27 31 31 31 33 32 31 27 24 25 28 29 31 30 31 30 26 22 20 20 19 22 24 25 26 24 24 22 21
19 18 25 34 33 42 54 59 65 68 60 51 49 45 30 30 18 11 27 31 28 25 23 22 24 25 25 24 24 23 21 20 18 18 19 19 20 23 24 22 19 19 18 19
3 13 13 25 27 30 44 50 51 54 59 54 53 40 36 34 32 28 19 22 25 23 22 21 24 21 19 17 18 17 16 16 17 19 16 18 21 22 19 15 16 17 20 18
9 9 12 16 19 29 34 41 46 52 52 55 49 44 44 36 26 26 23 17 20 19 23 24 17 15 13 13 13 11 15 16 17 16 17 18 18 15 14 15 18 19 14 13
10 9 10 12 15 22 27 40 45 48 51 50 49 51 49 43 38 24 21 18 17 21 19 17 13 12 13 14 11 12 15 14 15 15 15 13 12 13 14 16 16 12 11 10
10 8 8 15 22 24 29 37 43 50 52 52 52 53 48 46 41 32 28 18 20 19 15 12 12 12 15 11 10 10 10 12 14 13 10 10 12 15 14 14 13 12 10 8
13 14 13 14 18 26 28 32 43 51 55 56 57 55 43 47 42 35 37 28 28 21 16 14 14 14 10 9 9 9 11 11 11 8 8 11 14 14 14 13 11 11 9 7
18 16 18 17 19 23 29 33 40 52 57 58 59 58 26 24 30 34 34 31 27 22 19 16 13 10 6 6 8 10 10 9 6 6 8 9 9 10 10 13 11 9 8 7
24 16 17 18 21 22 27 34 40 52 59 61 60 60 31 31 37 41 40 33 29 27 20 15 11 7 5 5 6 8 7 6 5 6 8 9 11 11 12 13 10 7 8 7
25 22 19 16 19 20 24 28 40 50 59 60 62 57 46 40 45 45 41 36 32 29 22 13 12 6 4 4 6 6 5 5 4 6 8 10 7 7 8 8 6 7 6 6
19 21 22 14 20 23 17 21 37 48 57 61 63 52 52 46 47 47 41 34 30 29 21 15 12 6 3 5 5 5 5 5 4 5 7 5 5 5 4 2 4 7 7 7
9 16 20 16 23 24 16 21 28 50 57 60 62 45 52 50 49 47 40 38 32 26 23 19 12 7 5 5 5 6 5 4 3 4 3 3 4 4 3 5 6 7 6 9
8 13 15 16 22 18 19 15 18 45 57 61 61 52 57 54 52 48 44 41 35 32 27 23 17 10 5 5 7 6 5 4 3 1 1 2 4 4 3 6 5 7 6 8
7 5 4 11 11 13 1 9 11 27 49 59 55 62 59 55 58 48 47 41 38 34 27 23 16 11 6 8 7 7 6 5 2 2 2 2 4 3 5 5 4 7 8 8
4 6 6 8 7 2 5 9 11 27 44 58 52 67 64 59 51 51 49 46 39 30 26 24 19 12 8 8 7 8 6 5 4 4 2 1 3 3 4 5 3 4 8 10
6 3 3 4 10 13 6 7 10 20 38 52 57 63 62 62 57 55 51 45 38 36 28 23 18 11 11 8 8 8 7 6 6 6 4 4 6 5 3 5 6 3 7 12
7 6 3 7 11 10 5 6 2 20 36 38 48 64 62 61 56 51 43 39 36 42 27 22 16 14 12 8 9 10 9 7 6 8 6 7 8 9 7 2 4 4 8 14
5 4 11 10 12 12 1 20 8 19 25 30 48 66 60 59 54 47 42 40 19 29 27 22 16 16 14 11 11 11 10 9 7 9 8 8 7 8 9 6 5 6 9 15
8 9 6 11 8 9 17 12 12 21 36 37 48 64 63 55 51 40 35 28 29 33 30 22 18 18 17 14 12 12 11 11 8 9 9 9 8 9 9 8 7 10 11 14
6 3 4 6 11 13 25 15 21 35 24 37 39 61 62 52 48 40 38 40 36 38 33 25 18 17 20 17 14 12 11 11 10 11 10 10 10 9 9 9 10 12 15 16

GFSCGP_500_spd_033.txt.gz
Wind_Speed
72 71 67 68 69 67 69 68 67 68 66 67 66 65 61 69 71 64 64 64 58 54 50 50 44 46 48 49 51 50 50 55 50 46 43 41 44 45 44 39 35 36 35 34
72 75 74 75 70 69 73 73 71 69 67 67 66 62 62 62 59 61 62 59 56 49 46 46 44 45 47 46 48 49 50 49 47 42 41 43 44 45 43 38 33 32 32 33
47 57 59 69 71 70 74 76 74 72 70 67 67 64 59 56 57 55 53 52 51 45 40 41 42 45 44 43 43 46 49 48 45 41 42 41 42 38 36 32 28 29 28 25
29 28 37 46 63 69 73 75 76 75 73 69 67 66 62 54 51 51 44 41 40 39 40 40 43 43 42 43 45 48 47 44 39 40 39 39 37 31 27 25 24 22 24 27
25 30 26 34 46 56 67 72 75 75 75 73 65 69 51 50 44 39 35 32 33 36 38 40 40 41 43 44 41 37 35 35 36 37 37 34 27 25 24 23 22 23 27 27
26 25 27 21 29 37 47 62 69 72 74 76 61 66 49 41 37 35 34 34 33 34 37 38 40 41 38 34 31 31 31 31 35 34 34 25 23 24 25 23 23 26 30 29
17 17 22 24 25 30 35 43 59 67 73 68 65 66 41 35 36 37 38 37 36 36 38 37 33 29 27 25 28 29 32 33 32 32 24 22 23 25 25 23 24 28 28 27
15 18 16 24 28 26 25 34 37 59 66 62 66 59 39 37 22 33 40 39 35 42 35 31 24 21 22 24 25 27 29 29 30 23 20 21 23 23 22 22 24 24 24 22
11 8 12 12 18 25 21 31 34 36 55 66 63 47 45 41 29 14 18 33 42 36 27 20 21 23 24 23 23 24 26 27 22 18 19 21 22 21 21 22 21 21 22 23
11 9 9 14 12 22 24 22 32 38 45 58 57 48 45 47 40 40 35 23 18 25 23 21 24 23 20 20 20 22 21 18 17 19 21 21 20 19 19 18 19 20 24 24
11 8 9 13 11 22 22 24 29 35 42 49 55 50 50 49 35 42 32 33 22 24 24 26 21 20 19 17 18 17 17 17 17 19 18 17 17 18 18 17 19 22 19 16
10 9 8 10 12 10 11 25 21 35 41 47 53 51 52 49 38 32 27 28 24 25 25 21 18 18 16 17 17 18 17 14 16 16 14 15 15 17 18 19 20 18 17 15
13 12 14 12 12 16 17 21 22 31 42 52 50 47 42 48 44 36 33 29 27 25 22 16 16 16 16 16 16 16 15 14 14 13 13 12 15 15 16 17 18 15 15 15
19 17 15 14 17 17 16 20 23 28 40 50 54 44 31 40 43 44 38 34 26 24 18 17 17 17 15 15 16 15 13 13 12 12 11 12 13 13 14 14 14 16 16 15
21 21 21 18 17 17 19 19 24 27 32 48 52 43 35 31 37 49 44 37 31 25 22 21 20 19 16 13 12 12 12 11 11 11 10 11 12 14 16 17 17 17 15 14
25 23 19 23 18 20 17 18 22 26 28 48 55 50 41 44 45 51 52 41 35 31 26 26 23 19 16 15 13 9 10 10 11 10 9 11 11 10 10 10 12 11 11 11
15 18 17 18 20 18 17 15 19 26 32 45 60 56 46 47 46 55 52 47 41 34 31 28 27 21 17 13 10 10 11 10 10 9 8 7 7 6 6 6 6 9 9 7
7 5 11 13 19 21 15 18 27 29 34 45 57 55 49 48 51 52 49 45 42 37 32 30 25 20 15 11 11 12 9 10 9 7 7 6 5 4 6 5 5 6 6 6
7 5 10 12 16 17 19 17 19 27 29 44 51 52 54 52 53 51 50 45 40 38 35 30 25 22 17 12 13 10 10 9 7 7 6 5 4 6 6 5 7 7 6 7
7 9 8 10 11 11 6 8 10 17 22 40 43 52 56 54 53 53 49 45 42 37 33 28 26 21 17 14 12 9 11 9 7 7 7 5 4 6 7 6 7 7 7 7
11 13 9 11 15 19 8 5 4 8 16 27 42 50 61 56 54 56 51 45 40 38 31 28 26 22 16 14 11 11 11 9 8 7 6 4 4 5 6 7 5 5 8 9
11 11 11 16 21 22 16 12 10 8 13 24 44 53 60 58 55 60 54 45 43 36 29 27 23 19 17 14 12 12 11 8 7 7 5 3 1 0 3 6 7 3 7 11
12 12 11 11 12 11 9 12 4 6 16 27 49 53 61 62 54 54 49 47 41 35 31 25 22 19 17 14 14 13 11 9 8 8 6 5 5 4 2 4 6 7 9 12
8 11 10 11 13 11 4 6 10 19 23 38 48 46 63 63 60 57 52 45 41 34 30 25 22 19 18 16 15 13 11 9 8 8 7 6 7 7 5 3 5 5 11 15
9 10 9 12 12 8 14 17 6 24 30 35 36 56 63 67 64 59 51 44 37 34 37 31 28 22 20 17 16 15 12 10 9 8 9 7 7 7 7 6 6 9 12 17
13 12 10 8 12 10 11 12 23 31 27 30 39 56 62 51 47 48 46 44 34 32 30 30 21 23 20 17 17 15 13 10 10 9 10 10 9 9 9 9 7 9 14 15

GFSCGP_500_spd_036.txt.gz
Wind_Speed
55 56 60 65 65 67 69 70 70 68 66 71 69 63 57 59 62 68 72 68 66 65 64 64 59 55 55 53 54 55 53 52 53 54 56 52 46 41 40 41 42 42 45 43
49 53 57 62 68 71 71 75 74 74 73 70 70 69 62 59 61 61 63 62 66 68 65 63 59 60 53 54 56 56 53 51 53 53 55 49 44 41 41 41 41 43 43 42
48 47 53 55 60 66 74 77 72 77 79 73 73 72 68 62 60 59 60 58 56 59 58 59 61 60 55 53 54 53 51 48 49 51 48 44 43 41 40 41 41 43 39 34
44 38 42 45 52 54 65 70 74 77 79 80 74 75 71 64 62 58 54 54 53 49 46 48 52 54 51 50 50 46 47 48 46 43 42 43 40 37 40 40 38 35 31 29
31 35 34 36 37 39 44 54 63 64 77 80 78 79 70 67 63 57 51 46 43 43 44 45 44 45 47 47 44 43 44 42 39 38 38 36 35 38 37 35 33 29 29 29
28 24 27 28 30 29 28 33 39 40 46 59 78 64 71 65 58 52 46 42 37 40 41 40 42 43 43 43 41 41 37 33 32 31 31 33 36 34 35 32 29 29 30 29
17 19 23 25 24 21 19 23 26 38 48 57 70 52 69 63 52 49 45 41 38 38 38 39 38 39 38 39 38 35 31 28 26 28 31 34 33 33 30 28 29 29 29 27
19 15 14 15 18 22 25 20 26 30 36 44 50 45 66 57 43 50 46 40 39 36 34 36 37 36 33 29 30 30 28 25 26 28 30 30 31 29 27 27 28 28 28 28
17 21 13 15 17 19 24 29 23 28 27 33 38 42 59 58 53 38 32 42 40 38 41 38 34 30 26 27 25 24 23 25 25 27 29 29 27 26 26 26 26 27 28 26
17 16 11 16 15 13 22 27 27 26 31 21 30 34 56 53 48 43 33 34 41 43 43 31 27 26 28 27 25 23 24 25 26 27 24 25 25 23 24 25 25 25 24 25
16 16 12 13 15 19 19 21 19 19 25 15 21 31 38 48 47 42 38 33 32 26 33 34 29 27 30 23 22 23 25 24 22 21 22 22 22 22 23 24 23 24 24 25
13 15 13 14 15 15 10 19 25 22 23 25 20 18 37 54 46 49 39 32 25 19 23 33 32 28 25 22 23 24 21 19 20 20 21 21 20 21 21 23 24 25 25 23
14 13 13 11 12 15 9 7 9 26 29 33 19 12 30 40 49 46 50 46 39 33 29 29 26 25 24 24 23 20 18 20 21 21 17 18 19 20 21 21 21 21 21 18
19 16 16 16 19 18 14 11 16 16 26 30 33 29 28 37 43 39 36 39 39 38 29 28 28 26 26 24 21 19 20 21 19 16 16 17 18 19 19 19 18 17 16 18
18 19 19 17 18 21 20 18 16 21 23 29 35 37 30 46 48 46 42 41 41 34 34 29 28 26 24 22 20 21 21 20 17 16 16 17 17 17 18 19 19 19 19 19
14 13 20 19 19 22 18 22 24 25 22 26 34 49 51 54 50 50 49 44 39 38 33 30 28 26 24 22 22 21 20 17 16 15 16 15 16 17 16 16 14 14 14 12
14 8 7 12 15 19 14 13 21 28 25 24 32 44 46 49 56 57 50 44 40 36 31 27 28 27 24 22 21 19 17 16 15 15 15 14 15 12 11 11 8 8 8 8
11 9 6 9 12 15 14 13 16 22 24 24 32 48 48 50 57 58 52 47 42 36 33 29 30 27 25 23 20 18 16 16 15 14 13 13 12 10 9 7 6 5 5 7
12 10 10 9 13 13 13 12 16 24 21 25 31 48 53 55 54 58 53 51 44 38 35 33 30 28 25 22 19 17 17 14 14 14 12 12 10 9 8 5 4 3 6 7
12 12 12 14 15 17 17 9 12 11 11 19 38 54 57 54 53 58 56 51 44 41 37 33 30 29 23 20 17 17 15 14 13 12 11 10 11 9 6 5 4 3 6 8
16 15 13 13 18 19 15 8 7 3 14 20 38 55 58 55 50 57 56 51 47 42 37 34 31 26 21 17 17 16 14 13 12 11 10 10 10 7 6 6 5 4 7 8
15 16 13 18 19 22 18 18 8 10 15 24 47 58 55 48 54 57 57 52 48 41 37 35 29 23 18 18 16 15 14 12 11 9 9 8 7 6 6 8 8 4 7 9
13 17 18 13 12 16 15 11 2 11 17 25 47 58 52 52 58 59 56 52 46 40 36 34 27 22 18 17 15 14 13 11 10 7 8 6 5 5 5 8 11 8 8 12
13 10 13 14 16 15 8 5 7 17 26 30 48 62 56 54 52 59 54 48 43 39 34 30 26 22 19 17 15 14 12 11 7 7 7 4 3 2 6 8 9 9 11 13
20 18 16 14 13 8 1 7 16 29 38 38 50 64 57 55 44 58 51 47 41 37 32 29 28 21 18 17 17 15 12 9 6 6 6 4 2 3 5 7 11 10 14 16
22 18 13 10 10 4 15 11 21 29 39 42 49 64 60 60 58 54 50 46 40 38 33 31 28 23 20 18 17 15 13 9 6 7 8 6 3 5 6 9 11 11 17 16

GFSCGP_500_spd_039.txt.gz
Wind_Speed
49 50 52 55 59 59 62 63 63 63 62 44 60 64 64 59 60 62 63 70 74 67 69 65 64 69 67 55 51 52 53 53 52 53 55 56 53 54 50 44 43 43 39 39
46 48 50 53 57 62 65 67 66 66 67 52 72 72 64 66 66 63 62 63 66 75 74 72 71 75 61 56 56 57 57 60 55 55 55 55 53 52 47 43 41 39 38 39
43 43 45 49 53 55 57 61 65 69 72 71 74 74 68 68 69 67 62 62 63 64 67 76 74 71 59 62 63 61 59 62 57 58 55 50 49 46 42 42 39 36 36 38
44 43 44 44 47 50 54 53 58 64 70 76 74 77 75 71 70 69 65 63 64 64 61 57 62 63 65 66 64 65 64 62 61 55 50 47 46 43 41 37 33 34 35 38
42 41 36 37 40 34 45 44 47 55 62 68 74 76 80 73 74 70 67 64 61 58 55 53 54 51 51 58 64 63 62 57 53 48 47 44 41 38 33 32 31 33 35 36
33 27 27 28 30 31 32 36 33 37 39 49 66 57 79 79 74 72 70 66 62 56 50 48 48 51 51 47 47 49 49 47 45 44 39 37 35 34 28 29 31 33 36 33
21 20 24 26 23 23 24 25 28 33 38 45 44 52 60 68 58 68 64 68 59 54 49 46 46 46 46 45 42 42 43 42 40 38 37 35 31 28 27 29 31 33 33 30
18 16 22 16 22 22 22 19 26 28 29 33 32 46 43 52 34 42 60 70 57 51 44 43 43 42 40 40 39 41 40 39 35 35 34 30 27 29 28 29 31 31 30 29
19 19 16 16 16 18 17 22 26 34 26 34 33 38 35 45 36 41 53 57 56 52 45 46 43 36 38 41 39 35 36 34 32 31 27 26 27 28 28 29 31 27 28 28
18 27 15 10 16 17 19 20 27 33 30 30 26 24 22 36 37 28 21 42 54 45 45 45 42 38 39 36 34 32 30 31 29 26 25 26 27 27 29 29 27 27 27 27
18 20 17 11 12 16 19 17 15 29 27 20 21 20 14 18 40 37 20 32 39 48 44 44 43 39 35 34 31 30 31 28 26 25 25 26 26 26 24 25 26 27 27 25
16 15 18 17 15 18 19 21 21 26 22 18 25 21 28 18 25 29 41 51 46 40 44 45 41 33 31 33 32 33 28 27 25 25 23 21 21 22 23 24 26 25 24 26
17 16 16 18 11 25 21 10 11 25 26 32 32 24 33 27 41 52 49 50 47 44 36 39 35 38 33 32 29 29 28 25 24 22 20 21 22 21 22 22 21 22 24 22
22 13 20 20 23 20 19 6 13 16 26 29 31 25 31 37 20 37 46 49 44 40 32 24 31 38 35 29 29 27 26 25 23 21 21 21 19 20 19 19 22 23 22 20
29 12 19 23 20 22 22 19 19 22 27 27 30 23 25 35 30 26 51 48 47 36 24 27 26 30 30 29 28 28 25 23 21 20 19 19 18 18 18 20 22 21 21 20
24 14 14 17 22 22 23 24 25 25 31 30 29 28 22 22 30 45 42 44 48 41 33 31 32 31 30 29 28 26 23 20 19 18 18 16 17 17 18 20 20 17 16 14
14 12 8 5 13 17 18 18 22 27 31 34 34 30 36 26 36 46 43 37 39 40 39 35 35 32 31 31 27 23 20 19 18 17 16 16 16 17 18 16 13 12 9 8
12 10 11 8 11 11 11 14 21 27 29 39 33 30 38 43 43 49 47 45 46 44 40 37 35 33 31 26 23 20 19 17 16 16 16 15 15 16 13 11 11 8 7 6
16 17 15 11 13 14 18 20 23 21 19 21 26 29 31 35 45 52 50 49 48 44 40 34 34 31 28 24 20 18 16 16 15 15 14 13 15 12 9 11 8 7 6 6
17 14 11 10 14 15 9 6 10 13 13 17 23 25 45 48 46 44 50 53 47 44 40 35 32 29 26 22 19 17 16 16 14 14 12 13 13 10 11 10 8 5 6 7
14 12 15 18 17 19 21 21 15 13 18 16 21 30 44 51 49 57 55 48 44 39 36 33 31 26 23 20 18 16 15 15 13 11 11 13 12 10 9 8 9 7 8 6
13 17 16 16 18 15 22 23 14 10 17 19 20 36 51 52 55 53 53 48 44 39 37 34 30 27 23 19 16 16 16 13 11 10 11 12 10 9 8 9 9 8 9 9
17 16 17 20 20 19 19 15 4 8 15 19 26 45 46 54 56 57 53 49 42 40 37 34 29 26 22 17 17 17 13 12 10 9 10 8 7 6 6 8 10 8 8 11
19 22 22 18 16 14 14 2 2 8 22 34 45 43 54 55 58 54 51 50 44 44 39 34 30 26 20 17 17 14 13 11 8 8 6 5 5 6 7 9 11 10 9 12
18 25 18 14 15 11 7 2 5 20 32 43 45 53 58 54 51 51 53 50 45 44 42 36 31 25 19 17 16 15 12 9 7 6 3 5 3 5 6 8 10 12 12 13
20 25 18 17 12 8 5 6 7 29 38 46 43 56 52 49 44 48 52 50 46 40 34 31 29 23 18 17 16 15 12 9 7 6 4 3 3 4 5 8 11 13 14 15

GFSCGP_500_spd_042.txt.gz
Wind_Speed
42 44 45 46 49 51 56 58 60 59 60 53 38 43 59 58 57 57 58 59 61 65 72 72 66 60 57 60 64 61 52 49 51 52 52 49 47 51 52 52 51 45 42 38
40 43 44 48 51 54 57 59 59 60 62 63 64 67 63 61 61 60 61 59 59 59 57 57 61 62 61 69 68 65 52 46 47 54 55 51 53 56 56 55 50 42 41 34
41 42 43 46 49 50 53 57 60 65 66 66 68 70 68 64 65 66 65 65 61 60 58 60 62 63 67 73 72 69 50 52 50 54 57 55 59 59 55 55 46 43 40 31
42 42 44 45 47 47 52 50 56 58 64 68 64 71 71 65 65 68 65 64 62 62 58 60 63 63 64 75 74 71 64 57 57 53 57 55 58 57 56 54 45 40 34 29
38 40 38 45 44 34 44 41 44 49 58 58 62 62 71 69 70 71 68 66 66 64 60 58 60 61 57 54 56 60 69 64 56 58 61 60 61 54 54 49 41 36 32 27
37 30 32 37 36 35 35 41 47 45 40 54 64 49 71 69 71 69 70 60 58 70 61 58 57 56 53 52 52 49 54 53 52 51 51 52 49 48 47 43 38 34 28 28
25 25 30 33 31 28 25 23 31 31 35 45 44 35 49 65 65 67 65 57 46 58 60 63 58 55 53 50 49 51 47 44 41 42 42 39 40 41 44 37 33 28 27 28
27 25 20 22 14 19 27 19 34 28 27 33 30 40 39 42 53 56 67 65 47 59 66 63 56 51 50 48 45 43 47 48 41 39 36 38 41 39 36 32 31 28 27 28
28 29 21 21 22 19 15 22 26 22 29 34 34 37 43 44 49 54 56 47 43 55 63 60 56 47 49 48 42 40 41 41 40 38 37 38 37 36 29 30 29 27 28 26
26 34 18 24 20 17 17 19 26 29 32 36 31 21 16 14 23 27 40 41 37 29 56 63 53 47 48 42 40 39 39 38 37 37 36 34 31 30 28 29 28 27 26 25
25 30 17 16 20 13 14 17 25 26 30 31 25 18 9 32 29 31 30 19 33 44 52 47 46 49 43 41 39 38 39 36 35 33 32 29 28 27 28 26 24 23 22 25
25 29 28 21 23 18 20 16 31 25 25 25 31 24 26 23 31 43 40 39 36 41 50 44 42 44 42 42 40 35 33 32 32 30 27 27 26 24 23 22 21 21 22 21
27 31 31 19 8 23 24 25 26 23 23 22 26 23 27 22 35 48 29 36 22 34 34 44 43 41 40 42 37 36 33 32 31 27 26 23 22 21 20 20 20 19 18 19
24 27 29 17 20 29 28 27 20 18 24 19 23 32 35 23 19 46 31 22 24 41 8 39 43 40 41 38 34 35 32 30 27 26 23 22 22 20 19 18 17 15 18 21
20 19 19 19 19 25 27 27 17 20 22 28 32 31 38 34 33 47 31 10 20 45 36 27 34 40 40 39 34 31 26 26 25 23 21 22 20 17 16 15 13 16 20 22
23 23 21 14 12 17 22 19 22 27 26 29 32 34 31 30 13 22 13 7 38 50 32 34 32 30 32 32 29 25 25 24 23 21 20 18 16 15 15 12 14 18 17 16
22 27 20 10 13 13 16 17 27 24 26 21 26 27 24 26 30 12 17 36 43 42 45 32 30 27 35 31 27 26 26 22 21 19 18 16 14 14 11 12 15 12 13 12
25 24 21 18 16 15 15 20 18 26 19 24 30 30 13 19 22 22 39 37 41 47 38 33 33 32 33 29 30 27 22 21 18 17 14 13 13 11 12 12 9 11 10 10
20 17 18 17 13 15 16 17 21 24 13 32 35 33 31 26 27 22 30 33 42 52 30 31 34 35 33 30 25 22 21 17 16 13 11 13 12 11 10 9 10 9 8 9
17 16 18 19 17 18 13 12 12 20 14 24 23 32 33 36 33 18 33 40 39 43 33 31 35 34 31 27 22 20 18 15 12 12 12 11 11 9 8 8 8 9 8 8
19 19 22 22 21 22 17 23 26 20 19 23 20 23 36 39 32 35 43 38 40 40 38 36 36 31 28 24 22 18 15 11 12 11 10 9 9 8 7 8 9 10 9 8
22 25 25 26 25 21 26 23 21 21 18 16 17 29 41 40 37 39 41 38 40 42 38 34 34 31 26 23 18 14 10 12 11 10 8 8 7 8 8 9 10 10 9 10
21 24 29 31 23 24 25 30 25 11 6 20 18 38 43 35 45 41 40 43 42 41 38 32 31 29 25 20 15 10 13 12 11 9 7 4 6 7 8 8 8 9 9 12
18 23 31 29 22 31 27 21 5 8 11 19 24 36 43 44 48 45 44 45 45 40 36 32 31 27 22 17 11 13 13 11 10 7 4 4 6 5 4 6 11 12 11 11
17 22 31 34 28 26 18 6 6 6 15 27 30 43 43 52 44 46 48 49 44 40 38 33 33 27 22 15 12 14 13 12 9 5 4 4 4 3 6 9 11 13 11 12
17 21 31 36 26 20 5 3 7 4 12 32 37 47 51 49 45 50 47 45 42 38 48 46 36 30 23 16 14 14 14 12 8 5 4 3 3 4 6 8 10 10 11 11

GFSCGP_500_spd_045.txt.gz
Wind_Speed
36 39 42 42 43 47 48 50 54 53 56 58 61 61 56 57 59 58 55 55 58 59 62 60 59 57 62 64 64 64 69 65 60 58 52 48 42 42 39 46 47 48 47 45
34 37 39 44 45 47 50 53 54 54 54 57 59 63 59 58 59 60 61 59 58 59 56 60 67 62 61 64 65 66 66 65 60 52 51 47 44 41 44 47 50 49 47 46
34 35 38 41 43 46 48 50 52 56 56 58 62 63 62 59 59 60 61 61 63 62 59 56 58 59 61 67 69 71 69 69 60 52 49 43 45 47 48 51 52 46 47 47
31 34 37 39 42 45 50 48 52 56 58 61 55 67 64 60 59 62 63 64 61 60 58 57 57 57 59 61 60 59 60 56 49 44 43 44 47 50 55 56 57 47 47 47
32 35 36 38 42 43 47 47 53 56 60 62 63 66 64 62 63 65 65 66 65 61 59 58 53 52 53 58 58 56 53 50 44 38 36 45 54 55 54 55 54 48 50 45
31 27 31 39 40 39 42 39 43 47 47 59 57 58 64 64 61 61 67 69 65 64 60 61 59 53 47 52 54 53 49 49 45 36 32 36 41 48 45 48 45 42 40 38
24 22 25 36 35 27 31 35 32 30 34 46 38 38 57 58 57 61 62 65 64 66 65 65 62 61 52 51 51 53 48 45 42 38 36 32 33 37 39 40 35 34 33 33
25 23 24 31 30 26 19 18 25 29 27 26 28 30 41 49 43 49 60 64 57 58 60 62 62 58 55 50 52 51 50 44 39 38 38 37 37 38 36 32 29 31 29 30
26 22 24 27 29 32 29 19 22 25 26 30 25 25 21 31 45 46 53 56 60 58 56 57 58 56 53 48 43 49 47 42 37 38 41 44 40 40 36 30 29 27 28 29
24 27 25 23 29 27 25 23 24 27 29 28 29 32 31 27 37 39 49 49 47 44 53 56 53 52 50 48 44 40 39 40 38 38 39 39 39 38 33 30 27 27 28 28
30 33 30 26 26 23 19 22 27 24 24 29 33 25 27 23 33 36 35 48 40 45 49 56 51 54 49 44 40 41 33 37 37 38 37 36 34 32 29 27 26 25 26 25
29 31 25 26 25 25 26 32 28 24 21 23 25 28 27 29 34 34 33 37 46 51 48 50 52 46 44 44 40 39 35 36 38 39 34 31 31 28 25 24 24 24 22 20
22 20 23 19 20 22 22 29 27 30 33 30 30 27 25 25 30 31 28 48 47 46 42 41 51 59 46 38 40 39 37 37 36 31 29 28 25 21 22 23 22 19 18 19
22 19 25 27 22 22 25 25 23 28 34 22 19 26 24 30 32 18 26 52 46 39 41 52 37 37 38 38 41 42 38 36 32 27 26 24 21 19 21 21 18 17 17 15
20 20 26 32 25 20 19 26 23 27 27 26 25 27 23 29 34 8 29 22 38 37 37 22 25 41 37 39 38 40 35 33 29 25 22 22 20 21 22 19 17 15 14 14
25 30 26 32 23 23 14 12 22 24 28 24 24 25 30 28 30 13 17 33 27 32 37 16 33 41 38 43 38 33 30 30 26 22 22 21 21 20 19 16 14 12 13 15
19 22 24 18 21 17 12 17 18 20 21 27 25 25 22 25 33 17 19 30 26 31 33 30 32 34 37 41 40 31 29 25 24 22 21 19 18 17 16 14 12 11 13 11
17 19 19 18 20 17 15 19 23 24 25 23 25 25 21 20 24 22 13 34 36 37 38 34 30 32 28 27 34 29 24 22 22 20 18 18 16 15 13 11 11 11 10 10
20 19 21 24 24 20 15 16 14 17 11 18 19 24 16 13 23 17 15 23 24 43 38 32 30 28 19 37 34 26 24 23 18 16 16 15 14 13 11 11 10 10 9 8
19 19 23 24 26 31 23 22 17 24 23 17 17 12 28 27 24 17 14 24 21 39 31 28 29 20 34 33 26 25 22 18 16 15 15 13 13 11 11 10 10 10 9 7
18 19 23 24 29 33 23 15 26 26 28 23 13 14 12 18 25 22 17 20 26 37 35 36 33 30 34 28 24 21 18 15 15 15 13 13 12 11 10 10 10 9 9 7
14 18 21 28 35 32 26 27 29 30 28 20 12 15 14 22 23 19 28 28 37 43 40 38 35 29 28 27 21 19 16 18 17 13 12 10 9 10 10 9 9 9 8 7
12 15 19 23 30 39 34 32 30 16 15 9 12 14 26 26 24 29 27 36 41 47 40 37 30 31 28 24 20 18 19 17 15 14 12 9 10 9 9 10 10 10 10 9
11 14 21 27 36 41 37 29 21 12 12 12 21 23 29 25 31 28 36 39 43 45 41 37 34 39 33 26 23 21 17 14 12 11 9 9 7 6 8 9 10 11 11 11
12 16 23 31 36 40 29 20 9 10 8 17 25 29 29 34 36 34 44 41 42 42 41 35 37 34 31 25 21 18 16 13 12 10 9 7 6 7 9 9 8 9 12 13
8 13 26 33 38 37 24 10 8 3 2 12 23 29 37 36 33 39 38 42 39 42 27 50 37 40 29 23 20 18 15 15 12 10 8 7 7 9 11 10 10 7 7 12

GFSCGP_500_spd_048.txt.gz
Wind_Speed
29 31 32 35 39 42 43 46 48 50 52 55 57 54 53 54 56 57 57 59 60 54 63 66 64 66 64 64 61 62 63 61 58 57 56 53 50 50 47 41 39 39 41 40
27 28 33 36 38 41 43 46 49 49 51 54 56 57 51 53 56 57 59 59 59 57 59 63 72 67 71 69 67 64 63 63 62 59 56 57 54 52 50 46 42 42 45 44
25 27 30 33 36 39 41 46 51 53 54 56 59 58 56 56 59 58 57 58 59 59 59 59 66 70 71 72 72 67 66 64 57 55 58 59 56 48 50 49 44 46 47 45
25 27 30 32 36 38 41 43 48 49 53 56 54 62 58 58 61 62 61 60 60 61 60 60 59 64 68 68 71 71 67 65 61 57 53 43 38 39 43 47 49 50 49 47
25 25 27 31 31 33 38 40 44 49 54 58 56 62 58 57 60 59 63 62 63 62 63 60 59 55 62 64 67 69 70 64 59 53 45 34 33 36 47 52 53 52 49 43
27 30 33 29 29 31 37 41 46 47 47 55 54 55 59 60 59 57 59 65 67 66 65 64 61 59 55 58 63 64 62 58 56 53 43 36 35 34 33 36 44 46 43 43
29 23 25 26 28 29 27 33 40 40 35 38 37 48 57 60 59 64 66 63 65 66 68 64 61 60 59 56 56 57 60 57 53 48 40 34 34 36 38 38 33 32 35 37
27 19 17 24 28 30 29 30 31 37 28 22 23 36 34 45 43 55 64 67 64 63 65 65 65 63 59 57 54 55 55 54 53 49 41 34 32 36 40 37 30 33 34 36
20 18 19 27 30 32 31 32 29 37 35 35 20 20 30 27 33 35 45 56 60 58 61 61 64 63 61 58 53 47 51 49 47 43 40 36 35 37 40 37 35 34 38 31
19 25 24 27 27 29 30 34 32 30 31 33 27 29 26 30 36 37 37 42 51 58 54 55 56 58 60 59 56 49 43 44 43 41 38 37 37 37 35 34 35 36 33 30
21 23 20 19 22 26 29 32 32 30 30 37 35 29 24 25 29 34 38 43 43 50 51 50 53 54 55 56 56 52 42 39 39 39 39 37 37 36 34 33 33 33 31 29
17 24 23 16 22 26 30 29 33 34 34 27 29 29 25 24 22 31 38 40 45 46 49 50 50 52 53 52 51 49 47 44 43 39 37 38 38 37 34 30 30 30 29 27
19 21 25 23 24 30 23 23 24 32 37 36 37 29 31 27 27 34 34 35 31 40 44 48 50 50 50 49 46 49 49 44 45 42 41 40 38 33 30 29 29 27 27 25
21 20 23 28 30 34 24 19 26 29 32 32 28 31 25 24 29 32 29 30 32 31 39 54 55 47 47 49 52 49 45 46 42 40 36 33 28 27 27 26 25 26 23 22
19 18 22 27 24 26 21 16 18 26 30 32 26 33 29 27 28 33 25 17 20 26 46 57 52 61 59 56 45 44 43 48 41 36 31 25 26 26 24 25 23 23 23 21
18 22 21 22 21 24 19 16 13 16 24 32 37 34 28 31 20 20 24 35 18 30 43 40 38 36 36 39 49 50 41 42 41 30 27 25 25 24 24 24 23 22 22 19
16 20 18 20 21 27 24 19 14 18 21 25 25 27 31 26 17 15 10 4 23 35 32 29 43 14 33 43 50 55 39 38 35 30 29 27 27 26 24 22 22 23 20 19
16 17 19 19 20 21 26 25 23 23 19 17 20 24 24 21 17 14 16 6 11 20 32 34 36 32 35 35 44 31 42 39 34 30 29 27 26 24 21 22 22 21 18 16
15 17 19 22 19 20 20 24 24 24 19 24 27 20 18 17 11 11 10 8 15 28 33 36 19 30 30 41 46 44 43 36 32 30 28 26 23 21 22 21 20 18 15 13
16 17 18 21 23 27 31 33 27 28 22 27 25 20 14 16 8 8 11 7 23 25 37 40 28 28 21 42 53 47 40 35 32 27 23 23 22 22 21 20 17 15 14 12
18 17 17 17 23 26 33 37 40 34 30 28 26 16 14 9 10 14 13 18 28 25 28 27 23 18 30 47 55 40 35 30 27 25 24 22 21 20 19 17 14 13 14 14
14 17 16 18 25 31 35 47 43 33 23 19 14 14 14 12 22 21 19 17 20 29 30 28 22 23 50 52 47 38 31 27 26 23 21 20 20 19 17 14 13 15 14 14
15 15 11 18 22 25 35 44 40 31 17 7 12 11 13 16 24 31 33 20 27 33 35 27 21 9 45 43 39 36 30 27 23 22 20 19 18 15 16 16 15 15 14 14
14 11 11 15 28 32 38 36 27 18 7 11 17 13 20 22 25 31 47 36 28 36 38 35 29 23 39 37 35 31 25 22 22 20 20 17 13 13 14 15 15 14 15 14
9 11 16 19 29 35 38 29 16 11 12 14 16 15 23 25 21 28 38 30 25 32 36 30 20 35 34 34 31 26 24 23 21 19 15 13 13 12 12 13 13 15 14 12
8 12 17 29 36 36 34 15 11 10 8 4 4 13 22 19 19 20 20 21 27 34 35 32 41 31 36 33 28 26 26 25 22 17 15 14 12 12 13 12 13 13 13 13

GFSCGP_500_spd_051.txt.gz
Wind_Speed
25 26 28 31 34 35 37 40 44 46 48 50 51 51 50 50 52 56 57 56 62 71 74 66 69 70 69 68 65 65 62 57 56 51 50 51 49 50 41 41 37 42 36 42
25 25 27 29 32 34 36 39 42 43 46 49 51 50 49 52 52 55 57 59 59 60 63 71 71 67 72 68 65 64 63 61 57 54 52 54 53 51 48 43 45 43 43 45
25 26 28 30 31 33 35 38 40 42 44 47 51 53 52 55 56 56 57 59 60 61 61 62 61 72 63 71 69 67 66 64 62 60 57 56 54 53 50 46 46 47 48 47
25 26 27 29 30 32 33 36 38 40 42 44 46 54 51 52 57 60 61 61 61 63 65 62 61 62 66 62 74 71 71 73 70 66 62 55 52 50 43 42 38 39 43 49
26 24 24 26 28 31 33 35 38 41 44 48 49 54 50 51 55 57 61 63 64 66 66 66 63 61 61 65 76 78 76 75 74 72 66 63 57 52 41 37 35 38 43 48
21 21 22 24 25 28 33 35 39 42 44 49 48 53 50 53 57 58 60 65 68 70 70 68 68 65 64 63 67 73 81 79 75 73 68 59 49 43 47 40 40 41 40 41
21 21 22 24 27 27 28 33 41 45 44 46 45 51 53 57 61 64 66 64 65 69 70 70 68 68 65 65 65 64 66 70 70 66 62 53 42 35 34 38 40 41 39 41
21 11 14 19 23 27 29 34 38 46 47 49 42 49 44 50 55 58 62 64 64 65 68 70 70 69 67 65 65 65 63 61 62 60 60 55 41 33 34 38 40 43 42 41
21 12 10 16 24 29 32 32 36 43 45 50 45 39 31 32 37 35 36 44 54 62 66 68 69 68 68 67 64 64 63 62 60 59 56 55 45 36 37 39 43 45 42 40
16 17 12 12 18 24 26 32 36 42 46 49 43 40 29 33 32 33 32 37 41 47 59 60 67 66 67 68 67 62 61 58 58 56 53 50 45 44 44 44 44 39 37 41
15 16 12 16 20 24 27 31 37 43 44 46 45 40 25 26 26 29 30 29 38 44 42 53 55 63 66 65 66 64 60 54 54 54 52 49 45 44 44 45 43 36 35 35
14 16 16 14 20 26 30 35 39 43 39 36 39 27 25 24 29 26 24 21 25 36 43 42 41 55 63 65 64 63 61 55 49 49 50 50 47 44 42 43 39 34 32 31
16 16 20 17 20 26 33 33 37 38 35 35 39 30 27 25 26 28 26 27 26 31 38 41 42 49 63 63 63 61 59 56 48 51 49 49 45 40 38 39 34 29 30 29
17 14 18 17 20 24 19 24 29 33 37 29 32 25 15 22 26 28 27 30 32 31 31 34 37 50 57 59 59 58 56 55 52 51 49 47 41 37 34 35 31 28 28 29
16 13 16 17 18 19 22 27 26 29 28 29 23 22 19 28 30 30 26 27 29 22 23 29 38 45 52 57 56 57 58 56 53 49 48 46 42 36 36 33 28 28 29 27
14 15 15 14 21 24 23 24 25 22 21 26 28 28 27 31 29 23 26 25 24 35 15 24 25 39 54 60 57 59 58 56 50 45 47 44 44 39 33 29 28 28 27 26
15 17 18 12 20 18 20 25 27 21 23 28 31 28 30 27 30 28 22 22 20 22 3 27 22 34 48 59 55 55 54 52 47 48 44 44 40 36 31 29 29 27 26 25
15 18 20 17 19 18 20 24 27 27 25 29 28 25 27 29 24 26 26 19 21 7 16 22 20 28 40 34 38 50 53 48 44 44 44 42 36 33 31 29 27 25 26 25
18 19 22 24 23 19 19 27 31 36 36 33 34 34 34 31 23 23 21 17 4 9 14 20 15 23 36 26 33 48 51 47 44 46 46 37 34 30 29 26 26 27 25 23
21 22 24 27 29 27 27 32 34 36 47 39 27 28 31 26 17 25 7 11 7 14 18 15 25 20 25 26 24 44 48 47 49 47 42 38 31 28 26 26 27 24 23 22
22 23 27 28 28 22 26 27 33 42 44 35 30 26 19 7 12 5 2 5 7 7 16 22 21 19 19 18 33 39 57 38 46 43 35 29 28 29 28 26 25 24 22 20
16 19 24 23 21 23 23 35 39 47 40 26 22 14 15 9 11 5 3 5 8 9 12 22 32 11 20 33 37 51 55 47 35 35 32 30 28 27 25 26 25 22 20 19
17 21 20 19 18 24 30 39 41 45 30 13 10 13 7 11 12 7 6 9 10 13 18 18 21 2 17 37 51 30 51 46 38 33 32 29 27 26 26 24 22 21 21 19
20 20 15 15 16 24 27 35 42 32 20 16 16 15 10 14 13 9 13 10 7 14 13 12 15 16 48 47 31 44 46 40 35 31 28 27 28 26 24 23 21 19 18 18
16 12 15 17 26 30 34 38 29 17 12 12 11 9 8 20 13 10 14 15 4 10 11 16 25 44 45 43 46 40 37 34 31 30 29 27 25 22 21 21 20 20 20 18
11 16 16 20 23 36 38 30 12 8 8 8 3 4 17 21 15 11 14 19 15 13 15 11 39 45 42 39 37 35 34 32 29 27 26 23 22 20 19 18 18 18 19 18

GFSCGP_500_spd_054.txt.gz
Wind_Speed
27 29 33 36 38 39 40 42 42 43 44 45 44 45 43 42 46 47 48 50 55 64 77 70 67 64 61 60 62 61 61 59 55 59 55 54 55 50 50 50 37 36 38 39
24 26 30 31 33 35 37 39 41 42 44 46 46 45 45 46 48 50 50 52 53 55 60 72 79 74 72 67 64 61 64 66 65 66 64 61 58 56 52 50 48 30 33 35
24 25 27 29 30 31 33 35 36 39 40 42 44 41 43 46 47 49 52 54 56 57 57 60 65 73 79 79 78 77 75 77 73 63 63 63 61 56 53 53 39 35 35 39
25 26 26 27 28 30 31 33 34 35 37 38 40 44 39 43 48 51 53 55 57 61 63 62 62 62 64 77 74 68 74 70 68 69 71 70 67 59 53 48 44 42 43 46
27 26 24 26 26 27 28 31 32 33 35 36 38 41 42 39 42 47 52 56 59 61 62 64 64 64 63 65 65 69 76 73 68 73 68 67 62 58 54 51 46 46 49 50
23 23 22 22 24 26 27 29 32 34 36 40 42 44 42 45 48 49 49 52 57 61 64 65 67 66 66 66 66 64 60 65 68 62 63 68 65 62 57 54 49 55 56 55
21 19 20 22 24 24 26 29 32 35 37 39 42 48 47 52 56 58 60 58 56 58 63 66 68 69 68 68 69 68 67 64 62 65 64 65 68 67 61 51 50 50 49 47
24 17 18 21 23 23 23 26 28 34 34 37 33 43 47 49 57 60 65 67 66 63 63 65 68 70 71 69 69 70 70 67 65 63 64 64 64 65 56 43 45 49 46 44
23 20 17 20 18 22 25 20 20 25 29 38 41 39 42 38 45 48 48 51 57 63 65 66 68 71 72 72 70 69 69 69 68 66 62 61 62 62 55 43 46 43 43 44
24 24 17 21 20 21 21 20 24 30 37 40 37 50 46 44 38 38 35 37 38 41 47 56 64 70 72 71 71 70 69 68 67 67 65 62 62 61 57 48 44 42 44 44
21 23 15 17 17 21 22 24 26 32 39 46 51 42 41 28 26 28 26 23 22 26 32 39 49 64 70 73 73 70 69 67 66 65 65 64 62 60 56 49 46 46 47 44
20 24 17 13 16 16 18 21 28 32 34 42 44 30 24 22 21 26 26 23 25 28 27 30 37 39 54 68 74 69 66 65 63 63 62 61 60 57 54 49 47 47 44 42
20 22 18 16 16 20 21 23 25 27 33 35 39 33 28 27 22 29 32 26 29 29 31 27 31 37 37 47 69 70 66 64 63 60 60 57 58 57 54 50 47 44 42 41
20 19 19 19 15 18 16 18 23 29 33 36 36 29 21 23 28 29 26 25 27 31 33 33 33 35 35 41 57 67 66 64 61 58 57 56 58 58 55 50 46 41 40 41
18 16 18 17 21 20 20 19 22 27 32 36 27 29 28 26 28 29 29 33 35 38 35 28 31 32 29 33 50 60 64 65 60 57 56 58 57 57 52 45 40 39 39 38
18 16 17 13 20 21 17 21 23 25 26 29 28 33 38 39 37 35 35 37 36 35 33 29 31 32 32 34 39 52 64 62 61 60 54 57 58 56 48 44 39 37 34 30
17 16 19 10 19 20 19 23 27 28 32 34 38 39 43 37 36 32 30 36 37 38 29 27 27 28 19 23 33 30 62 63 63 59 54 54 56 54 49 44 37 33 30 31
17 18 21 18 19 19 19 26 29 34 35 37 40 47 50 39 34 33 34 35 30 26 21 22 28 27 5 21 26 34 56 64 60 55 52 53 53 51 46 39 36 31 31 31
16 19 23 24 24 23 18 26 30 33 32 35 40 50 43 36 34 22 29 31 17 14 28 15 25 25 19 20 14 33 54 57 55 55 50 49 50 47 43 38 34 31 31 28
19 22 24 25 30 27 28 28 29 35 41 37 49 57 36 22 18 14 16 11 8 15 24 23 23 19 8 14 27 33 54 51 51 51 48 51 48 44 38 36 33 31 28 26
20 23 26 29 31 32 31 26 31 39 45 49 51 48 24 19 12 9 6 7 3 6 18 25 21 12 11 17 23 37 47 49 49 49 49 50 46 40 37 36 32 29 26 23
15 19 21 23 26 26 24 27 33 38 38 43 45 26 20 16 8 8 5 2 5 5 4 8 10 12 12 16 29 33 43 50 52 54 51 47 45 43 42 34 30 26 24 23
19 19 17 19 19 23 25 29 37 42 44 40 24 18 17 10 9 7 7 5 5 5 6 3 6 14 10 17 28 40 48 52 55 56 53 49 41 38 32 29 25 23 22 22
19 18 17 16 20 24 29 36 38 47 38 20 16 18 14 7 9 5 6 7 13 11 9 8 9 12 3 19 31 45 47 53 53 52 43 45 36 31 27 24 24 24 24 22
12 10 13 17 21 26 33 40 40 30 19 13 15 9 4 11 10 5 9 9 10 10 9 4 19 13 8 22 32 44 44 51 40 49 40 35 29 25 24 24 24 23 24 24
18 14 25 26 30 37 38 38 26 16 11 11 10 3 8 15 10 8 7 5 8 9 3 30 31 23 37 23 36 43 46 45 41 34 30 27 25 24 24 25 25 23 20 19

GFSCGP_500_spd_057.txt.gz
Wind_Speed
26 29 33 36 37 39 41 40 39 38 40 39 38 38 36 37 39 40 43 41 45 75 64 65 61 60 61 59 58 57 58 56 57 56 58 58 50 35 44 49 37 43 45 43
23 25 28 30 33 35 37 39 40 41 42 43 41 40 41 40 41 42 43 45 46 48 51 75 72 66 65 62 58 61 62 60 59 62 60 57 45 44 46 44 42 44 45 47
24 24 27 28 28 30 32 34 36 38 39 40 41 41 39 40 43 45 47 47 48 50 51 52 63 72 73 69 65 62 62 61 61 59 61 59 56 60 59 57 54 49 48 45
24 25 25 26 27 29 30 32 34 35 36 37 39 40 36 38 41 44 45 47 49 52 55 57 58 58 68 76 78 70 69 63 61 62 61 61 66 66 61 55 56 54 51 42
26 26 24 26 28 29 30 31 32 32 33 33 32 38 37 35 38 40 43 45 48 50 54 59 62 64 65 65 65 70 79 74 72 70 69 70 68 68 69 67 63 57 55 46
26 26 24 25 27 29 30 31 31 31 32 33 32 35 35 34 39 40 42 45 46 48 54 58 61 64 68 69 69 68 67 68 72 83 78 77 80 79 76 67 63 58 51 45
24 26 23 24 27 28 29 30 31 31 30 32 34 36 34 38 41 46 50 50 53 54 52 53 57 62 65 67 69 71 71 69 67 65 69 77 74 70 69 63 54 53 52 46
27 26 26 26 26 27 27 28 28 31 30 30 32 37 33 36 35 37 50 56 57 60 58 57 58 59 61 64 68 68 70 70 69 68 65 61 60 62 60 60 55 54 45 45
29 27 24 23 27 27 27 26 26 27 26 28 29 30 28 27 33 46 50 55 62 65 66 66 65 64 62 61 64 68 70 70 70 69 67 63 60 57 58 55 53 54 45 46
28 27 26 24 25 24 27 25 22 22 26 25 23 22 19 26 36 43 50 56 60 64 67 70 73 73 70 70 68 66 68 70 71 70 67 64 62 56 54 54 54 50 44 45
23 25 24 23 22 26 30 24 22 24 24 26 27 21 26 31 31 39 46 50 49 52 57 58 59 66 73 76 75 73 70 69 69 69 68 65 61 59 57 57 54 49 44 45
20 20 17 17 23 25 26 25 23 23 24 28 30 23 31 36 35 36 43 47 51 46 40 39 39 39 48 56 68 76 76 71 69 69 68 66 63 60 58 58 56 51 47 48
21 22 19 18 22 24 24 24 23 24 25 22 28 27 35 36 36 39 38 41 43 40 35 34 32 35 38 39 42 60 74 75 71 68 67 66 63 60 57 56 56 53 51 48
22 20 16 18 21 23 20 20 21 25 27 25 28 26 29 32 33 34 34 40 35 42 39 36 34 37 40 41 37 36 57 76 74 70 67 66 62 60 58 57 56 55 51 47
21 14 16 16 19 21 20 16 23 28 27 30 27 34 34 41 42 39 44 44 41 41 43 42 39 39 40 42 45 41 43 65 77 72 68 64 62 62 60 56 57 55 49 45
18 14 15 12 19 20 16 17 24 27 26 31 32 34 39 44 39 47 50 48 44 45 46 48 47 47 43 44 44 42 46 55 71 73 66 64 61 60 59 56 54 55 48 42
16 15 16 12 18 20 17 19 23 27 30 32 35 36 41 38 46 55 52 45 44 42 42 42 43 41 42 42 43 38 48 50 58 70 67 63 59 59 56 53 56 50 44 39
16 17 16 16 19 21 20 21 26 31 31 32 39 40 49 52 50 54 49 42 37 37 40 40 35 36 34 36 44 34 37 41 52 64 65 62 58 56 53 55 54 46 41 37
8 14 17 20 22 24 19 25 28 31 32 30 35 41 41 45 47 38 39 38 26 25 20 23 27 25 27 13 24 30 37 35 45 60 62 58 53 52 52 54 52 45 37 37
9 13 16 23 29 28 27 30 32 33 33 34 38 43 46 44 33 21 29 24 7 6 14 17 13 18 24 20 19 14 30 26 36 58 54 53 51 50 51 52 49 43 39 36
14 19 21 25 29 26 25 28 31 31 34 38 43 50 43 29 28 22 22 12 2 1 6 11 17 17 21 21 14 20 16 28 36 50 52 52 51 51 52 50 45 40 34 32
16 17 18 21 21 23 24 24 28 32 35 45 48 48 30 21 24 19 11 5 1 1 8 17 21 23 26 9 10 17 17 34 46 48 47 49 47 48 48 45 40 35 36 33
16 15 16 19 20 22 24 30 33 39 44 50 41 26 20 21 19 9 3 7 4 3 3 7 8 7 8 7 19 18 28 43 47 49 46 47 47 45 42 38 37 38 39 30
8 14 15 18 24 26 29 32 39 45 44 39 27 20 20 13 9 4 8 6 6 5 2 9 20 20 14 10 18 24 39 52 46 45 47 46 44 41 39 40 39 33 27 25
15 18 18 24 30 29 33 38 40 34 26 22 18 16 10 5 4 9 6 7 10 10 14 14 8 12 17 18 24 31 34 44 45 45 46 44 42 41 40 39 34 28 26 25
18 21 24 23 30 42 37 33 24 21 16 15 13 8 5 7 9 6 5 8 10 10 14 17 22 20 25 24 32 37 29 38 41 42 42 40 39 38 33 31 28 27 24 21

GFSCGP_500_spd_060.txt.gz
Wind_Speed
24 27 29 35 36 38 39 38 38 38 39 35 36 35 34 35 37 39 41 43 42 64 66 66 68 68 68 69 67 77 68 69 63 47 55 61 57 52 54 46 36 34 40 24
25 26 30 29 31 32 34 38 38 41 41 41 39 38 36 35 37 37 38 41 43 44 56 66 69 67 70 69 70 68 65 63 57 60 57 60 57 45 49 46 43 36 39 37
27 30 29 29 29 29 31 33 37 37 40 39 41 40 41 39 39 40 40 40 43 45 45 48 74 72 68 68 68 69 65 61 63 66 66 65 75 53 52 52 55 41 38 34
28 30 28 28 28 29 30 35 34 34 34 33 37 34 38 36 39 41 43 45 47 49 48 48 49 63 72 73 66 68 70 70 68 68 68 67 62 56 55 55 53 50 39 37
27 31 28 27 29 31 30 32 33 32 33 33 32 34 33 32 36 39 41 43 45 49 51 52 51 52 52 80 76 74 70 70 67 66 67 68 65 60 59 63 49 52 47 45
23 25 27 28 30 30 33 33 32 31 31 31 30 32 21 31 30 35 39 41 43 45 48 51 54 55 56 57 60 62 79 75 74 70 64 62 61 60 61 61 61 56 49 52
25 27 28 28 32 31 32 32 27 24 27 19 33 29 27 30 30 34 37 40 41 42 44 47 51 55 56 58 61 61 61 67 79 81 76 70 68 68 66 63 60 60 61 64
27 27 27 26 31 27 29 32 27 26 17 17 34 31 33 24 29 35 39 41 43 45 46 47 49 51 53 59 61 63 65 66 68 70 71 70 72 77 76 73 71 69 67 62
25 28 33 28 27 32 27 30 32 34 31 33 30 28 24 28 28 33 35 39 44 48 51 54 55 55 56 58 59 62 65 68 69 71 71 70 67 65 64 67 65 69 73 71
23 24 30 30 27 26 27 31 32 30 31 28 24 22 19 27 25 31 35 41 41 42 45 51 57 61 63 63 64 65 65 65 69 71 71 70 68 67 64 62 58 57 61 62
23 22 20 30 31 32 31 34 34 29 27 25 23 16 24 24 30 32 34 37 39 40 37 41 45 57 67 69 71 71 71 70 68 67 70 72 70 66 64 62 58 53 53 54
22 21 20 22 20 28 29 29 28 26 25 25 27 23 27 23 27 29 32 35 38 41 45 47 45 46 50 62 71 77 76 76 76 73 69 67 69 69 65 60 56 55 53 50
15 16 16 18 20 19 23 24 24 24 27 27 28 22 20 26 27 29 32 36 38 41 43 44 47 49 47 48 47 56 71 80 81 80 77 71 66 66 65 61 58 54 52 50
21 18 17 18 18 20 23 24 24 27 31 28 27 24 27 27 31 36 36 38 42 46 49 53 53 48 46 42 42 40 43 49 64 80 82 77 69 66 64 61 58 55 52 52
18 15 17 18 23 28 24 22 24 27 25 30 27 29 29 32 35 39 42 45 42 47 51 55 59 58 49 47 46 45 45 47 48 55 76 80 76 69 65 62 59 54 53 51
12 12 13 14 19 21 21 18 22 26 29 32 33 32 32 34 40 44 46 49 55 58 57 55 50 57 56 55 51 48 46 46 47 49 55 74 79 72 65 62 57 56 53 51
12 13 14 13 17 18 17 18 20 23 26 31 32 33 36 38 41 44 48 53 55 58 57 54 47 47 52 50 56 54 54 55 51 50 50 60 76 73 66 62 59 55 53 49
13 14 13 13 16 15 16 21 24 27 30 29 36 39 41 41 41 44 51 56 53 53 51 38 35 39 44 46 48 51 52 49 46 50 51 52 67 71 65 63 57 54 51 46
8 6 8 11 16 18 18 24 27 31 31 35 40 40 42 41 45 49 53 47 46 46 36 24 25 31 35 39 43 39 43 46 43 46 46 50 59 67 65 59 54 51 48 50
8 10 13 14 20 24 23 26 27 32 35 36 38 38 36 42 51 44 38 33 35 34 28 20 20 20 29 37 36 37 28 35 37 37 42 48 54 62 61 55 53 49 50 50
15 17 17 17 19 19 22 24 26 27 28 29 34 36 43 51 44 34 29 28 30 28 18 17 20 21 20 24 25 24 24 25 35 34 40 45 53 56 55 54 51 51 49 45
9 10 11 15 17 19 21 25 30 32 32 35 39 44 45 34 31 27 29 28 25 22 20 20 15 15 19 20 20 14 26 22 35 33 39 50 50 53 53 51 50 49 46 41
7 10 12 15 17 25 29 31 32 38 43 44 42 34 30 29 24 27 21 21 18 15 16 19 21 21 22 24 14 19 22 30 34 37 45 46 49 52 52 49 49 45 41 36
9 11 17 22 26 25 30 35 40 38 34 29 29 27 23 21 21 17 19 17 14 7 8 10 13 12 10 18 21 22 22 38 42 44 43 47 48 48 47 45 43 39 34 33
14 18 17 16 26 33 33 32 33 24 23 22 20 19 17 16 13 19 17 13 6 12 12 17 22 17 12 20 19 21 42 50 48 39 48 43 45 44 43 42 38 35 35 35
17 21 24 26 31 43 35 30 30 26 15 18 19 17 15 13 16 19 15 9 11 23 19 13 3 13 20 29 26 40 53 55 35 37 39 45 42 41 40 37 35 37 35 31

GFSCGP_500_spd_063.txt.gz
Wind_Speed
27 25 26 27 29 38 42 42 30 21 29 45 36 35 34 39 41 36 37 41 44 47 49 61 78 77 78 76 79 70 71 72 71 69 75 62 61 61 56 58 51 50 41 44
29 29 28 30 35 33 32 39 42 41 42 48 43 40 38 39 37 37 35 36 41 47 46 48 77 79 77 81 77 83 83 81 84 68 71 59 67 67 66 58 54 57 44 49
31 25 35 35 31 32 31 33 34 32 39 49 41 42 41 39 41 40 38 39 40 43 46 45 39 80 77 82 77 74 70 79 73 76 68 70 71 69 63 59 45 56 41 42
29 25 35 34 32 32 30 23 32 40 39 35 35 38 29 40 45 44 43 42 41 41 40 42 44 46 75 77 86 80 65 62 70 84 69 64 69 69 61 65 47 51 49 41
20 25 32 26 28 26 32 32 39 34 35 35 33 36 31 24 36 39 41 44 44 44 43 44 45 48 50 64 80 74 77 67 64 65 64 75 61 61 55 46 52 52 55 50
25 25 29 27 28 34 34 35 35 34 30 33 29 27 20 22 29 35 36 38 40 43 44 46 48 49 51 51 53 82 76 79 73 69 64 65 70 60 56 58 56 57 52 53
20 24 27 32 30 27 29 32 25 21 22 25 20 24 22 28 36 27 30 32 34 38 41 42 43 47 50 53 54 54 58 61 78 79 69 71 67 70 67 63 63 59 56 57
27 28 27 32 36 27 25 17 22 22 22 16 18 22 21 28 39 29 31 32 33 35 37 39 40 43 45 49 52 54 59 59 58 71 85 74 74 75 64 70 67 65 64 63
26 27 30 34 30 34 23 30 26 31 32 36 25 22 26 30 30 30 31 33 36 37 38 39 40 42 45 47 47 49 52 58 61 62 61 62 65 79 81 76 70 71 65 60
26 29 28 32 35 31 31 30 32 27 27 26 24 21 24 29 30 38 34 32 34 37 40 42 42 42 46 49 53 55 53 54 57 60 64 65 64 62 65 72 75 71 69 67
24 26 22 26 32 28 28 30 33 32 28 20 24 16 29 17 24 34 29 32 34 36 39 41 43 45 46 49 53 56 60 61 61 60 60 63 65 64 63 62 61 62 63 59
23 26 24 22 22 28 32 31 33 31 31 32 37 37 19 22 27 36 32 31 36 37 37 40 43 46 50 55 57 58 60 61 65 67 67 65 63 63 65 64 62 60 59 58
22 22 18 14 10 17 22 23 28 33 24 31 28 25 24 29 33 29 28 31 31 32 34 36 39 42 44 49 54 57 60 64 68 68 72 72 70 67 64 63 63 60 59 55
20 20 19 20 20 18 16 17 23 29 40 30 29 27 27 28 29 32 32 34 34 38 42 44 47 50 52 54 55 57 58 60 64 69 70 74 75 74 71 66 62 61 59 56
15 15 19 19 23 26 26 26 21 25 26 30 27 30 29 33 29 35 39 39 43 44 44 48 52 55 60 62 62 61 61 59 60 59 60 67 73 78 77 72 66 60 58 54
9 9 12 16 19 21 24 27 25 27 26 29 31 33 30 26 35 36 36 46 44 45 47 52 59 64 63 61 63 65 63 63 62 57 54 55 64 76 81 78 71 64 57 54
7 10 14 15 14 18 14 11 20 24 25 27 29 31 29 35 38 44 47 44 44 46 50 59 65 65 61 59 59 64 66 62 62 54 48 41 44 56 69 82 77 68 60 53
9 10 11 14 16 11 12 18 20 27 27 31 35 36 43 46 46 46 47 48 49 50 57 64 63 58 52 53 54 56 56 57 54 50 50 47 43 42 53 71 79 70 61 55
9 7 7 6 9 11 13 21 31 32 31 34 40 42 43 47 49 46 50 51 50 55 64 61 51 48 47 46 37 36 42 42 44 46 50 49 48 46 48 58 77 70 62 55
13 11 11 14 15 15 14 26 25 27 26 29 31 36 40 44 52 48 48 50 55 61 53 46 46 39 42 40 33 28 30 36 43 48 50 49 47 46 46 51 69 68 61 54
13 13 12 11 12 13 18 20 23 28 29 29 34 38 41 44 47 46 51 54 48 40 40 40 36 39 37 32 31 29 32 37 42 49 52 45 45 44 44 48 65 66 58 51
8 9 9 12 15 17 22 24 30 32 34 39 43 45 46 46 45 45 41 39 37 37 36 34 38 37 35 32 29 29 30 36 36 34 29 47 41 43 43 50 61 60 55 51
5 6 11 14 13 15 20 30 38 38 38 41 35 32 34 35 35 34 34 36 36 35 36 36 38 31 28 31 28 26 29 26 15 27 30 35 37 37 45 51 57 55 50 46
10 13 16 19 23 29 34 36 42 35 35 32 33 35 33 32 28 28 31 33 33 35 34 34 28 21 24 26 23 17 15 14 18 22 32 34 35 44 49 51 52 47 43 43
12 16 19 23 27 30 35 43 31 26 26 25 26 31 31 27 24 26 31 36 29 26 28 28 24 19 19 11 11 15 14 22 29 33 37 42 46 49 50 48 44 41 41 35
13 16 16 26 33 39 41 30 25 26 27 28 24 20 24 20 26 28 23 27 24 23 24 25 27 24 24 19 14 15 27 33 40 41 45 49 46 46 44 42 43 41 36 32

GFSCGP_500_spd_069.txt.gz
Wind_Speed
27 30 29 31 33 33 32 32 31 33 31 24 31 29 35 42 40 42 44 47 46 46 46 42 43 45 49 49 53 56 57 69 65 63 69 74 74 71 73 71 68 58 60 61
29 31 30 32 29 28 30 32 33 37 40 33 27 35 44 45 47 45 38 47 45 44 42 41 42 42 47 47 43 51 60 62 70 68 72 72 77 76 76 66 71 65 70 62
32 31 30 30 22 29 32 29 39 43 40 42 38 32 30 44 44 36 37 40 40 43 39 36 40 41 44 47 42 49 51 55 72 73 72 75 75 78 76 82 79 79 60 67
34 30 29 24 26 34 39 35 38 36 24 36 47 43 48 50 53 48 44 41 44 45 45 42 40 43 43 43 41 45 49 46 57 75 78 74 71 80 79 74 67 75 60 65
30 30 27 25 25 30 33 27 34 35 37 39 43 54 53 56 50 43 38 37 45 50 49 45 43 44 43 42 43 39 46 43 56 58 69 83 79 72 80 82 80 82 80 74
30 26 18 27 28 28 34 38 31 29 39 38 24 44 46 38 34 31 35 32 34 38 41 46 49 48 46 40 39 39 40 46 53 46 55 71 86 84 72 68 77 75 85 79
37 34 33 29 31 34 38 31 39 31 35 36 26 34 32 20 20 23 31 33 36 36 35 39 44 45 46 48 46 43 41 41 45 51 47 44 64 92 75 81 63 56 54 75
45 42 31 28 40 40 40 42 40 39 33 24 27 29 18 18 26 20 29 36 41 43 38 25 30 40 44 47 48 47 46 45 44 47 48 47 42 42 58 78 79 67 63 58
48 43 33 35 41 40 32 27 25 40 24 28 23 21 28 34 20 20 29 38 42 41 35 40 34 32 37 40 42 41 42 46 47 47 49 47 46 44 44 43 41 71 81 75
41 46 39 37 40 40 34 28 27 29 31 28 26 27 34 27 25 29 26 31 36 41 41 42 38 37 35 33 38 39 38 40 42 43 45 48 49 50 50 47 41 37 39 41
50 47 37 38 39 36 28 27 29 31 33 36 36 27 29 38 35 28 35 34 36 44 47 43 43 43 42 40 38 38 37 37 38 39 39 41 43 44 46 47 46 46 45 44
28 39 37 20 20 22 21 29 29 33 29 28 32 25 28 32 25 24 22 37 42 41 38 39 40 43 45 45 43 42 42 42 42 42 43 43 43 44 44 44 43 45 45 46
27 25 29 26 26 23 28 32 29 21 23 31 31 28 23 30 41 39 37 34 42 40 39 35 39 34 44 40 43 47 46 45 44 45 45 47 48 50 50 49 47 47 46 45
16 15 17 18 17 20 26 22 23 31 31 28 24 31 30 30 31 33 31 35 33 34 28 30 29 23 31 45 47 44 45 46 47 47 45 45 49 52 53 51 52 52 49 48
11 10 14 14 13 13 13 19 19 22 24 26 22 27 24 26 28 35 41 41 40 36 36 43 42 39 35 41 42 40 46 49 50 50 50 49 50 51 54 55 56 54 55 53
12 12 13 10 13 14 15 14 14 17 22 29 29 34 35 34 36 37 47 41 38 32 45 45 43 44 48 50 50 49 50 54 56 58 55 53 57 58 59 61 60 58 55 58
12 13 12 8 15 15 13 19 18 20 19 25 34 33 34 30 33 32 32 43 53 51 49 49 53 52 50 53 60 51 52 55 57 57 60 62 61 63 64 66 64 61 60 61
13 13 13 7 8 6 9 13 16 17 23 21 31 30 21 28 32 39 38 39 40 51 55 62 52 58 58 57 59 64 62 59 60 61 61 61 64 67 64 65 64 65 62 62
13 14 11 11 13 9 14 10 18 17 18 22 27 30 31 34 40 42 48 52 56 60 62 65 67 67 68 71 71 75 75 69 66 64 63 62 63 61 59 61 62 61 61 64
10 11 7 10 8 7 10 11 17 20 21 24 31 35 40 45 47 45 49 53 57 60 63 63 62 62 61 59 61 64 62 63 65 59 56 51 49 51 57 56 58 62 63 62
9 7 9 10 11 12 13 17 20 26 30 30 37 43 44 47 48 44 49 49 55 54 57 63 66 64 63 62 62 59 56 53 50 49 46 44 45 48 48 47 49 53 61 57
12 10 10 11 14 16 17 22 30 33 33 39 38 34 37 39 41 44 43 46 47 48 48 51 56 54 51 50 50 43 40 41 44 47 43 42 43 45 39 36 39 46 51 53
10 9 11 13 17 20 26 31 36 39 41 37 34 34 37 34 36 37 39 40 43 43 36 39 45 45 44 40 39 35 34 38 41 40 39 41 41 34 34 28 33 45 49 45
10 11 15 18 25 25 29 33 38 41 36 30 31 30 29 34 38 44 46 45 47 45 50 51 50 46 38 41 38 32 32 34 37 41 41 42 28 31 31 30 40 49 46 44
11 13 14 19 29 26 28 36 39 32 29 28 24 27 37 43 50 53 49 29 24 21 20 21 27 34 34 32 31 30 30 35 40 32 24 23 32 35 37 39 41 48 45 40
14 15 18 24 26 29 33 33 22 27 21 25 27 34 39 44 45 32 28 29 30 23 22 16 17 12 20 29 19 18 21 23 15 15 17 19 20 29 37 42 44 41 34 36

GFSCGP_500_spd_072.txt.gz
Wind_Speed
24 25 25 29 32 35 37 39 41 40 40 42 45 49 52 52 42 47 46 53 61 66 68 61 54 53 45 47 44 41 52 54 51 63 67 63 66 69 70 69 68 68 70 66
28 27 29 32 34 37 39 41 42 42 42 43 46 50 51 47 49 51 51 48 49 52 56 57 54 52 48 47 47 44 40 59 58 47 65 72 64 68 74 77 71 66 69 65
31 30 32 34 33 35 38 38 39 42 43 42 47 51 49 37 43 46 51 54 51 45 47 52 50 49 46 48 47 40 43 48 63 58 59 55 75 74 72 72 64 62 66 70
30 34 36 38 37 32 38 33 37 38 38 42 40 49 46 46 46 47 48 47 44 41 44 45 49 47 47 46 46 44 43 44 54 63 56 61 59 74 77 74 72 74 64 64
25 29 31 33 31 32 36 36 37 37 36 36 37 44 36 51 52 53 54 55 52 43 46 48 48 48 49 48 46 43 43 40 46 55 58 58 59 60 65 79 80 72 67 77
36 27 32 31 31 36 35 37 40 41 41 37 29 38 34 28 46 60 59 59 47 50 42 44 41 43 45 46 47 45 40 39 40 49 52 57 54 64 59 64 79 77 73 76
44 46 34 38 41 42 40 39 43 44 46 41 29 34 26 31 34 45 64 60 54 52 42 44 41 40 40 43 47 47 41 42 42 43 48 51 54 54 60 66 66 69 82 80
49 51 46 44 48 41 39 24 33 39 45 45 40 34 23 28 31 32 45 44 44 43 39 42 36 36 36 40 42 45 47 46 44 44 43 47 53 56 53 46 54 71 74 75
53 55 49 52 44 39 37 33 30 35 36 37 37 35 23 26 29 31 32 32 44 42 35 34 38 36 31 37 33 38 44 43 43 44 46 46 47 47 50 51 48 44 45 52
52 54 52 53 48 51 41 25 30 32 35 31 32 25 30 24 28 31 35 39 39 40 45 48 50 49 46 45 40 37 40 41 37 40 44 48 49 48 47 47 47 48 43 39
37 40 39 35 32 38 35 29 30 28 27 29 26 29 27 29 31 29 33 40 45 46 49 53 52 51 48 42 42 43 41 39 37 35 39 43 45 46 47 47 46 47 48 41
31 30 28 24 21 21 23 30 36 33 29 28 31 31 33 27 31 26 27 24 38 39 40 41 44 45 41 39 37 38 40 39 37 36 36 38 39 40 40 41 42 42 44 42
24 23 21 13 13 19 25 21 27 28 29 28 27 26 27 28 26 27 27 35 31 32 49 48 48 48 50 48 45 43 42 44 42 38 36 36 38 40 41 41 42 42 40 39
18 17 17 17 12 13 12 16 22 20 19 24 28 28 24 22 29 32 31 35 29 30 30 37 56 52 50 49 43 45 44 49 40 39 38 38 41 44 46 47 46 45 44 43
17 17 17 17 16 13 11 10 15 20 20 22 21 30 31 26 27 31 36 32 33 40 40 37 39 37 40 44 39 42 42 40 46 44 45 42 43 45 46 47 49 49 48 47
14 13 16 13 17 16 10 13 13 19 22 22 20 23 28 27 27 30 37 42 41 42 45 47 41 48 42 48 56 53 48 49 47 39 43 47 49 48 47 48 50 49 50 51
17 17 16 14 14 14 13 15 16 16 20 22 24 26 27 29 33 32 37 39 47 50 48 47 50 52 51 50 50 55 54 57 59 57 50 48 50 54 55 56 56 55 54 54
15 14 17 12 11 13 13 9 12 20 14 14 20 27 28 32 31 36 37 41 43 45 46 51 54 51 61 65 64 62 61 59 58 61 61 60 57 56 55 55 56 57 60 59
14 14 14 10 10 13 15 14 15 18 15 19 23 27 31 35 40 38 42 47 52 54 57 59 60 61 64 62 66 65 66 65 64 60 62 63 64 61 59 60 58 58 62 63
12 11 11 11 7 9 11 15 20 24 23 28 33 37 40 42 44 41 51 53 55 58 60 64 66 70 71 71 74 74 69 69 71 71 71 70 72 77 77 75 66 63 58 58
10 11 13 14 13 11 13 15 22 28 32 32 37 40 41 40 44 38 45 49 54 56 59 62 65 68 67 68 71 72 72 70 66 64 61 61 62 64 62 59 58 58 58 57
12 8 10 13 16 15 21 27 31 34 37 39 38 37 33 38 38 38 37 37 40 46 48 50 58 63 66 66 68 68 67 61 57 55 53 56 55 55 55 56 54 55 55 52
14 15 14 16 18 20 28 31 33 37 40 35 28 30 36 34 36 41 47 52 55 57 59 61 62 60 59 55 61 60 48 51 51 52 47 47 46 49 48 49 49 46 47 49
15 15 17 17 17 23 29 33 38 41 32 33 31 30 33 40 45 52 39 36 27 24 27 30 31 28 28 43 53 48 41 40 41 41 43 44 44 45 42 42 43 42 42 39
16 16 16 20 21 28 30 36 36 28 33 29 30 33 38 44 37 33 28 33 23 28 33 29 28 26 28 29 31 41 44 39 36 37 39 40 38 40 42 44 39 33 27 26
16 16 16 16 18 22 30 29 22 25 23 29 33 35 39 32 33 34 22 39 33 23 23 26 22 18 12 12 16 21 30 30 33 36 37 34 28 31 37 36 33 27 25 26

GFSCGP_500_spd_075.txt.gz
Wind_Speed
21 22 21 28 31 32 34 37 40 42 45 48 49 52 52 54 54 53 48 52 59 64 70 69 67 66 65 62 56 54 46 51 53 48 55 54 60 65 65 52 67 67 63 57
23 23 26 30 32 36 39 42 44 45 44 49 49 52 51 52 55 54 52 49 54 57 65 72 71 67 69 63 61 52 46 51 53 51 47 60 59 67 65 60 62 54 58 64
25 29 30 33 36 40 42 44 46 50 44 48 51 52 49 50 50 52 54 53 50 52 58 60 60 70 71 68 60 53 49 51 50 48 50 52 64 57 67 68 60 56 65 52
24 30 33 35 37 40 44 40 43 39 43 44 45 52 48 47 53 50 52 53 51 57 56 58 61 64 65 64 59 54 51 51 50 51 50 50 59 66 55 58 75 65 66 74
26 30 34 35 36 37 42 40 39 37 43 48 40 49 41 40 48 50 51 53 53 55 58 63 63 57 54 52 54 56 53 51 48 52 52 52 55 61 69 67 60 63 80 74
31 34 36 37 33 36 40 42 39 42 46 51 32 44 42 32 36 44 56 57 58 58 58 51 45 45 50 49 49 48 51 49 46 46 47 49 51 54 59 66 70 68 64 60
34 37 41 45 48 44 44 45 50 53 48 52 38 42 38 35 29 32 42 55 63 58 59 56 44 45 49 50 48 48 51 52 51 46 44 46 49 51 55 59 62 60 61 62
38 41 44 47 50 51 49 48 51 55 52 42 38 38 33 37 37 31 33 42 51 61 68 62 54 52 54 50 44 42 43 50 52 50 49 50 50 50 54 55 56 58 52 51
41 45 46 51 54 55 54 51 51 47 34 40 40 35 31 32 34 36 36 35 40 46 51 59 63 53 54 51 47 37 36 36 41 46 52 53 50 48 49 51 54 54 57 52
42 46 45 47 47 47 46 40 37 41 45 43 32 31 30 27 29 34 31 30 34 31 35 43 48 51 52 53 46 40 38 43 45 43 45 53 53 50 49 49 51 53 52 49
38 40 37 36 36 34 28 25 26 23 30 24 27 26 27 25 25 28 33 32 29 34 37 44 50 56 56 53 47 48 49 48 40 42 40 43 52 54 52 51 50 49 50 47
35 36 29 26 24 24 21 17 21 28 34 30 32 28 29 27 26 29 33 34 24 30 46 51 56 56 55 52 52 50 44 43 43 45 47 40 42 46 48 50 51 51 51 51
32 30 25 18 20 19 19 19 25 29 25 26 29 25 30 29 30 32 32 31 19 23 40 49 58 58 56 55 54 51 51 50 44 38 43 44 43 44 44 45 45 46 47 45
29 25 24 22 21 21 17 19 20 22 24 20 19 19 24 30 33 20 27 34 27 28 26 28 37 46 54 55 53 51 51 49 44 39 39 37 43 45 45 44 44 43 43 42
25 21 21 21 23 22 17 16 17 16 17 22 17 22 19 23 29 26 26 29 30 29 31 32 39 34 38 46 45 40 47 53 53 48 44 41 42 49 50 49 47 45 45 45
20 18 21 21 22 20 18 18 17 16 18 20 23 23 23 24 27 30 30 32 35 39 40 39 40 42 46 48 45 44 48 50 54 55 50 45 45 46 48 50 50 48 47 46
21 19 19 17 23 20 15 16 14 15 18 19 25 26 28 29 29 30 34 40 42 47 48 45 46 51 51 55 58 55 55 57 54 54 52 50 47 50 53 49 50 49 49 49
20 19 18 18 18 17 19 18 15 18 20 19 19 20 24 26 27 33 40 42 46 49 51 48 52 54 55 59 62 65 64 61 62 63 62 63 61 58 55 45 43 48 51 50
17 18 17 16 13 16 13 15 17 17 15 23 26 31 33 37 40 36 43 49 51 54 56 59 61 60 60 60 61 63 65 64 66 66 64 62 65 63 62 61 56 51 51 54
20 16 15 15 14 15 17 18 21 25 29 31 35 37 39 41 46 37 49 50 52 56 60 64 67 71 73 72 72 73 70 70 68 65 66 71 70 70 67 66 59 60 58 57
18 14 16 16 16 13 15 19 25 30 33 36 40 41 41 43 44 43 43 47 53 57 59 63 68 71 71 70 72 76 76 77 74 74 74 70 68 69 69 71 70 65 65 63
18 16 11 11 16 15 19 23 31 34 36 40 30 31 34 37 36 39 42 45 49 51 54 58 62 63 66 69 70 69 71 73 73 73 70 71 74 73 72 69 68 67 70 70
17 19 22 18 15 18 21 29 33 38 34 28 28 31 39 39 42 46 37 20 29 28 34 34 35 35 42 42 44 49 66 66 62 64 68 66 63 63 64 66 65 62 59 58
18 20 19 17 16 20 26 29 35 35 30 33 40 39 40 43 31 22 23 25 33 34 34 34 36 37 34 37 44 43 38 43 58 55 49 52 50 50 52 53 58 59 57 54
18 17 14 14 15 19 24 30 34 30 33 37 36 37 39 23 26 30 29 30 36 32 29 26 29 30 26 27 25 30 32 33 39 48 39 40 44 44 47 50 48 47 47 48
13 11 12 15 16 17 22 28 28 27 29 29 33 30 28 30 28 28 34 39 45 48 51 47 38 28 24 22 17 13 22 23 36 38 37 31 35 38 41 41 40 41 42 43

GFSCGP_500_spd_078.txt.gz
Wind_Speed
21 21 23 27 27 27 29 31 34 36 38 41 41 39 43 49 52 52 49 49 54 57 60 65 69 74 73 70 67 60 59 52 43 44 39 43 46 44 52 57 60 54 61 64
21 24 27 28 29 31 33 35 36 38 40 44 46 44 44 50 53 55 57 54 51 54 54 62 66 72 76 72 69 66 57 52 47 48 43 47 53 47 48 54 61 63 70 68
25 26 27 29 31 36 35 38 40 43 44 46 50 51 53 53 55 54 55 56 54 51 52 57 62 64 68 73 75 73 67 63 63 60 56 54 59 64 57 55 60 65 63 62
27 32 31 32 32 38 36 37 41 44 48 50 45 59 53 45 46 50 52 53 53 54 51 53 59 60 62 61 64 68 70 69 68 64 60 58 61 61 57 57 57 64 53 52
26 31 33 34 33 36 37 39 41 44 47 53 52 50 61 41 39 41 41 46 52 56 57 55 58 57 56 58 60 62 64 66 66 63 59 59 59 57 58 57 56 57 57 53
31 34 36 37 37 39 40 42 44 48 49 58 50 46 64 41 35 35 35 37 42 51 60 58 54 56 57 59 58 58 55 53 47 51 54 55 56 56 55 56 57 57 56 62
34 31 34 35 38 42 44 49 53 58 56 58 50 51 51 33 39 34 38 35 37 42 55 62 58 55 52 52 56 60 52 49 45 42 48 53 54 55 56 58 58 59 58 57
33 34 34 37 40 44 47 50 53 59 59 57 50 51 31 25 30 36 39 32 34 30 44 62 63 60 59 57 54 46 45 44 43 47 49 54 53 55 55 56 59 59 60 59
37 36 35 38 42 45 49 49 49 48 45 40 37 37 28 32 39 38 38 35 34 33 35 46 61 65 62 61 59 53 49 48 44 45 43 51 57 55 55 56 57 57 57 55
37 38 35 39 42 44 45 46 42 37 33 33 36 30 29 24 26 30 28 34 34 35 35 36 44 52 57 61 65 59 56 47 45 50 47 50 52 58 59 57 55 54 53 52
36 35 36 39 42 40 39 37 33 31 30 29 32 21 16 20 20 22 23 26 33 36 29 29 28 34 40 45 52 65 59 54 58 58 54 51 47 45 54 59 56 53 53 51
32 34 34 33 35 35 34 30 27 27 27 29 34 35 34 29 30 24 26 25 29 31 33 35 29 29 34 36 45 59 65 64 61 58 55 51 41 40 42 47 53 56 55 53
29 31 31 30 31 31 27 27 27 25 24 25 34 28 25 24 23 26 25 26 28 30 31 29 28 34 36 42 48 55 62 63 61 62 60 48 37 35 37 37 46 54 60 58
28 29 30 29 29 28 24 25 26 26 22 22 21 21 19 21 22 24 26 26 21 28 30 29 25 27 45 51 54 61 63 64 61 59 54 49 44 37 41 42 43 48 52 56
26 25 26 25 28 26 26 24 21 25 23 22 18 21 20 22 23 24 24 26 28 28 29 31 34 33 39 46 52 59 62 59 58 56 55 51 45 43 42 48 46 48 49 50
24 22 23 18 28 23 24 20 17 21 20 22 19 20 25 26 26 29 29 29 31 33 35 37 37 40 41 43 46 46 47 52 55 56 58 58 54 51 48 50 50 47 47 48
23 24 23 16 22 22 19 17 19 19 16 21 21 27 24 22 23 26 29 33 37 40 44 47 48 48 47 48 51 53 54 55 54 52 51 55 62 58 52 50 51 50 51 49
21 25 22 17 19 18 18 17 15 15 17 20 22 28 31 33 34 34 38 42 44 46 47 50 52 53 55 57 58 58 58 61 61 62 58 59 55 54 51 54 54 51 54 54
21 23 20 18 16 16 19 19 18 16 14 22 30 35 37 41 43 37 46 50 52 54 56 59 60 62 62 63 63 64 64 61 64 67 66 63 62 59 60 55 56 54 53 55
21 21 20 16 16 16 18 18 19 23 24 33 35 39 42 40 41 34 39 43 46 51 55 58 60 62 64 66 69 72 71 70 68 65 71 73 72 70 67 63 61 59 56 50
20 19 17 16 18 15 18 20 23 27 35 37 42 38 38 41 42 44 42 40 43 46 48 52 49 51 59 67 76 73 74 75 71 72 71 68 71 73 73 71 65 65 61 60
19 19 18 18 15 14 19 22 26 32 35 42 38 38 40 44 43 41 32 25 23 27 28 32 39 41 42 47 50 47 53 71 75 79 76 74 75 72 68 67 70 73 68 62
18 18 18 19 20 25 22 25 28 33 38 35 36 39 40 42 33 30 16 12 19 25 22 29 43 43 46 41 48 44 46 47 47 67 73 70 76 72 75 74 70 66 68 71
18 17 16 17 18 18 22 24 29 35 36 36 40 42 43 35 29 14 19 28 34 33 36 35 41 37 39 39 38 33 38 45 48 47 43 63 70 65 67 66 65 69 71 65
19 15 14 14 14 15 20 23 28 32 37 39 38 42 34 33 28 24 30 32 36 32 41 43 53 44 40 36 25 24 22 31 38 40 40 36 49 62 56 59 55 57 59 61
16 10 9 11 12 12 17 22 27 31 32 31 35 28 31 32 26 27 31 39 30 36 45 50 57 52 41 36 21 19 12 11 19 26 32 31 33 42 41 39 44 49 49 51

GFSCGP_500_spd_081.txt.gz
Wind_Speed
16 17 20 22 22 23 25 26 29 31 32 35 33 35 37 37 38 39 40 44 48 50 51 56 59 61 65 68 69 69 68 64 63 58 49 41 45 49 45 43 48 56 62 59
19 21 21 23 24 26 28 29 32 33 34 40 38 40 41 42 43 46 48 48 47 49 51 54 58 60 62 64 68 70 70 68 65 61 56 51 46 48 45 43 45 48 56 59
22 23 25 26 27 30 30 33 35 38 38 42 45 47 41 45 47 48 51 56 58 58 56 56 57 59 61 61 64 66 69 69 67 65 61 53 52 58 50 45 46 49 45 52
25 27 28 28 30 35 31 37 39 39 42 44 44 59 44 44 45 49 52 54 56 58 59 59 59 58 59 61 61 62 65 68 66 68 66 61 58 57 55 52 53 56 60 56
25 29 29 29 31 36 38 39 40 42 45 50 48 55 53 55 56 49 49 49 54 58 60 61 60 58 56 60 62 61 60 61 63 60 63 65 67 64 64 66 60 61 64 63
24 29 31 33 35 37 39 40 42 45 46 52 47 53 57 54 54 55 49 42 47 50 53 56 59 58 56 55 58 59 58 58 61 62 61 62 61 63 68 70 67 66 66 63
29 30 33 34 36 37 37 38 42 46 47 50 52 57 57 55 52 47 40 34 38 36 38 42 49 53 56 56 58 58 56 53 52 57 60 55 51 52 55 58 61 64 65 61
33 30 29 33 35 37 36 36 40 46 47 52 50 55 44 41 40 31 28 28 33 35 33 39 44 46 51 57 58 57 60 59 58 56 55 54 50 47 53 56 58 58 62 62
34 32 30 32 34 35 37 38 41 45 45 50 50 44 37 33 30 29 29 32 36 40 38 37 41 40 45 53 58 57 56 56 54 53 53 50 46 47 49 52 53 56 58 58
34 34 31 35 35 34 35 37 39 39 43 45 41 38 32 27 21 17 21 27 27 33 35 33 43 39 40 43 54 60 56 56 52 50 49 50 49 46 48 53 57 57 58 60
33 34 32 33 33 33 33 35 37 37 35 35 35 34 29 31 26 20 22 23 28 27 29 28 33 31 33 33 39 45 58 61 58 60 58 55 50 50 48 48 52 58 61 60
31 32 28 31 32 32 32 33 34 35 33 30 31 28 26 27 31 32 34 31 29 26 24 29 27 30 30 26 33 41 48 59 67 66 68 60 58 55 53 49 52 51 57 63
27 28 26 27 29 30 29 29 31 31 30 23 28 23 25 24 26 26 29 27 29 27 30 27 30 29 29 31 32 34 37 49 61 66 64 64 59 57 55 53 54 51 49 54
27 25 25 24 29 30 24 26 28 31 25 25 20 22 19 23 23 23 23 27 27 27 26 27 30 34 31 31 33 38 42 45 52 54 65 65 63 58 55 53 51 46 45 41
24 23 22 24 26 28 21 22 26 26 20 25 18 23 20 19 21 25 28 26 29 29 32 36 34 37 39 39 37 40 45 50 54 55 57 55 63 63 60 53 54 48 42 41
22 20 21 20 26 25 18 20 21 21 23 23 19 20 24 26 28 26 25 27 32 34 35 36 38 41 43 43 44 43 47 63 61 62 62 65 62 63 60 55 54 51 44 41
21 19 21 18 22 21 16 17 16 17 17 19 21 24 27 29 36 36 35 38 37 37 40 43 43 44 46 48 51 51 50 55 66 57 57 56 59 64 61 57 54 49 50 47
16 20 20 17 19 17 17 15 15 16 19 21 24 29 35 39 41 40 43 45 42 43 44 47 49 52 54 54 57 58 59 60 62 64 61 63 58 59 62 62 59 57 52 52
16 19 19 16 16 14 16 16 17 17 17 27 31 38 41 45 42 32 43 45 47 47 46 46 48 52 57 62 64 67 67 68 72 72 67 64 64 62 59 60 61 57 59 56
17 18 17 16 16 11 16 18 19 21 20 27 35 40 40 38 42 35 41 43 43 42 41 38 39 40 43 51 60 66 70 73 73 74 74 73 71 67 65 62 58 54 56 61
17 18 16 18 17 12 18 17 19 22 26 33 39 40 40 44 46 40 36 31 30 28 31 33 37 42 44 41 48 50 55 60 69 78 76 77 75 73 72 69 69 64 58 57
16 18 18 19 18 15 15 16 20 23 28 36 36 39 39 43 37 34 23 23 28 33 33 37 39 37 48 48 51 49 45 42 48 50 62 80 80 76 74 73 70 70 67 63
17 19 20 20 18 16 15 19 19 24 28 31 33 34 39 36 34 30 28 30 35 27 36 36 46 38 33 38 40 41 44 44 50 54 48 52 60 80 77 76 71 66 70 68
19 20 20 20 17 14 15 13 17 24 26 28 35 40 35 39 30 29 31 26 26 35 35 44 52 46 37 38 35 34 31 34 36 46 49 51 44 62 77 72 76 70 65 65
21 19 19 17 15 10 12 11 16 23 28 30 36 35 35 38 30 35 34 27 28 36 43 48 54 51 45 41 30 27 22 16 26 29 32 42 41 38 60 66 71 71 70 62
19 15 16 13 9 10 10 13 17 22 25 27 27 24 32 35 32 30 30 24 28 36 44 48 53 53 49 40 30 30 13 5 13 20 26 30 34 35 30 44 62 66 67 66

GFSCGP_500_spd_084.txt.gz
Wind_Speed
19 20 22 25 24 24 24 24 26 26 27 30 30 33 33 31 32 34 36 38 41 43 47 50 52 56 57 58 59 59 60 61 63 62 59 55 50 45 40 43 49 50 53 53
17 20 21 22 22 23 24 25 28 28 30 35 33 37 36 35 35 37 39 41 42 44 46 48 52 57 58 58 60 60 62 64 65 65 63 61 57 51 49 49 50 53 54 52
20 23 23 24 25 26 27 29 31 32 34 38 40 43 40 41 43 40 44 47 49 50 51 51 54 55 56 60 62 62 63 63 66 69 69 66 64 60 57 54 52 53 47 48
25 26 26 26 27 29 29 34 34 36 37 38 42 48 41 41 42 44 47 52 54 55 56 57 57 57 61 62 63 65 65 65 65 65 68 66 64 59 52 52 50 56 58 51
27 26 26 26 29 29 29 32 35 37 39 41 38 45 46 45 42 48 49 49 52 55 59 60 62 63 61 63 64 65 68 68 66 66 65 64 64 62 58 56 58 57 56 59
25 27 27 27 28 30 33 33 36 38 40 43 41 45 45 42 50 52 53 54 55 57 54 57 58 60 62 63 66 68 69 69 67 64 62 63 63 60 62 61 60 58 62 60
28 28 28 27 32 33 32 34 35 37 31 33 38 45 41 48 54 54 58 57 58 54 49 48 54 59 62 63 62 63 66 66 64 60 57 59 62 63 59 62 59 59 62 68
28 26 32 30 31 32 35 30 34 38 37 40 39 43 40 48 54 56 54 50 46 43 43 41 44 45 47 46 46 47 50 58 56 52 52 57 63 65 65 67 63 61 61 63
33 32 32 33 31 30 37 31 32 36 37 41 40 42 46 50 48 48 44 43 37 37 36 35 42 42 40 42 44 46 47 50 55 54 54 56 57 62 61 61 56 56 55 54
33 33 34 31 29 29 29 33 31 33 37 39 38 41 32 31 41 41 39 36 32 30 38 36 36 45 46 45 45 42 46 53 56 57 57 58 58 56 58 58 56 56 57 55
36 33 33 27 30 29 27 28 30 33 35 37 40 33 34 32 33 33 33 37 36 28 24 29 31 32 38 42 46 47 45 42 58 58 60 62 62 62 62 60 58 54 55 57
29 29 26 28 29 26 25 25 30 33 32 35 34 29 27 27 28 27 25 28 29 31 35 33 32 34 29 33 40 42 42 40 46 61 60 62 65 64 60 57 55 53 48 52
26 27 24 26 27 25 22 25 28 30 30 26 30 21 26 26 29 26 25 25 27 30 34 36 37 35 34 32 36 39 35 37 44 54 64 65 66 65 62 56 59 53 52 49
27 26 24 24 26 25 20 23 26 29 27 27 22 23 25 26 30 26 24 28 30 34 35 37 39 38 38 39 37 40 41 39 43 47 57 67 73 71 67 67 66 59 54 52
26 24 25 25 23 22 20 21 25 25 22 25 20 25 23 26 29 30 33 33 33 34 36 39 39 41 44 42 40 40 44 43 42 50 50 58 66 68 69 73 63 60 58 57
24 24 25 21 19 22 18 20 21 21 20 22 22 21 25 25 28 32 37 40 41 41 40 41 43 46 47 47 47 47 46 47 48 46 48 65 63 63 68 71 71 63 59 60
24 23 24 17 19 22 18 17 20 18 19 22 21 23 27 30 35 38 41 42 41 39 39 39 44 49 53 55 55 56 54 54 52 52 50 55 56 52 56 54 58 61 59 59
25 25 21 14 20 19 18 19 19 16 20 22 23 26 30 38 42 41 47 50 48 47 47 49 51 51 50 55 61 63 64 63 62 59 59 57 71 68 69 64 63 60 60 58
22 21 14 18 17 16 21 20 18 17 17 22 26 30 35 39 41 37 49 49 45 42 41 38 39 40 42 46 53 62 70 73 72 69 67 63 62 75 78 74 74 70 72 67
20 15 14 15 16 18 21 19 18 18 21 19 25 30 34 36 39 39 39 38 31 31 32 34 37 38 41 46 53 56 52 68 79 81 76 71 68 65 74 68 64 61 58 54
14 13 13 14 18 19 17 20 21 20 18 22 25 28 32 36 40 39 32 30 33 33 32 30 31 34 42 40 42 50 44 42 56 78 84 85 79 74 72 71 71 66 61 60
11 13 12 15 19 20 17 19 19 17 21 20 24 29 30 31 37 35 32 33 33 27 26 39 38 42 45 38 34 37 40 45 43 41 47 65 80 84 79 78 75 71 65 64
10 12 11 14 13 17 18 17 16 18 16 20 21 25 25 31 34 34 33 39 23 29 31 39 44 48 45 32 38 39 43 41 43 46 45 50 46 67 83 84 78 77 73 67
15 15 16 19 19 20 18 13 12 15 15 18 21 23 26 30 36 37 37 29 28 29 31 36 46 43 40 32 37 38 39 36 35 37 46 41 51 46 48 68 81 78 76 75
15 16 17 18 18 16 14 10 11 13 15 18 22 26 28 29 33 37 29 26 28 27 33 37 46 48 38 34 33 31 23 18 17 20 24 37 43 48 43 41 51 75 76 76
16 15 16 16 15 13 13 10 10 13 14 19 19 21 25 30 32 31 23 26 31 29 38 35 45 49 42 39 33 31 24 22 10 11 12 20 31 40 46 45 43 50 67 77

GFSCGP_500_spd_087.txt.gz
Wind_Speed
20 21 21 21 23 26 26 23 24 27 32 32 32 33 33 33 32 31 34 36 37 39 42 44 46 48 50 52 53 54 55 55 55 57 56 55 52 52 49 47 47 48 48 48
21 21 23 28 25 24 24 25 24 27 29 31 30 30 32 33 30 32 34 34 37 39 42 45 46 47 48 50 52 54 56 57 58 58 58 57 57 57 54 52 49 50 48 44
20 21 25 22 23 22 23 25 26 29 31 32 31 35 37 35 36 38 38 40 43 46 46 47 49 51 53 54 54 55 58 58 60 59 60 60 62 63 62 58 54 51 49 46
22 25 22 23 24 25 26 28 32 30 33 34 33 39 36 37 41 42 42 47 50 49 51 52 55 58 61 61 60 60 58 61 61 62 63 64 63 63 62 62 59 58 55 57
17 26 27 24 25 30 27 34 32 32 34 36 34 39 32 30 35 36 47 45 45 47 52 55 55 57 59 59 62 62 62 62 66 67 66 66 66 63 63 64 62 60 56 57
26 29 25 26 32 31 31 33 33 33 33 36 29 27 20 17 31 44 39 42 45 47 52 54 57 59 61 62 64 65 65 65 66 70 71 71 70 66 64 64 64 61 58 56
23 26 28 32 32 32 32 31 30 24 20 21 17 27 26 36 48 45 44 47 50 52 54 56 61 62 68 67 65 64 65 64 69 73 71 73 71 69 65 64 63 61 62 62
30 20 23 37 28 30 28 28 24 26 22 24 33 39 29 44 44 49 51 52 52 56 59 58 56 57 52 52 54 57 64 65 67 70 71 69 71 67 66 64 68 69 70 66
33 34 37 38 36 31 32 35 34 34 33 34 28 24 19 37 46 48 48 54 52 46 47 47 47 47 46 48 51 53 54 52 47 48 49 53 59 63 62 63 67 73 72 66
26 28 27 35 27 31 31 33 32 29 31 29 13 19 18 26 35 42 46 49 41 39 40 43 41 42 42 46 45 50 48 47 46 46 45 51 53 56 57 61 65 62 78 63
29 35 30 37 34 30 30 28 29 30 32 31 27 17 26 40 45 42 39 37 35 38 37 39 37 38 34 32 39 40 46 53 50 45 45 47 51 54 55 57 62 61 76 70
29 36 33 33 29 29 25 24 26 29 26 29 30 29 30 37 31 31 32 32 35 35 34 33 36 34 35 39 35 36 37 40 47 50 49 45 47 55 57 65 66 46 32 35
31 31 29 27 26 29 28 25 26 29 28 26 29 30 22 27 27 29 30 34 35 37 38 41 37 38 39 41 44 40 40 38 43 46 51 47 44 55 62 67 70 56 49 51
28 27 26 25 18 24 25 22 26 27 28 25 27 24 22 25 31 30 32 33 35 38 41 44 46 44 41 43 44 46 46 44 42 46 47 48 49 55 63 68 71 68 63 59
30 27 26 27 27 30 33 27 25 26 23 27 22 24 22 26 28 29 31 35 38 42 46 48 49 48 48 49 46 47 52 50 47 46 51 49 49 53 64 69 71 73 74 70
28 27 27 27 27 29 29 25 23 24 24 26 22 18 22 27 28 31 34 41 43 45 46 49 52 53 54 51 52 52 48 53 55 53 52 55 55 53 55 64 68 69 66 64
29 26 27 26 27 29 26 22 22 24 22 22 22 22 25 28 28 32 39 45 46 48 50 49 48 48 50 51 53 56 53 53 56 59 58 58 59 58 61 59 63 69 70 71
25 25 27 28 28 28 17 22 18 24 24 24 26 26 28 28 30 34 43 47 48 46 43 38 39 40 42 44 45 42 45 57 60 63 65 64 62 63 58 60 65 63 60 64
24 26 28 30 29 22 16 24 20 24 21 28 25 28 28 30 31 31 42 44 41 38 39 38 36 35 36 37 40 45 47 45 52 68 71 69 71 67 66 65 66 70 60 52
19 22 24 26 21 17 16 21 19 22 22 24 27 29 29 30 29 29 35 36 38 41 37 33 32 37 41 44 47 41 39 48 49 39 46 76 76 73 70 68 66 59 60 53
17 17 20 16 14 17 16 18 21 22 22 23 24 27 26 27 33 33 32 35 38 31 32 34 34 38 47 43 53 52 46 38 39 42 42 38 53 80 76 73 69 62 64 65
14 12 10 12 16 15 18 22 21 18 22 22 23 25 25 26 28 32 34 34 30 28 30 33 34 42 51 47 41 40 39 43 44 45 43 40 34 39 83 80 73 69 67 67
15 11 9 12 12 16 17 21 21 20 21 23 21 23 25 25 26 31 32 25 25 24 32 33 36 44 47 40 39 38 41 39 37 42 48 50 41 41 46 81 80 73 69 71
20 21 15 17 22 26 24 25 20 19 18 18 20 20 23 20 27 28 23 20 21 26 30 34 38 44 45 40 36 37 38 31 31 29 29 31 40 40 43 51 79 78 74 67
21 18 19 19 22 24 23 19 16 18 15 16 17 19 20 20 26 26 17 18 21 26 33 39 39 43 45 42 35 34 34 33 27 25 23 22 26 36 42 42 52 71 74 73
16 17 20 21 22 21 19 12 16 16 14 14 13 16 20 21 24 16 14 17 22 28 34 38 40 41 44 45 38 29 33 33 29 28 17 13 15 22 36 36 38 52 65 75

GFSCGP_500_spd_093.txt.gz
Wind_Speed
22 22 20 20 19 14 22 13 9 4 10 15 20 29 25 31 32 32 31 30 31 31 32 34 36 38 40 45 48 47 46 45 48 53 56 52 48 50 53 55 53 56 56 56
24 22 19 25 24 21 22 24 26 26 24 27 28 32 29 23 21 28 32 33 32 34 32 32 36 40 43 42 42 44 45 46 46 50 53 53 52 51 51 55 56 57 56 55
18 20 19 16 20 20 31 34 36 37 36 33 36 41 29 26 31 30 29 28 31 35 39 41 41 40 41 42 44 46 46 46 46 49 52 54 54 51 51 53 53 54 56 56
18 19 20 21 25 33 33 31 31 40 41 45 42 39 30 21 22 23 26 34 39 41 42 42 43 41 41 45 49 51 53 54 54 54 56 57 60 62 59 58 57 57 57 58
26 27 22 22 19 25 24 24 27 34 43 42 38 35 20 20 18 24 32 38 41 41 35 31 32 36 39 42 46 50 52 54 56 58 59 59 60 66 69 68 64 63 64 60
23 30 32 26 22 20 29 30 29 28 24 30 18 26 19 17 23 30 35 37 40 41 38 38 41 41 43 46 47 50 53 56 58 62 64 66 66 66 68 71 72 68 68 66
19 25 26 28 27 28 28 27 26 30 30 28 22 27 19 22 27 31 35 39 41 44 43 45 47 47 48 47 50 54 55 56 58 64 69 72 72 75 76 74 74 74 71 68
37 31 26 31 29 28 28 28 31 30 25 28 23 25 23 31 37 41 41 42 45 46 49 52 53 50 48 49 48 44 40 40 41 42 48 56 66 72 75 77 79 79 78 73
20 29 33 31 34 38 37 33 30 35 32 31 25 29 27 33 40 40 42 45 47 50 51 48 50 47 41 29 26 29 35 39 42 45 48 42 41 45 54 64 69 76 80 79
21 23 29 28 32 37 33 33 36 33 35 35 32 28 41 41 46 50 49 46 45 43 45 45 41 33 31 31 34 38 43 47 50 47 47 43 43 40 42 43 48 58 57 72
25 25 21 28 33 28 31 36 39 36 36 32 31 29 28 33 36 41 42 45 46 47 48 44 32 31 30 32 37 43 48 50 52 52 51 47 44 44 43 43 44 45 49 52
25 24 21 22 25 29 32 34 34 36 30 36 36 32 35 37 43 42 46 48 48 49 45 31 29 28 31 37 41 45 49 49 51 49 48 48 47 45 45 46 43 45 46 45
24 26 25 22 25 26 26 28 31 33 30 30 34 28 23 30 40 42 46 48 46 36 25 30 29 31 34 40 44 47 50 53 55 57 56 52 46 46 47 47 48 45 47 49
25 27 25 24 21 20 20 23 25 28 31 26 30 30 28 28 30 40 48 45 40 26 31 31 34 34 37 43 45 49 53 57 61 59 53 52 49 47 46 48 52 51 47 49
26 26 26 26 23 30 25 28 27 26 26 29 24 25 20 22 34 41 44 39 26 26 31 34 34 36 41 43 47 51 51 50 52 56 56 54 53 49 46 50 50 57 51 49
31 23 24 25 24 28 32 35 34 29 31 35 35 32 26 35 42 37 40 31 27 30 32 33 35 39 41 46 47 47 50 53 55 57 60 62 59 54 53 49 55 54 56 54
27 25 24 22 25 28 31 25 31 31 33 36 39 38 42 40 33 29 32 33 30 31 32 33 35 38 39 39 45 48 49 52 57 62 65 68 65 60 57 54 49 55 58 57
23 24 26 22 23 25 21 25 26 28 29 32 38 42 36 28 26 33 36 31 29 32 31 32 34 32 35 41 43 42 46 51 55 64 64 56 49 43 42 48 43 52 56 60
21 23 21 21 22 21 22 25 25 23 25 29 33 33 33 30 31 35 34 30 31 30 32 35 30 31 34 39 37 40 46 53 58 66 52 42 42 40 37 35 34 40 57 62
18 17 16 19 21 24 23 27 27 28 30 28 30 30 30 30 32 26 29 30 31 32 34 28 27 30 35 35 40 42 49 54 59 58 44 43 46 43 40 35 37 39 44 56
16 18 16 15 18 16 22 20 15 23 23 23 24 29 30 26 27 21 24 27 28 28 25 22 25 32 35 37 41 44 51 54 58 53 43 49 48 46 42 34 37 42 39 49
17 19 15 13 12 16 15 18 23 20 23 24 26 27 25 26 19 20 23 24 24 24 19 21 25 32 33 38 41 45 49 52 56 54 46 47 46 36 30 28 31 38 35 45
17 19 17 14 10 8 9 11 13 18 22 28 29 28 28 21 17 19 22 24 26 21 16 20 24 28 33 38 39 40 47 53 55 52 48 45 45 36 28 30 30 35 31 38
21 20 21 20 16 17 17 18 21 20 24 32 35 33 25 16 15 18 23 23 19 16 17 21 25 27 32 39 41 46 51 53 54 50 48 39 40 31 26 24 28 32 39 33
23 23 22 19 20 19 16 25 29 30 24 24 27 23 13 14 15 19 20 19 14 17 19 21 24 24 30 39 42 47 52 54 52 44 47 44 32 28 26 22 21 29 38 34
27 27 27 25 27 32 30 34 33 30 25 26 20 12 13 13 14 17 18 14 12 18 18 21 19 22 31 39 42 46 50 55 45 44 42 39 30 34 29 20 21 25 37 37

GFSCGP_500_spd_096.txt.gz
Wind_Speed
15 13 18 16 12 12 25 25 27 22 21 25 27 24 25 26 31 31 31 29 28 29 32 34 35 36 38 40 40 40 43 44 46 45 44 44 46 45 47 47 49 51 53 56
17 15 18 19 18 17 26 25 28 24 13 23 18 20 20 29 28 17 22 28 28 29 31 32 35 37 40 40 38 39 41 43 43 44 46 47 48 47 47 49 53 54 54 54
20 24 23 20 23 28 28 28 26 23 22 28 27 24 29 32 23 23 27 26 28 32 34 34 35 34 31 31 34 38 39 41 43 45 47 48 49 50 50 50 52 55 57 59
24 25 26 29 30 30 28 31 31 35 34 30 33 35 37 29 18 25 26 30 34 36 35 34 32 30 32 38 41 41 43 45 46 47 50 54 56 58 62 62 61 62 63 63
26 31 31 31 31 31 35 37 35 36 40 40 37 36 30 20 25 32 31 33 33 34 33 34 35 35 33 34 37 38 41 44 46 48 50 53 55 57 58 63 68 70 70 71
23 28 29 31 31 30 29 33 32 32 39 46 39 42 41 34 38 36 34 34 34 33 34 34 33 31 30 34 38 40 43 47 50 51 55 56 59 61 64 66 69 72 76 77
25 29 31 31 31 31 31 30 31 34 35 32 34 47 44 31 32 33 33 33 34 34 33 35 37 37 38 40 42 45 48 52 53 55 60 58 51 45 47 50 55 62 73 83
31 28 32 36 33 32 32 29 28 31 31 28 29 33 30 29 31 35 35 35 35 35 36 39 41 44 46 49 51 53 56 59 56 41 37 38 40 44 48 51 51 49 48 57
17 31 34 34 34 33 34 32 33 31 24 25 26 27 31 33 30 34 36 38 38 40 44 46 47 49 52 55 55 57 58 48 41 40 42 43 44 47 50 55 55 59 56 49
11 14 32 36 38 37 33 37 39 37 35 33 27 26 30 35 37 40 42 42 42 44 48 50 53 54 52 50 52 46 43 44 42 41 41 41 40 41 47 52 57 57 60 55
19 15 18 26 30 34 36 36 34 33 34 34 34 32 35 36 41 45 47 48 48 51 49 48 47 45 41 37 36 39 39 38 39 44 44 46 50 50 44 48 54 55 58 57
24 22 17 17 25 32 32 32 35 37 37 40 40 37 30 35 39 43 43 44 46 46 47 48 40 37 37 36 36 36 36 38 43 44 50 52 53 52 49 43 45 54 57 58
28 26 20 19 22 28 32 31 33 38 38 38 39 36 28 37 41 46 46 49 51 52 51 42 41 37 39 36 36 37 39 41 43 49 49 49 52 57 57 54 53 50 56 56
22 22 20 23 26 28 31 31 33 35 36 34 33 33 27 31 34 40 42 45 49 48 45 46 41 42 37 35 37 41 41 43 45 46 49 50 52 55 60 64 65 61 59 58
24 22 25 24 25 31 29 31 28 32 31 29 21 29 25 29 30 36 42 46 43 44 44 42 42 37 37 36 40 40 41 41 45 48 49 51 53 57 59 63 69 70 67 58
25 24 26 26 26 29 32 29 30 33 29 28 37 29 35 36 34 34 33 34 37 38 38 35 34 35 36 37 39 36 37 42 47 47 50 53 57 63 66 68 75 64 60 61
26 26 27 23 26 29 29 21 29 35 39 36 37 38 37 37 37 36 36 37 38 36 34 32 34 34 36 38 35 34 39 44 47 51 54 58 64 67 67 69 53 46 48 49
25 27 27 22 23 29 17 25 26 29 33 39 37 37 35 36 37 36 36 36 36 38 35 34 32 34 36 33 31 36 42 44 50 54 59 63 65 69 67 52 46 47 45 42
24 25 23 21 20 20 21 20 21 24 23 26 28 29 32 30 32 34 34 36 36 35 31 30 33 34 27 27 32 36 38 44 51 56 58 63 70 71 54 50 50 48 46 42
21 20 19 18 17 18 18 21 21 23 24 25 26 26 27 33 36 38 37 37 36 27 27 30 31 28 25 28 30 34 41 45 50 54 58 66 70 63 50 52 49 49 49 43
18 16 15 17 17 14 19 19 20 26 23 26 27 28 31 32 31 31 33 36 29 23 28 30 29 21 22 26 30 38 43 49 51 56 61 57 50 52 48 38 39 38 36 38
16 16 14 16 15 11 11 16 14 19 22 19 22 24 26 28 29 29 29 27 23 24 26 29 18 21 25 31 34 39 45 47 50 58 47 45 46 44 41 34 30 30 30 27
16 15 17 16 16 15 10 9 9 10 17 22 24 26 28 30 29 28 25 21 20 20 25 19 16 22 28 31 30 38 44 46 51 49 41 44 45 45 36 34 30 25 25 24
19 18 23 21 19 19 19 17 16 18 16 18 21 27 29 27 24 23 19 17 17 22 19 13 16 23 27 27 33 40 42 42 45 37 43 46 44 45 39 41 36 27 21 25
20 25 27 25 21 21 17 18 20 20 20 24 27 31 33 26 19 17 17 16 17 19 12 13 16 24 23 27 33 37 39 40 40 41 47 47 44 46 38 43 33 28 20 27
18 22 25 26 26 27 25 28 28 30 30 29 33 34 29 21 16 16 15 13 15 11 11 14 13 22 22 25 32 35 37 40 40 44 50 50 44 44 37 40 28 8 16 31

GFSCGP_500_spd_102.txt.gz
Wind_Speed
19 15 15 15 12 11 8 10 9 10 10 13 18 31 32 38 34 39 33 39 29 17 22 16 12 19 27 34 38 41 42 39 37 38 40 40 40 41 43 44 45 47 47 47
18 13 18 18 15 12 8 11 13 17 20 19 19 28 43 37 36 28 36 27 27 21 24 22 26 29 33 36 41 43 41 38 37 40 41 43 44 46 46 46 46 47 47 49
19 18 22 20 19 16 11 12 19 20 22 20 18 22 33 34 30 29 31 31 28 30 31 30 33 38 40 40 40 41 41 40 41 43 45 45 45 45 46 46 48 49 50 50
22 25 24 22 21 21 17 17 28 27 27 25 25 22 25 28 32 31 32 33 29 30 32 32 34 37 38 37 39 42 42 42 42 43 46 46 46 46 46 46 49 52 54 55
19 27 26 23 22 23 19 26 34 32 32 29 25 24 22 25 31 26 25 25 30 29 28 26 28 30 31 30 33 36 39 43 46 46 44 45 46 49 50 52 53 55 57 60
24 24 24 23 26 25 23 30 33 35 34 32 29 25 28 32 32 32 32 27 25 25 23 23 24 26 27 30 34 37 40 41 42 44 45 47 50 51 53 55 57 57 59 62
25 24 21 25 27 27 28 32 34 36 38 37 33 34 31 29 29 30 31 29 28 28 29 29 31 31 31 31 34 36 39 40 41 42 45 47 51 55 57 58 58 60 61 64
27 28 28 30 29 29 31 33 35 37 37 35 37 42 39 34 33 34 34 34 35 35 36 37 38 36 37 38 39 39 38 37 37 38 41 49 54 57 57 58 56 57 60 52
30 32 33 34 34 34 34 35 34 34 35 34 32 31 31 34 36 40 42 43 43 44 46 42 38 38 40 42 43 41 39 38 39 42 45 50 56 54 55 57 58 55 50 48
18 31 33 34 37 40 38 35 34 34 35 34 34 31 25 23 27 32 37 39 40 39 38 39 40 40 41 43 44 43 44 45 45 47 52 56 55 55 58 61 52 52 53 54
13 11 12 14 34 43 41 40 38 37 39 38 36 34 30 27 32 36 34 38 39 40 40 40 44 44 45 45 44 47 50 52 53 53 52 56 57 59 61 55 55 56 55 57
23 18 14 17 16 19 25 33 41 45 42 42 40 38 35 33 33 33 39 39 34 35 36 41 45 49 51 49 47 50 51 50 51 52 54 54 57 58 54 55 57 58 60 63
22 21 20 22 24 25 26 28 28 32 36 38 39 37 36 37 37 34 34 36 38 40 44 41 40 42 43 43 44 43 44 46 49 50 49 53 54 51 53 54 56 58 57 56
26 24 24 27 28 27 31 30 30 31 31 29 31 29 32 36 37 39 36 36 38 39 39 40 41 39 39 39 40 42 43 43 41 44 48 49 48 50 52 53 52 52 53 55
27 26 25 24 26 25 27 29 28 25 26 29 27 30 28 35 37 35 34 36 36 36 38 38 38 38 38 39 41 41 39 39 41 42 43 44 47 50 50 50 51 54 55 59
23 24 23 25 27 27 28 26 25 28 29 30 30 31 27 29 36 35 36 35 33 34 33 35 38 39 40 41 41 41 39 40 39 40 42 45 48 47 48 51 54 58 60 62
24 25 25 25 26 30 29 22 27 30 31 32 28 24 30 28 31 35 36 37 36 34 37 40 42 42 42 42 42 41 40 40 40 41 43 46 44 48 50 54 59 58 60 64
23 26 26 26 26 30 27 25 28 29 29 30 29 26 25 28 31 33 35 36 38 40 41 45 45 45 44 42 40 40 41 39 39 41 43 42 45 49 52 59 56 60 64 69
24 25 25 25 25 27 27 26 26 27 24 23 25 26 26 26 29 32 36 39 42 44 45 46 43 42 39 38 40 40 37 35 39 39 39 44 48 51 57 56 60 65 70 77
22 22 23 22 22 23 23 25 23 22 21 20 22 22 23 24 23 23 28 29 32 35 37 40 41 39 37 37 35 31 31 35 35 36 41 41 47 53 54 59 64 71 79 82
20 20 20 21 20 18 19 20 19 17 18 22 24 25 26 27 26 26 27 30 33 35 37 36 34 33 34 28 25 27 28 28 31 34 36 43 50 49 55 60 68 76 79 75
18 19 18 19 18 14 15 16 16 16 17 20 22 23 26 28 28 28 30 29 29 33 35 34 31 31 23 20 21 25 24 28 28 32 39 47 47 51 55 62 70 72 71 63
18 19 18 18 16 14 14 13 13 14 14 15 15 17 19 19 20 22 23 27 32 35 34 30 28 21 19 18 20 19 23 24 28 34 40 43 43 47 54 62 66 67 61 59
18 16 16 18 17 16 14 13 13 15 19 19 19 19 20 19 22 25 26 29 32 33 29 23 18 17 18 18 18 18 22 21 27 32 38 37 43 49 54 61 61 57 53 40
19 17 17 18 19 17 17 15 16 17 17 22 24 25 25 24 24 26 29 33 32 27 19 16 16 15 14 16 16 18 18 23 28 33 38 38 47 48 54 55 53 48 40 27
20 18 17 18 17 21 22 21 20 21 22 23 24 26 27 29 32 36 35 29 25 17 17 15 15 14 14 13 16 18 22 24 30 33 38 40 46 47 51 48 44 41 30 17

GFSCGP_500_spd_105.txt.gz
Wind_Speed
24 27 22 25 23 24 18 14 8 10 15 14 19 25 17 25 42 62 44 46 47 47 54 54 48 51 55 59 62 53 38 40 45 39 38 35 34 36 39 42 46 48 49 49
23 21 25 29 23 22 17 12 10 11 16 17 13 18 11 19 25 32 40 38 35 29 33 37 27 26 24 47 42 37 29 33 37 36 36 37 38 41 43 44 46 47 49 49
21 24 31 27 25 22 17 16 13 11 16 19 16 18 16 24 26 23 42 33 25 33 17 19 25 21 24 24 24 29 32 34 33 33 35 39 44 46 46 47 48 48 49 49
24 28 30 27 26 23 19 18 18 18 19 20 21 16 16 27 29 18 24 34 32 29 30 23 26 24 28 25 32 32 34 36 38 38 38 41 43 45 47 47 48 50 50 50
22 28 30 31 24 25 19 23 22 22 24 26 24 19 16 17 22 24 23 20 18 18 21 22 20 21 23 25 34 37 40 39 38 37 38 40 43 46 48 48 48 49 50 51
28 30 32 26 28 25 23 24 25 26 27 30 28 20 14 17 15 24 25 23 23 25 27 26 24 22 19 26 27 35 33 35 34 36 39 42 45 46 48 49 50 52 53 55
25 29 26 27 28 26 25 25 29 30 30 30 29 25 22 19 19 21 29 29 30 31 28 26 27 25 27 26 28 30 31 33 35 38 40 43 45 47 49 51 54 55 57 58
27 28 27 26 26 24 25 26 30 32 30 30 33 34 29 24 24 26 30 33 36 35 34 32 30 30 31 32 34 34 34 36 38 40 41 42 44 46 50 51 55 57 58 59
25 28 29 30 28 26 27 30 29 32 32 32 33 35 32 32 32 35 36 36 36 36 35 35 36 36 36 37 34 33 35 37 39 40 40 41 43 46 49 53 58 59 59 59
24 28 29 31 32 32 31 30 31 33 33 32 32 30 27 25 25 26 29 35 39 41 40 40 39 37 34 31 33 35 37 39 42 44 45 49 51 51 52 56 57 53 55 54
18 21 29 32 34 32 35 35 35 34 35 34 31 31 27 24 22 25 25 26 28 29 32 34 34 32 31 32 36 38 39 41 44 47 49 53 56 55 56 53 52 54 54 57
23 23 21 20 19 22 32 39 40 40 38 37 36 35 34 30 28 29 30 31 31 31 33 32 30 33 34 34 38 42 44 47 50 51 52 54 55 56 55 56 57 56 57 54
23 32 23 21 23 21 20 17 19 35 41 42 43 40 37 35 36 36 36 36 35 32 33 36 34 34 37 40 41 42 45 47 48 50 53 53 54 54 55 55 54 54 52 53
26 27 27 22 24 22 23 21 26 26 25 25 25 26 29 31 33 34 36 38 37 34 33 34 37 39 42 42 42 40 40 41 45 45 44 44 45 47 49 50 48 49 50 52
34 26 21 21 18 20 24 25 27 28 27 25 21 20 24 27 29 34 36 37 35 35 35 33 36 40 41 40 40 39 39 39 40 41 43 42 42 44 44 43 45 47 49 51
26 24 19 21 22 23 25 26 25 23 24 23 23 22 24 28 31 32 34 36 36 36 36 39 37 39 38 38 39 41 42 43 43 43 43 43 43 43 41 43 45 46 50 54
23 22 23 25 25 26 27 22 26 26 26 26 25 22 26 27 29 32 34 34 35 37 38 37 37 38 39 41 42 43 45 46 44 44 44 44 43 38 41 42 44 49 54 58
23 23 24 23 24 28 24 22 23 25 26 27 26 27 28 27 27 27 29 32 33 34 36 36 37 39 42 45 47 47 46 42 42 45 42 40 36 39 39 42 47 50 57 63
20 20 20 23 24 26 25 23 23 23 24 27 29 29 27 25 26 28 28 28 29 34 38 40 42 44 44 45 46 45 40 39 41 39 35 34 36 35 39 42 49 56 63 67
17 18 20 19 20 22 24 22 21 22 23 25 25 25 24 22 23 23 23 25 25 24 26 30 34 36 39 41 40 37 36 39 37 30 31 30 32 34 40 47 53 58 61 66
17 17 17 18 17 19 20 20 20 20 21 20 19 20 22 23 24 26 26 27 28 27 29 32 32 35 37 38 36 36 35 32 27 26 26 29 32 36 42 47 50 58 65 69
17 17 16 15 15 18 18 17 18 18 17 17 17 19 21 23 25 25 28 29 30 31 32 30 33 35 33 31 29 30 27 22 19 20 23 27 31 36 43 47 54 59 64 63
16 14 15 13 14 15 16 16 16 15 15 15 15 14 16 17 20 21 20 22 25 25 27 31 34 34 29 25 20 21 19 15 17 20 22 27 34 40 47 49 54 58 58 54
15 14 13 12 12 14 16 14 16 16 15 16 18 18 19 20 20 21 22 23 23 25 29 33 32 24 16 14 13 12 14 14 17 20 23 30 36 42 43 47 53 54 48 50
15 15 15 14 15 15 16 15 18 18 17 18 18 19 20 22 24 24 25 25 27 30 30 27 20 15 13 12 10 12 11 15 18 21 25 32 36 37 41 46 48 47 43 40
18 17 17 16 15 15 15 18 20 21 22 22 22 22 23 26 28 30 29 29 28 26 25 17 13 12 11 11 14 10 10 14 17 20 26 29 32 36 40 43 42 39 39 32

GFSCGP_500_spd_108.txt.gz
Wind_Speed
29 29 27 26 30 34 35 28 25 25 26 20 19 14 10 11 18 20 41 60 68 69 70 59 67 71 59 73 71 61 70 63 70 69 70 61 63 56 51 44 48 53 54 51
29 26 26 32 37 36 31 25 22 23 24 20 18 14 13 13 16 16 28 42 55 60 50 57 67 75 71 65 60 61 67 64 65 69 70 65 59 50 46 36 35 35 38 42
27 27 32 34 34 32 26 24 25 24 24 19 16 11 14 15 14 15 13 26 35 29 41 41 54 55 46 44 61 69 71 70 64 69 59 44 37 34 31 35 33 35 39 44
31 30 33 35 35 30 27 24 26 24 22 11 17 4 21 16 15 14 13 15 23 34 43 31 40 44 33 47 39 23 25 41 33 24 26 33 28 31 35 38 40 43 45 46
27 31 34 37 33 31 27 30 30 25 23 17 14 11 12 20 14 20 19 19 20 27 26 26 21 25 25 20 22 24 25 25 24 25 30 31 34 36 40 41 41 42 44 47
31 31 36 37 33 33 30 30 28 27 21 19 13 16 10 12 11 10 21 20 13 19 24 24 21 25 27 26 27 26 23 26 29 32 30 32 36 40 42 44 47 46 48 50
33 34 37 35 33 34 30 28 26 26 23 20 21 21 14 16 15 15 19 22 22 21 21 21 24 24 27 28 28 25 22 22 25 28 33 36 39 41 42 42 47 49 49 52
32 32 32 32 31 29 29 29 24 21 19 18 28 23 17 23 16 16 19 22 23 24 25 26 26 27 29 27 25 26 27 30 32 34 35 39 39 38 42 44 47 50 52 56
31 29 29 30 29 31 31 34 26 26 28 22 16 19 26 26 24 25 24 25 29 32 35 35 33 32 33 32 32 33 33 35 35 36 37 36 39 40 44 48 49 53 56 57
29 27 29 30 33 34 32 23 28 28 27 25 23 23 17 26 29 30 31 33 36 36 35 35 36 36 36 37 37 39 40 36 34 34 36 38 41 44 46 49 52 55 57 59
31 27 25 29 33 31 32 32 29 24 25 27 21 18 28 29 25 24 26 27 27 30 34 39 42 42 43 43 41 39 35 34 35 38 40 43 47 48 49 53 55 57 60 61
29 29 28 23 32 31 29 25 28 29 32 27 24 27 30 30 27 26 27 29 29 29 29 31 32 34 36 36 36 33 36 39 39 41 44 46 47 50 52 54 54 57 57 57
29 27 26 28 27 27 30 30 34 36 34 27 23 27 32 32 36 35 35 31 31 32 30 30 31 33 35 36 37 40 42 41 41 42 44 46 48 50 52 52 53 53 54 54
27 27 26 22 24 25 26 22 21 22 23 22 25 26 35 32 29 29 31 31 30 31 29 36 35 34 36 39 41 43 43 43 43 43 43 43 44 45 47 47 50 52 53 55
33 29 28 25 32 27 25 28 25 23 20 25 20 29 24 26 23 25 27 30 31 33 35 36 37 37 38 36 36 41 43 43 43 42 43 43 44 44 45 46 49 50 51 48
31 25 24 33 23 22 21 22 21 20 22 22 24 25 24 28 24 27 28 31 33 34 36 35 39 38 35 38 40 41 42 44 43 44 46 45 44 45 46 47 45 47 44 46
26 32 30 26 18 19 21 17 20 24 25 23 23 23 29 25 28 28 29 31 32 34 35 37 38 38 40 41 42 41 42 44 46 47 48 45 44 45 44 42 41 41 44 44
21 21 23 22 19 20 19 17 21 22 23 24 23 25 28 28 28 28 30 30 29 30 32 34 34 37 39 40 40 42 44 46 48 48 45 43 40 37 37 36 39 40 43 46
22 23 21 20 19 23 22 21 21 22 25 24 24 25 26 29 30 31 29 28 28 28 30 33 34 35 37 38 41 42 43 42 43 41 38 36 32 32 33 35 39 41 44 48
26 23 22 18 18 21 25 21 22 22 25 24 22 24 26 26 27 25 25 23 22 22 22 24 25 26 28 30 33 36 39 40 39 36 33 29 27 30 32 35 36 40 46 51
24 20 20 20 21 23 19 19 19 20 23 22 22 23 23 22 22 21 21 23 25 26 26 27 28 29 32 34 33 36 35 34 30 26 26 24 26 28 30 33 39 45 50 55
23 22 19 17 18 21 17 17 17 17 18 18 18 19 19 20 20 21 23 24 27 30 31 32 32 32 32 33 35 33 31 27 24 23 21 22 24 25 29 35 41 47 50 53
22 18 17 16 17 16 15 15 15 16 17 16 17 17 16 16 16 15 18 18 21 23 24 27 28 29 32 33 32 30 25 22 20 19 19 20 23 27 33 37 41 44 48 52
21 18 15 15 15 15 13 12 16 16 16 17 16 16 17 19 19 20 22 24 25 25 25 24 25 29 33 32 27 19 18 17 19 16 16 21 23 27 31 35 40 44 47 43
20 17 15 16 16 15 14 14 16 17 18 18 18 18 20 20 20 21 23 25 26 27 27 29 30 29 25 18 16 16 15 15 14 11 17 17 21 26 30 36 40 44 40 36
22 17 16 18 15 13 12 15 16 17 18 19 19 23 24 24 24 24 26 27 26 25 25 24 23 16 14 12 12 13 14 12 7 12 13 17 20 25 30 34 40 41 34 33

GFSCGP_500_spd_111.txt.gz
Wind_Speed
35 36 37 31 30 27 20 21 25 26 25 35 31 30 28 28 28 35 46 50 52 56 57 65 62 65 64 65 61 61 72 58 66 57 61 59 59 60 61 69 65 62 55 53
38 39 28 30 34 33 37 30 26 27 27 32 29 27 23 23 23 23 32 39 42 48 51 54 64 65 64 64 61 62 69 80 63 69 69 53 67 63 61 65 70 73 66 59
34 26 30 36 36 36 39 37 30 26 20 32 26 23 17 20 24 14 13 12 24 27 32 35 51 64 64 64 59 65 69 68 74 64 55 61 66 69 68 76 61 68 62 59
33 31 36 38 37 35 36 33 32 33 31 19 11 16 15 16 18 14 7 5 10 12 14 26 41 49 58 62 61 65 62 69 67 63 69 63 66 73 71 75 67 55 57 58
34 36 36 39 37 36 32 32 33 33 33 23 17 14 10 21 17 19 7 7 12 14 16 20 28 29 41 47 48 56 63 61 46 31 45 53 39 41 32 33 28 34 35 36
34 34 33 35 35 34 30 32 35 34 26 24 18 18 11 17 13 13 15 12 12 15 18 24 29 34 32 27 36 36 35 26 28 37 28 21 22 23 25 26 32 37 40 42
38 35 34 36 35 34 34 35 27 24 25 24 18 20 22 24 14 13 13 19 19 19 20 25 19 24 21 25 20 18 21 21 22 23 17 21 26 29 33 35 36 38 43 46
37 39 37 40 38 32 32 32 27 23 19 19 20 22 20 22 29 21 17 13 17 19 20 22 22 21 21 21 23 25 25 24 21 22 25 28 31 34 38 39 39 41 45 46
29 32 28 36 35 32 27 32 28 28 28 23 26 25 32 31 22 24 21 18 18 23 25 26 24 24 26 27 24 29 30 30 29 31 33 34 36 39 41 43 41 44 47 51
28 26 25 22 29 34 33 21 27 30 27 27 28 19 20 22 28 32 29 25 24 25 29 31 32 31 31 33 33 30 33 35 37 38 39 41 42 40 40 42 44 49 51 54
34 29 31 26 34 32 34 31 26 27 32 26 32 18 27 19 25 29 22 34 31 32 34 35 37 35 35 36 36 38 40 41 42 44 46 45 44 43 45 47 49 51 53 56
40 25 28 26 26 29 28 30 29 27 30 41 29 31 32 35 12 25 21 31 28 29 32 34 36 40 42 44 44 45 46 46 46 45 43 42 45 48 48 48 50 51 54 56
33 29 25 34 33 30 37 30 28 31 38 33 33 31 39 30 25 28 25 31 32 30 32 33 33 35 36 36 38 40 42 44 44 44 45 47 51 48 47 48 50 50 51 52
34 35 35 31 23 24 29 25 16 21 32 26 31 35 37 31 34 38 29 31 40 38 37 37 39 39 40 40 39 40 43 46 46 46 49 50 50 51 51 49 49 49 49 50
37 35 25 33 30 25 24 27 30 30 28 22 20 16 18 15 17 29 32 31 32 31 32 35 36 35 41 40 40 41 42 44 45 50 52 53 53 51 51 50 49 50 50 50
40 38 35 27 29 29 28 26 26 29 22 22 22 23 26 28 29 32 29 28 29 29 29 30 35 41 42 43 40 39 43 43 41 44 46 48 49 50 49 46 46 46 46 45
38 36 32 30 30 27 33 32 28 25 28 26 21 19 24 33 39 32 31 28 29 29 27 29 33 35 40 40 40 46 42 44 45 47 47 48 47 45 44 44 41 42 40 41
35 32 31 26 24 18 19 21 23 27 28 26 25 25 28 27 30 30 31 31 31 30 30 32 33 34 36 39 40 40 40 42 45 46 46 46 45 43 41 39 37 37 37 38
46 39 28 23 25 25 15 17 21 19 23 23 22 24 25 34 28 29 29 31 32 32 32 31 31 32 32 33 34 36 38 39 40 41 42 43 42 39 35 32 34 34 35 39
30 30 24 21 18 15 25 18 20 21 24 22 24 24 26 26 28 29 28 30 29 28 27 28 27 27 26 27 27 28 30 33 35 38 39 37 35 31 29 29 30 32 36 38
19 20 18 18 18 20 21 17 18 20 24 24 24 23 25 25 28 29 27 26 23 24 25 27 28 28 28 29 30 32 34 35 36 37 36 32 28 28 25 26 30 32 36 42
22 20 20 19 19 21 13 17 19 20 23 21 19 19 21 22 23 24 23 23 24 26 27 29 30 32 34 35 35 35 35 35 37 35 30 28 24 22 23 26 30 34 38 39
23 23 21 18 18 16 16 16 18 18 17 16 17 17 18 18 19 20 21 22 23 24 25 26 28 29 30 31 32 33 34 37 34 29 26 20 21 20 22 26 30 33 36 38
23 21 19 16 15 15 15 17 18 17 16 17 16 15 16 17 19 20 21 22 25 27 30 31 31 32 30 30 32 33 33 30 25 21 20 24 19 19 22 25 28 31 34 39
24 22 19 16 15 15 15 17 17 17 16 15 14 15 16 19 20 21 22 23 25 27 30 32 32 29 29 32 30 25 19 17 18 19 22 16 14 17 21 25 29 31 37 36
25 23 20 16 16 16 17 17 15 15 14 15 15 16 18 20 23 23 23 24 25 29 29 25 24 24 24 24 18 17 16 15 12 14 9 8 12 16 20 25 30 36 36 34

GFSCGP_500_spd_114.txt.gz
Wind_Speed
37 37 39 36 33 30 29 28 30 29 26 29 32 36 32 33 35 38 44 46 49 50 49 51 56 60 59 58 60 66 66 66 61 59 60 58 56 61 51 57 58 46 26 54
41 39 36 31 29 31 30 29 22 23 18 31 23 29 27 26 29 31 34 38 40 44 44 46 50 57 57 61 61 65 66 61 59 54 66 60 47 60 55 56 63 64 65 65
40 36 29 32 36 36 34 36 25 21 31 28 26 32 22 19 26 31 30 33 34 38 41 44 48 51 54 60 62 64 63 60 57 62 61 60 64 63 58 66 65 61 65 66
39 35 32 36 38 35 33 35 28 28 26 22 20 17 16 13 20 26 29 29 28 28 31 40 45 46 50 47 53 61 53 58 52 48 55 57 62 61 67 63 68 67 66 69
38 38 37 39 38 32 29 25 33 30 25 28 28 24 14 16 19 25 22 21 21 21 17 14 21 31 19 23 26 39 53 59 53 59 60 66 63 70 70 73 68 64 67 77
35 33 36 32 31 30 28 28 22 24 24 34 32 26 15 20 17 17 22 17 17 16 17 13 19 24 20 16 21 19 23 38 48 48 50 46 56 53 46 41 48 45 36 45
37 39 34 33 30 32 32 30 27 27 30 31 22 23 19 28 27 15 19 23 15 20 20 20 28 20 18 21 15 16 25 32 42 40 23 21 27 30 30 27 30 30 33 30
38 38 36 36 30 31 32 35 31 26 24 22 18 23 19 28 28 27 26 19 21 23 21 27 25 27 27 16 16 15 20 21 26 28 25 24 24 25 27 28 31 35 36 36
39 36 35 32 36 33 30 35 29 27 27 27 22 23 31 27 37 28 27 26 28 20 28 21 21 24 22 16 17 20 20 25 28 29 28 28 29 30 33 35 38 41 42 43
38 38 35 38 29 37 35 23 28 35 25 23 26 21 27 24 26 31 34 25 29 31 28 21 23 24 23 24 24 25 28 25 30 32 35 34 38 38 38 42 44 45 43 44
38 35 36 37 42 34 42 38 31 29 36 28 28 29 42 35 35 24 26 32 35 34 34 28 25 25 29 31 32 34 34 33 32 36 38 40 43 44 45 47 49 48 47 48
32 38 30 34 27 24 29 38 33 33 29 34 29 36 28 35 23 26 30 27 29 22 31 36 33 32 35 37 39 40 39 40 41 41 42 45 47 49 50 50 48 46 48 49
38 46 34 38 37 31 36 29 35 24 29 33 41 39 22 23 27 28 36 31 28 25 37 28 31 37 39 38 38 38 41 43 44 45 46 47 47 48 46 47 48 49 51 52
42 44 43 38 35 29 32 34 37 30 33 33 37 44 41 24 31 28 34 25 24 19 27 25 29 37 38 37 38 39 39 41 42 43 44 47 48 48 52 52 53 53 53 54
35 41 37 25 38 38 30 33 38 39 43 32 24 39 36 46 42 38 43 40 32 32 39 32 31 32 41 42 42 43 43 44 44 43 45 48 50 51 52 55 56 58 57 58
31 39 33 21 23 37 26 31 32 34 46 17 15 13 25 32 22 46 42 37 37 38 38 29 28 29 30 35 39 42 42 45 47 51 51 50 50 49 50 49 50 52 53 51
33 38 37 39 37 23 30 28 27 18 17 23 3 21 22 27 15 21 21 32 31 31 25 28 28 31 30 33 36 39 45 47 46 46 47 45 46 47 47 46 46 46 46 45
37 40 40 30 34 26 34 27 26 23 24 27 24 17 16 21 20 22 20 33 25 29 30 31 31 33 34 35 35 36 39 41 42 43 44 44 44 44 44 44 45 44 43 42
35 37 36 29 14 21 18 18 27 27 28 24 26 31 34 33 34 36 35 31 29 30 32 32 35 36 35 36 36 36 38 39 40 40 40 41 41 41 41 42 41 41 39 36
39 38 34 27 17 18 26 21 16 20 26 25 25 29 33 32 32 32 27 29 30 31 33 35 35 34 34 33 32 33 33 34 33 34 34 35 37 38 38 37 37 34 32 31
38 32 34 22 24 16 19 22 21 22 25 23 24 25 26 26 28 27 28 31 31 32 32 32 31 29 30 32 34 35 35 35 36 36 36 36 36 36 35 32 30 29 28 30
38 35 32 31 27 22 18 21 23 22 24 22 20 23 23 24 25 26 26 28 29 29 29 29 29 29 32 32 34 35 37 38 39 38 37 35 35 35 30 27 25 25 27 31
21 21 35 21 19 16 13 17 20 21 19 14 16 18 18 20 22 23 24 25 25 26 27 28 29 30 33 34 35 36 36 35 34 34 36 36 34 29 23 22 21 25 28 31
20 18 18 18 17 15 13 13 13 12 13 15 15 16 17 17 18 19 20 22 23 25 27 29 31 32 35 37 37 35 32 32 34 35 31 28 23 21 23 21 21 23 27 29
17 19 19 17 15 12 11 11 12 12 12 14 14 16 16 15 15 18 20 22 24 26 28 30 32 34 34 31 30 31 31 29 24 20 21 20 19 22 19 15 19 22 24 28
21 20 19 15 12 11 9 10 11 11 13 13 15 15 15 16 17 19 20 21 23 25 27 29 31 29 28 28 27 25 19 17 20 18 14 15 13 6 9 14 18 19 23 29

GFSCGP_500_spd_117.txt.gz
Wind_Speed
46 47 46 42 40 36 35 35 34 31 26 31 37 40 40 43 43 45 45 47 46 45 46 47 50 48 51 53 53 55 57 56 58 55 50 48 44 42 41 40 50 50 52 53
49 51 42 37 39 37 34 34 35 27 15 21 26 34 30 33 36 39 42 46 47 44 45 47 47 48 50 54 56 57 59 56 54 52 49 46 44 46 45 47 51 50 51 45
46 39 37 36 38 40 39 38 33 32 16 16 27 28 33 25 20 26 32 39 42 39 39 41 45 44 48 52 54 57 57 58 58 55 51 50 45 36 43 46 51 52 52 59
39 37 39 37 38 40 40 36 29 29 27 24 32 38 32 11 11 20 26 28 29 31 32 34 36 37 37 39 45 48 51 53 56 44 56 49 43 42 34 48 53 50 58 61
45 38 40 37 37 38 37 31 32 35 27 31 40 38 24 21 15 21 26 26 27 30 33 33 31 30 30 34 40 42 43 37 38 38 41 43 44 49 47 48 47 54 58 57
36 35 37 33 36 35 30 29 33 38 30 36 36 35 25 18 15 13 18 19 23 29 29 30 27 26 30 27 27 23 21 23 24 22 23 28 32 34 38 41 47 43 47 50
38 40 35 34 35 30 32 34 30 34 45 46 41 39 35 19 13 20 29 25 19 23 25 24 21 22 14 14 15 13 18 18 18 21 22 25 29 31 35 35 20 21 30 34
34 40 38 37 39 35 38 39 42 41 36 31 31 34 22 28 24 23 21 13 20 19 16 19 20 16 20 15 18 19 18 14 18 21 21 23 26 28 27 27 25 25 27 29
34 35 34 38 40 37 37 44 38 30 21 20 19 13 17 18 22 24 27 20 21 24 20 21 22 21 20 21 21 19 16 16 19 24 25 26 27 27 28 30 31 32 34 37
35 31 35 34 40 40 42 33 40 38 35 31 26 20 29 27 34 31 26 24 26 25 28 26 24 23 23 19 21 18 21 24 27 27 27 30 32 33 34 34 37 39 42 44
36 39 39 44 43 39 42 39 35 34 39 32 21 34 30 36 36 34 32 31 28 34 39 27 28 25 21 20 24 26 27 27 29 31 30 33 35 39 40 41 45 47 49 50
32 45 40 38 46 45 44 36 36 36 40 32 26 31 36 39 37 41 35 28 33 44 39 33 32 27 28 29 28 28 32 33 34 36 38 40 41 42 44 46 49 52 54 54
42 45 41 44 40 42 46 46 40 36 37 39 33 33 30 34 39 32 28 26 31 34 30 23 26 31 31 31 30 33 36 38 40 40 40 42 42 43 43 44 46 48 50 51
42 46 42 34 41 48 38 38 43 38 38 37 38 31 36 33 29 34 33 34 42 35 16 23 11 23 19 23 30 36 38 38 38 40 41 42 42 44 47 49 49 52 52 51
44 38 38 34 36 38 35 34 45 39 34 29 37 35 38 37 40 26 25 30 32 36 25 24 15 17 26 29 30 30 34 39 42 44 46 47 47 47 48 49 51 50 50 51
44 34 30 29 40 36 31 35 37 35 36 32 33 32 33 34 37 42 44 41 42 47 38 35 30 23 30 30 29 28 30 33 37 40 43 44 43 45 48 50 49 48 48 49
37 33 31 34 41 36 32 42 40 35 38 34 31 37 40 36 34 32 28 25 29 27 30 24 25 26 32 29 30 31 34 37 39 41 42 44 46 46 47 46 46 47 47 47
32 30 35 42 30 46 40 42 40 34 36 28 27 25 13 14 19 26 25 10 9 7 20 24 26 29 31 34 34 35 38 40 41 42 44 45 44 44 44 44 45 46 46 47
37 40 38 40 21 33 36 21 22 27 17 18 25 12 19 15 13 15 18 21 19 27 30 28 29 29 32 35 36 38 40 41 40 41 41 41 41 41 41 41 41 43 43 43
42 34 34 35 11 30 26 29 29 26 22 16 22 20 20 17 19 22 22 23 28 31 31 31 31 32 33 36 38 39 38 37 38 39 39 38 38 37 37 39 40 42 42 41
50 32 32 23 27 23 19 29 23 23 24 23 24 21 21 22 21 20 22 26 29 31 32 34 36 38 37 36 34 33 34 37 40 41 41 41 40 40 39 40 40 40 38 33
29 33 31 30 21 16 22 26 26 21 14 16 18 22 25 25 23 23 25 27 29 31 33 34 35 36 36 34 33 35 37 39 40 40 40 39 39 39 39 38 39 35 28 23
27 24 26 26 25 18 14 17 20 18 17 18 20 23 24 24 23 24 26 26 27 29 31 32 31 31 33 34 34 37 39 41 40 37 35 34 34 36 36 34 30 23 19 22
31 29 27 29 26 18 18 18 20 22 21 21 20 19 19 19 20 21 22 23 25 26 26 28 29 30 31 31 34 37 38 32 31 32 33 33 31 27 24 20 17 17 18 21
27 29 30 34 20 16 17 16 17 15 13 12 14 16 18 19 18 19 19 19 21 24 26 27 29 29 30 31 34 32 31 31 29 26 21 19 22 19 13 12 13 11 14 18
16 18 17 21 19 20 17 14 12 12 11 12 13 15 16 17 18 19 19 20 20 22 24 26 27 27 28 29 28 29 28 24 18 20 17 18 16 14 4 3 4 7 14 19

GFSCGP_500_spd_120.txt.gz
Wind_Speed
59 59 58 55 53 48 44 40 40 39 33 34 36 38 39 36 42 46 47 49 49 46 44 44 47 49 50 48 47 48 46 47 48 45 42 43 44 41 43 42 39 43 42 48
60 62 58 54 48 44 42 39 41 38 34 39 33 36 31 33 41 41 43 45 46 47 45 44 44 45 46 47 49 49 50 49 49 49 47 45 38 38 40 41 43 47 49 51
61 55 50 49 46 45 44 43 40 35 32 35 36 38 35 32 39 39 40 43 45 46 46 46 41 44 45 45 48 50 51 52 51 50 47 44 43 42 45 47 48 51 53 54
49 44 45 45 43 42 44 38 36 31 34 36 30 37 32 30 20 21 29 33 39 41 36 36 40 42 42 42 46 50 50 48 50 42 41 36 31 31 38 43 45 46 47 52
47 43 44 46 43 40 38 33 35 31 38 34 33 34 27 23 22 24 25 32 21 24 26 31 35 35 33 34 36 41 42 42 42 39 31 25 25 28 35 39 39 41 44 43
36 38 43 36 37 38 38 34 34 33 37 44 37 34 30 32 25 23 25 24 20 22 25 27 29 30 30 30 31 31 32 34 36 26 18 20 18 18 20 22 22 22 19 25
35 41 40 40 36 39 40 35 37 44 49 45 40 37 37 26 24 26 22 22 23 24 23 26 25 22 22 26 26 25 23 22 19 17 16 15 12 13 15 16 18 21 22 23
33 42 44 44 44 40 41 42 45 50 50 43 39 45 39 25 29 31 25 23 24 27 19 12 9 11 12 17 18 18 17 18 17 15 15 17 17 19 20 20 21 23 25 26
33 32 38 44 44 44 42 47 42 45 40 44 39 36 26 30 35 32 26 21 21 26 23 13 12 9 10 13 13 15 17 18 18 17 19 18 20 23 25 26 29 29 29 32
35 29 35 40 43 46 46 43 39 36 44 41 37 31 32 34 35 36 36 33 28 26 22 17 15 16 12 16 20 20 20 21 21 23 23 24 25 28 31 32 34 36 37 39
40 31 41 45 50 48 52 41 35 35 36 39 31 30 34 33 31 35 38 36 33 32 30 25 24 20 21 20 23 24 23 24 26 27 28 28 31 33 35 37 39 40 42 45
36 34 42 46 49 50 52 48 44 44 41 38 31 36 31 29 29 33 35 30 32 32 28 29 31 26 21 23 21 23 25 28 30 31 33 35 38 40 41 42 42 44 44 46
43 38 42 48 53 52 51 49 44 43 41 39 40 33 40 34 38 36 38 33 33 33 32 32 35 31 26 24 25 26 28 32 35 38 40 42 43 44 44 45 45 45 45 47
39 37 44 42 46 47 47 45 47 46 41 44 41 34 35 40 36 32 38 32 44 38 37 28 26 31 22 24 25 28 28 33 37 41 43 43 43 43 44 45 47 48 49 49
40 38 37 39 39 44 36 43 42 41 37 40 41 36 37 32 31 26 27 26 30 34 35 35 19 12 5 24 29 26 32 31 32 34 33 34 36 39 42 45 45 45 46 47
36 39 35 39 39 39 45 44 44 43 40 37 36 39 38 31 25 30 31 34 28 23 26 32 28 33 15 24 31 33 36 30 32 33 34 34 36 38 41 43 44 44 45 46
37 36 39 40 37 36 41 43 39 40 42 39 36 35 35 30 31 28 33 31 22 21 16 18 26 15 20 28 27 28 30 33 36 37 39 39 40 41 43 44 45 45 46 47
38 32 35 39 35 34 39 41 39 39 44 40 36 34 32 25 21 25 27 27 15 13 10 11 16 17 21 26 29 32 34 35 37 37 38 39 41 42 44 45 45 45 45 45
39 35 32 34 31 32 37 38 39 37 38 38 34 27 17 11 15 14 3 1 14 18 20 21 25 21 24 28 31 32 34 36 38 40 40 42 42 42 42 43 43 44 43 44
39 34 27 29 31 35 39 42 40 38 36 32 26 17 14 13 12 12 11 11 13 17 24 30 28 26 29 31 33 35 37 38 39 40 40 41 41 42 43 43 43 43 43 44
29 32 28 27 31 32 28 43 42 39 29 25 22 22 11 9 17 15 15 16 16 20 24 28 31 34 35 34 34 35 36 37 39 39 40 40 43 45 45 43 42 42 42 42
27 24 30 33 17 24 31 26 29 22 17 22 21 19 18 17 15 14 16 19 21 23 27 31 33 34 34 35 36 36 36 37 36 36 39 43 45 44 42 41 40 40 39 37
30 30 31 28 21 23 19 27 21 18 18 15 15 18 18 14 17 19 20 21 23 25 27 30 32 34 34 32 33 35 35 32 35 39 36 35 37 37 37 35 34 33 30 29
40 29 29 33 29 25 23 21 23 21 19 18 17 17 15 15 16 18 20 22 24 25 26 28 29 29 29 31 33 33 31 32 36 35 35 33 31 27 23 21 23 24 21 17
21 34 29 22 27 24 20 21 20 18 18 16 14 14 15 16 18 19 20 22 23 25 24 24 24 26 29 31 31 29 29 30 30 31 26 20 20 24 22 16 14 10 9 10
19 20 22 24 24 20 16 16 15 16 14 14 15 17 17 16 17 19 20 21 22 25 24 24 25 24 28 27 26 26 25 26 27 19 17 19 17 12 6 2 2 5 9 13

GFSCGP_500_spd_123.txt.gz
Wind_Speed
68 68 63 59 59 56 56 53 51 51 44 45 41 39 40 38 42 44 48 48 50 52 59 62 59 55 49 47 46 44 42 40 40 40 40 37 37 36 37 35 36 38 39 41
70 69 62 61 60 58 55 53 50 47 44 43 42 43 42 38 42 48 47 48 49 52 56 57 57 54 51 48 48 45 44 43 41 41 42 40 37 37 37 38 36 34 39 42
68 62 56 58 57 57 55 51 49 46 38 39 44 45 42 41 44 46 47 46 49 49 53 54 50 48 48 45 45 45 45 44 44 44 42 43 43 44 41 38 39 41 44 47
61 57 59 56 54 54 52 47 45 39 33 40 42 44 40 38 41 44 43 40 43 46 46 46 45 41 42 45 46 45 45 45 46 45 44 44 45 44 42 38 37 41 42 45
56 57 57 53 54 48 45 38 35 32 34 37 40 44 36 38 38 35 36 38 40 42 43 43 39 39 39 42 44 43 42 43 41 43 44 39 37 37 37 36 36 37 39 45
41 44 48 39 41 41 41 35 36 35 37 42 40 44 37 39 34 26 28 31 35 29 33 32 31 35 36 37 37 36 33 33 36 39 37 31 27 23 24 26 28 30 33 35
37 42 43 45 46 42 46 43 42 41 46 48 43 44 37 33 33 31 26 23 20 24 32 32 30 26 23 24 26 27 30 32 30 26 20 19 17 15 19 21 20 19 20 17
38 41 46 44 46 47 51 47 51 50 50 47 44 45 38 36 30 30 28 26 24 27 30 29 17 15 17 20 24 27 30 26 20 16 15 13 13 17 16 15 16 17 18 19
34 38 42 45 43 46 47 46 43 44 44 46 48 48 38 35 28 31 29 30 31 30 28 18 16 15 17 17 18 22 21 19 18 18 15 15 15 15 16 17 19 20 23 25
32 35 42 48 43 46 43 42 50 46 43 40 45 44 44 31 31 34 35 35 31 24 23 21 21 24 19 18 19 20 22 24 25 18 13 19 20 19 21 22 24 27 33 34
32 36 37 47 50 53 49 50 51 48 50 43 43 43 42 33 35 37 38 32 33 32 25 24 30 23 22 21 21 19 20 17 16 17 21 20 23 25 28 29 32 36 39 40
33 31 23 38 47 51 50 51 50 50 47 41 38 39 36 36 39 38 38 35 35 37 28 25 26 30 29 27 22 21 21 19 21 25 24 26 29 32 35 38 39 41 43 44
39 40 31 37 41 49 52 48 48 47 42 42 37 38 37 35 35 37 38 33 28 26 25 25 28 32 39 31 25 21 19 23 27 25 27 31 34 37 40 42 45 46 46 46
27 42 36 36 41 43 51 50 48 43 41 38 37 41 37 31 29 33 32 27 25 26 25 28 27 28 33 33 28 26 24 26 28 25 25 32 37 38 38 39 40 42 43 43
27 30 31 36 41 39 47 52 50 45 42 40 38 39 36 34 31 30 28 30 29 28 28 28 28 29 14 27 15 21 25 29 31 28 31 33 35 36 37 37 38 39 41 42
29 28 33 40 41 41 47 51 47 42 37 34 40 37 36 33 33 35 26 25 17 17 20 21 10 20 21 19 27 18 18 23 28 32 37 37 38 39 41 42 43 43 44 45
24 28 39 40 38 40 45 49 47 41 38 35 38 40 40 34 28 23 18 14 13 14 16 22 23 17 12 17 15 17 23 26 32 37 37 40 42 42 44 44 44 45 45 46
27 32 32 40 36 34 38 41 42 39 40 33 29 28 30 30 29 27 24 21 19 21 21 10 8 10 10 12 19 23 28 30 32 36 38 40 42 43 44 44 44 44 44 46
32 25 29 34 35 27 33 38 39 40 39 33 31 29 24 20 23 22 17 14 17 28 25 18 13 17 18 20 23 26 27 30 34 37 39 41 41 42 42 42 43 42 42 43
38 31 25 31 30 28 28 33 38 36 35 32 32 28 20 20 18 18 16 13 10 17 21 19 22 22 25 21 24 27 31 33 33 35 36 37 39 41 40 40 41 43 44 44
28 29 24 31 31 28 25 30 34 36 28 24 25 28 18 16 18 16 17 13 12 12 15 18 23 24 25 27 30 31 31 32 31 33 36 36 34 36 40 42 42 42 41 40
28 31 26 23 30 28 29 28 29 24 22 21 20 21 17 17 18 15 14 14 12 16 14 20 22 24 26 28 30 30 28 29 32 35 35 32 36 39 38 42 44 44 42 39
34 29 20 19 16 21 30 27 31 28 22 21 21 17 20 21 15 16 18 17 18 18 18 20 23 26 28 28 27 29 32 36 37 37 34 35 36 38 38 37 35 33 30 29
28 29 26 22 19 25 21 19 33 24 18 20 24 23 22 21 19 16 16 17 16 16 18 21 23 24 26 28 30 31 34 36 34 30 32 33 35 27 27 30 31 26 23 20
21 23 28 20 24 21 31 31 30 27 24 20 22 21 21 21 18 17 15 15 16 17 18 21 23 26 27 28 29 33 35 33 27 29 29 29 20 22 23 27 21 17 15 11
24 24 22 28 26 19 21 23 25 21 19 19 18 17 17 17 15 14 13 14 14 16 19 21 24 26 27 29 30 31 33 27 28 25 26 18 16 15 14 14 7 6 10 5

GFSCGP_500_spd_129.txt.gz
Wind_Speed
70 74 74 71 71 67 67 65 62 60 58 54 52 49 41 33 39 40 40 47 47 48 47 45 44 42 42 40 36 35 36 36 34 34 34 34 35 35 34 36 37 38 41 43
67 70 67 74 73 71 68 66 64 61 58 58 56 54 49 40 38 40 40 42 45 48 50 49 46 44 41 39 38 37 35 35 37 36 34 33 34 36 37 37 39 41 42 44
63 60 61 68 70 69 68 67 62 60 57 55 53 55 52 42 40 38 38 40 44 46 46 47 47 45 45 42 41 41 42 41 39 37 36 37 37 37 38 36 38 39 39 39
54 54 63 64 66 64 64 62 61 59 57 55 52 54 50 41 39 40 41 41 41 44 44 43 45 45 45 45 47 46 46 46 42 38 37 37 38 38 37 37 38 37 37 38
40 46 53 62 66 56 53 60 57 56 55 54 52 54 51 48 41 40 41 38 39 40 39 40 43 44 44 48 51 51 51 51 49 47 45 44 42 40 39 38 37 39 39 39
16 29 43 45 47 47 49 48 51 49 47 52 49 52 54 49 43 40 39 40 35 35 34 36 39 43 46 48 49 50 52 52 52 52 50 47 44 42 40 40 39 38 38 35
18 14 30 40 43 44 49 50 49 50 51 57 50 52 53 50 45 41 40 33 35 35 36 35 34 37 41 44 46 47 49 50 49 48 47 46 46 42 42 39 35 33 33 34
21 22 26 39 43 45 50 49 55 59 60 57 50 52 52 48 46 40 34 34 35 34 31 30 32 35 38 39 41 43 46 47 48 47 47 47 45 41 36 29 28 28 28 28
15 22 22 33 35 46 47 49 42 44 46 50 51 51 54 46 38 38 33 33 33 29 29 30 33 35 35 37 40 43 45 48 48 48 49 46 39 32 26 25 21 20 20 22
13 19 19 33 34 37 43 36 46 45 45 46 47 46 49 40 36 33 31 30 29 30 30 30 30 28 27 32 34 34 37 40 41 39 38 33 31 30 29 24 21 20 20 21
15 16 17 35 39 32 43 36 44 45 45 43 43 46 44 34 35 33 32 31 32 34 33 29 29 27 29 25 27 32 30 29 30 34 35 34 33 41 29 24 18 19 22 24
11 13 27 35 37 31 36 32 39 42 42 46 43 41 43 36 38 35 32 33 37 34 31 24 26 27 27 28 28 26 24 23 25 30 36 37 36 45 25 19 20 23 25 28
13 15 22 31 36 34 33 34 39 44 42 43 43 42 44 38 37 35 35 34 39 33 29 27 25 28 21 20 23 26 27 25 27 30 35 33 22 19 22 22 25 25 27 30
2 27 20 24 32 39 31 46 37 42 43 39 41 40 42 40 37 36 36 34 31 31 28 28 28 27 25 25 24 26 29 33 34 31 30 34 24 24 31 30 29 31 33 35
10 18 19 15 27 28 32 40 40 37 42 32 29 30 35 37 39 36 32 31 30 30 30 32 28 27 27 23 23 24 23 33 32 31 31 32 24 29 31 34 37 38 39 40
21 20 16 17 17 29 24 35 36 40 48 37 32 28 28 34 35 37 34 35 31 33 29 26 29 31 22 14 13 15 18 18 21 34 24 21 26 29 32 35 37 38 40 42
18 23 19 14 19 22 27 34 32 34 47 34 32 30 29 28 30 30 28 24 22 24 24 21 19 13 13 16 19 18 18 16 17 21 26 29 29 31 34 36 38 40 42 44
25 18 16 17 17 24 23 23 30 25 36 36 31 27 30 30 30 27 26 20 17 16 18 14 11 12 14 16 17 15 13 14 18 22 25 27 30 33 34 36 38 39 39 41
18 18 19 18 19 21 20 24 26 20 28 37 34 27 23 20 23 23 21 19 18 12 10 13 14 15 14 13 14 13 12 15 20 23 27 29 32 34 36 37 38 39 41 44
15 23 19 17 16 19 21 23 23 27 30 32 29 23 23 21 18 17 13 14 13 12 10 10 11 17 17 12 12 17 17 22 23 26 29 29 30 30 32 35 38 41 42 43
16 15 19 16 17 18 18 22 41 31 26 28 23 19 16 14 15 16 16 15 13 9 8 5 3 12 17 15 15 18 22 22 21 22 23 24 28 30 33 35 37 36 36 38
20 17 18 17 18 19 20 25 35 30 23 22 21 23 23 20 18 15 13 17 14 12 8 7 5 6 14 18 19 19 20 20 19 21 23 27 30 32 33 31 30 32 32 30
17 15 18 24 20 22 20 21 23 25 18 20 23 25 23 19 18 15 14 16 16 11 9 9 9 12 14 18 19 21 20 20 20 24 27 28 30 31 29 29 31 25 27 23
14 16 19 22 20 18 18 21 22 22 22 22 24 18 26 20 14 17 15 13 13 12 11 13 15 15 17 18 17 17 19 21 22 24 26 28 30 29 28 30 23 23 22 19
16 17 21 23 21 15 18 23 22 20 22 18 21 24 19 18 19 15 11 10 11 11 14 13 14 14 14 15 17 19 21 23 25 27 28 30 29 26 27 22 21 20 19 14
15 13 17 21 22 19 25 24 19 19 20 23 17 14 18 17 16 12 10 10 11 12 12 12 13 14 14 16 20 23 26 27 27 27 29 29 26 24 20 18 17 15 12 11

GFSCGP_500_spd_135.txt.gz
Wind_Speed
78 70 75 70 68 67 69 61 65 63 55 57 58 56 53 51 48 43 41 39 39 41 42 41 36 34 33 36 37 41 43 42 38 38 37 35 36 37 39 41 44 44 46 45
65 76 71 64 69 72 73 71 66 55 58 62 60 58 56 48 48 45 40 40 39 37 38 39 37 38 34 31 34 37 39 37 36 37 37 38 39 38 40 42 42 44 45 45
53 66 65 59 66 71 72 71 68 58 51 58 64 64 54 50 49 45 42 42 38 37 36 36 36 37 35 35 32 32 33 35 35 36 37 37 38 39 41 42 41 42 43 43
29 37 48 52 60 65 70 65 68 53 41 52 61 61 58 54 47 48 42 43 40 35 35 35 36 32 35 32 31 32 32 33 33 33 33 35 36 39 39 38 38 38 39 40
31 34 33 28 42 60 65 56 68 67 45 40 38 55 53 41 51 47 46 42 41 40 39 37 35 30 30 30 32 34 36 34 33 32 34 36 40 40 38 38 38 40 41 43
21 26 43 46 36 42 53 51 44 49 44 44 38 48 50 41 47 48 46 42 42 42 41 37 36 33 32 33 35 36 32 30 33 36 38 40 40 39 39 39 42 41 41 42
16 17 17 23 38 35 42 41 46 42 51 45 57 53 53 40 42 40 43 41 44 43 40 39 37 34 32 33 34 28 28 32 36 38 38 39 39 37 39 41 40 40 40 41
17 21 25 25 32 41 45 49 56 52 59 64 59 57 60 40 30 45 43 41 43 44 44 45 42 38 34 39 30 31 33 34 36 35 38 38 37 35 37 38 38 39 39 39
11 12 15 19 21 42 41 45 45 31 35 45 41 33 38 41 53 56 50 49 45 44 47 42 42 39 46 30 32 33 33 35 35 36 35 36 36 35 35 37 36 37 38 38
16 13 14 13 20 29 41 40 48 40 31 39 38 40 34 42 59 59 44 46 45 43 45 49 48 44 30 32 32 32 34 34 35 35 34 33 33 33 35 36 37 38 39 40
19 18 18 19 19 30 42 42 45 43 24 32 38 39 37 42 55 56 57 49 44 42 40 37 34 36 37 33 32 33 34 35 34 32 30 31 31 34 34 32 34 35 37 41
21 19 13 12 10 22 34 42 43 50 34 36 33 42 45 39 41 54 46 40 42 43 42 39 38 36 34 33 34 34 32 30 29 28 30 30 31 31 29 28 30 31 34 38
10 19 18 21 23 26 33 36 46 39 34 35 38 39 45 50 51 41 41 41 42 42 41 40 38 37 35 34 33 30 28 27 28 29 29 31 32 33 31 31 32 34 37 39
2 15 16 21 22 22 40 37 44 37 42 43 42 33 40 31 33 37 40 40 40 41 41 40 39 38 34 31 27 26 26 27 29 30 31 33 36 37 38 39 39 34 35 36
2 12 16 21 24 29 29 36 49 38 41 37 27 27 33 34 34 38 39 42 42 42 40 39 34 30 28 26 26 27 28 28 27 27 32 35 35 38 42 40 37 34 41 36
15 18 15 15 22 25 30 41 46 31 28 47 31 33 34 37 41 43 44 44 42 39 36 33 30 28 30 32 35 30 29 27 28 33 35 33 33 38 38 35 35 39 40 33
15 16 14 11 19 26 31 41 48 33 31 30 25 27 32 47 45 44 44 44 42 40 36 34 31 29 33 31 28 28 30 32 32 31 30 32 35 33 30 29 29 31 33 36
12 16 9 14 19 32 30 30 35 27 39 48 31 34 40 44 44 43 41 41 40 37 36 36 34 31 29 26 27 31 33 34 33 31 30 33 30 31 30 28 29 30 31 33
8 11 14 18 21 27 28 31 44 39 32 31 34 41 45 44 42 45 43 42 40 38 37 35 33 31 29 27 27 26 27 28 30 34 28 23 24 27 28 29 31 32 34 37
17 18 22 22 20 23 20 27 32 34 18 34 41 41 39 45 44 45 46 43 41 40 36 35 35 33 36 29 26 26 26 26 21 18 21 23 26 27 28 29 30 33 36 36
15 17 10 17 14 24 25 26 23 31 16 23 43 45 44 43 44 44 47 45 42 40 39 38 36 30 25 26 26 23 19 13 16 21 24 26 27 27 28 29 30 31 35 36
13 7 13 16 18 22 23 22 22 30 29 28 40 41 42 40 42 42 44 44 35 28 23 20 21 21 23 25 25 21 16 16 17 21 23 25 26 26 27 29 32 33 35 34
16 12 14 18 18 24 25 16 24 26 20 19 22 28 48 40 41 35 31 32 25 19 19 19 16 13 12 13 16 20 21 22 23 21 22 21 23 26 28 30 32 33 33 32
14 16 17 20 22 25 22 14 23 26 24 21 19 23 28 25 22 22 21 19 19 18 17 17 15 13 9 11 13 14 16 16 16 16 17 20 25 29 33 35 35 34 31 28
15 15 21 20 24 27 27 21 29 28 28 25 24 26 23 23 15 24 19 18 18 19 15 12 10 10 11 10 10 10 11 12 14 18 23 28 32 36 37 36 33 30 28 24
17 20 20 21 23 29 32 32 27 26 25 25 21 25 17 23 20 15 17 18 18 16 13 11 10 9 8 8 9 10 11 16 21 25 28 31 35 35 34 31 28 26 23 20

GFSCGP_500_spd_138.txt.gz
Wind_Speed
71 77 84 79 73 64 62 64 62 59 48 51 54 52 50 49 47 45 43 38 33 34 34 35 37 34 30 34 34 34 38 39 39 31 33 32 34 38 37 38 41 40 39 41
49 62 70 73 65 66 66 66 62 53 50 50 51 50 52 47 47 47 45 35 35 34 31 31 33 34 32 31 34 39 32 34 38 36 36 34 36 37 38 37 37 38 39 39
31 39 54 59 61 63 68 68 65 60 30 39 38 35 41 48 49 49 46 38 35 34 31 30 29 28 29 33 37 35 30 33 34 37 36 36 37 36 37 38 36 37 37 40
20 26 34 52 55 58 66 64 62 58 39 34 36 43 38 57 45 42 46 38 38 36 33 29 29 24 25 32 33 31 35 24 30 34 34 34 34 35 38 36 35 35 38 41
25 17 22 47 36 54 56 59 63 63 50 39 37 43 45 45 51 44 39 37 39 38 35 30 29 26 22 28 31 28 26 26 32 30 30 33 35 37 36 34 32 34 38 39
17 23 18 33 33 33 51 51 39 40 51 51 39 39 46 47 47 39 43 38 38 37 37 35 34 31 24 27 28 28 28 25 26 27 30 31 34 36 33 30 32 34 36 38
8 11 30 25 36 37 49 50 48 41 52 59 56 39 49 48 38 42 35 41 40 39 37 36 34 36 28 31 29 29 20 21 24 26 27 30 32 34 35 31 34 37 37 38
10 10 15 27 38 31 46 47 55 50 46 59 61 64 58 37 26 32 35 35 41 40 41 39 35 36 31 31 32 25 18 24 26 27 28 31 33 36 34 34 36 36 37 39
12 9 8 25 30 43 29 49 45 44 37 47 60 56 42 28 29 31 31 38 38 42 41 39 38 37 39 35 32 19 31 30 27 29 31 34 35 34 32 36 34 35 35 35
14 20 8 19 27 32 47 36 47 48 37 38 40 52 46 41 35 42 41 42 44 41 43 43 44 42 41 37 27 30 28 30 30 30 32 34 33 35 35 34 34 35 35 35
17 17 13 21 23 17 48 46 48 47 38 39 38 44 44 34 43 51 49 44 39 46 46 45 44 43 43 28 30 32 32 31 31 29 29 31 33 34 32 32 33 33 30 31
14 18 16 15 17 20 38 46 49 53 38 39 33 31 39 35 51 52 50 49 44 39 43 43 41 39 28 35 34 33 32 30 30 28 28 32 30 29 29 31 33 33 33 34
13 20 16 17 15 20 39 37 39 53 37 43 42 37 44 41 43 37 44 51 47 41 36 36 33 33 37 36 34 32 31 31 30 29 30 28 27 28 30 33 35 37 39 41
0 8 15 19 25 12 36 37 46 54 35 46 36 32 49 52 38 40 38 42 45 44 42 39 39 38 37 36 34 33 33 32 29 28 26 26 26 29 31 34 36 39 42 43
5 10 13 11 13 16 27 36 53 52 29 33 46 19 40 51 49 44 36 34 46 46 45 43 41 40 38 35 34 33 32 29 28 25 24 25 27 30 34 38 38 40 43 41
5 6 5 4 17 14 12 28 56 44 32 26 20 32 35 39 47 44 42 36 45 45 43 41 39 37 34 33 32 31 28 27 24 24 26 27 29 33 36 35 38 39 37 37
6 13 11 11 13 14 31 35 37 45 23 18 36 38 29 38 36 32 38 43 41 40 39 38 36 35 34 30 27 26 26 24 25 27 27 31 32 34 35 34 37 34 32 32
15 11 8 14 13 16 30 26 27 42 34 28 31 16 35 38 33 37 42 40 41 39 38 36 34 31 29 28 26 24 23 25 27 30 33 34 36 34 34 30 29 31 31 31
5 7 7 18 18 21 37 24 45 31 38 32 29 31 35 41 40 41 41 42 38 36 35 34 32 29 28 24 22 23 25 29 31 34 37 35 32 32 24 28 30 31 31 32
7 11 10 18 24 24 30 22 21 26 17 21 20 28 35 38 42 45 45 41 38 36 32 31 31 29 27 24 26 29 30 30 30 28 27 26 24 24 29 31 30 31 32 33
9 7 5 22 27 23 20 27 24 16 19 18 31 34 40 40 37 37 39 39 38 36 33 30 30 29 29 30 32 31 31 30 25 23 18 19 23 26 28 28 28 30 32 35
5 20 17 18 23 20 22 25 25 24 16 27 26 38 43 39 35 36 36 38 37 36 37 35 34 35 35 34 32 29 25 22 19 19 19 20 24 24 24 25 27 31 35 38
10 15 17 22 17 20 23 17 17 21 25 20 43 39 40 38 38 37 34 37 37 37 36 35 34 35 35 28 23 25 23 22 23 22 24 23 21 21 24 29 34 38 41 42
9 13 15 18 18 16 12 14 19 18 20 36 41 35 44 41 40 41 37 34 34 31 31 27 23 19 14 13 13 13 15 18 20 19 18 18 20 26 31 35 38 42 42 41
9 16 12 11 18 16 11 23 18 18 19 23 35 31 36 37 35 33 32 29 33 27 21 20 17 15 12 11 11 12 13 13 14 14 17 22 27 31 34 38 41 41 37 35
10 15 15 18 17 15 22 26 25 25 25 28 28 32 27 28 28 25 26 22 20 22 18 15 13 12 10 11 11 11 11 12 14 18 22 25 29 34 37 38 36 34 32 31

GFSCGP_500_spd_141.txt.gz
Wind_Speed
57 67 80 81 74 66 62 63 62 58 55 53 55 55 53 50 52 47 45 41 37 30 26 30 33 31 36 36 43 39 33 34 31 29 18 19 27 29 30 33 33 32 34 35
29 51 63 71 73 74 68 62 64 56 53 55 52 50 47 47 48 46 43 43 37 29 27 24 24 29 34 31 33 31 27 27 35 28 27 29 33 31 30 31 31 34 35 32
26 19 34 50 59 62 67 66 62 59 51 43 50 48 47 47 47 43 44 40 38 33 29 25 22 26 25 27 30 33 29 24 28 31 33 33 34 26 30 33 34 33 30 33
29 23 32 30 52 59 65 66 62 60 53 54 43 48 44 46 46 44 42 40 39 33 31 27 26 23 23 25 25 29 32 23 24 31 36 21 21 31 32 33 33 31 30 33
21 21 25 38 33 40 56 58 62 59 55 50 46 37 37 40 47 45 41 41 37 36 33 30 27 27 25 22 21 27 15 22 22 28 34 22 26 27 32 33 32 31 33 35
10 15 24 34 35 33 37 46 60 60 54 57 48 44 35 36 47 47 43 39 36 36 33 33 30 30 25 23 22 22 23 25 17 22 17 22 27 29 29 31 30 29 31 37
13 10 26 19 41 44 40 46 49 45 59 59 50 42 43 33 40 42 39 43 36 32 34 33 31 31 29 23 21 22 20 12 18 24 25 27 27 27 27 25 26 28 33 34
5 4 20 15 16 43 44 51 52 50 46 59 54 47 45 37 31 33 33 32 34 37 33 34 33 33 31 27 27 22 18 20 22 26 24 23 24 23 24 24 26 29 30 33
8 5 5 18 26 38 40 53 53 45 37 47 60 49 47 35 25 28 35 37 37 32 36 37 36 34 30 30 32 23 20 24 26 26 24 24 26 26 25 26 27 28 33 36
10 7 11 16 28 41 32 36 56 46 38 46 57 57 56 37 27 31 31 31 36 34 37 40 37 36 34 33 31 24 24 30 29 26 27 27 27 26 24 27 30 31 35 34
11 14 7 2 22 37 25 48 58 48 44 34 43 60 55 34 34 32 32 34 35 38 40 36 37 34 36 33 32 27 30 27 30 29 27 24 23 23 30 30 30 34 31 30
10 10 9 10 23 27 35 40 47 57 49 37 37 47 60 46 40 40 36 36 35 33 32 39 36 37 37 33 30 28 31 31 28 27 25 25 29 31 30 28 31 29 29 31
7 9 8 9 14 33 32 46 51 50 50 45 37 37 42 53 45 44 41 39 37 34 30 34 37 36 36 34 30 32 28 26 25 26 29 31 31 30 29 29 26 27 29 33
8 5 4 8 14 24 26 47 46 55 49 51 44 40 41 50 49 49 45 43 42 38 34 31 33 35 34 30 32 29 26 25 27 29 28 30 31 29 27 25 26 29 34 37
9 3 6 11 17 21 24 40 50 49 49 45 38 38 44 47 48 48 50 47 46 43 38 30 31 30 31 33 32 28 26 28 28 29 31 30 27 24 22 25 28 31 35 34
19 7 4 5 10 18 18 39 42 63 48 40 32 36 43 50 48 51 46 48 46 44 40 36 35 33 31 31 28 26 29 29 30 30 27 23 21 22 25 27 29 32 33 35
9 10 13 15 11 16 22 29 45 52 43 44 39 43 46 55 48 45 46 39 36 35 36 41 42 37 33 29 28 30 30 31 29 25 21 20 23 26 29 31 33 32 30 29
13 16 11 13 10 13 19 39 40 61 35 36 20 37 47 52 52 49 41 36 33 31 39 41 40 35 31 31 32 31 31 29 23 19 20 23 26 30 31 36 36 28 28 32
19 11 13 12 17 12 17 28 47 42 26 16 25 49 51 43 46 46 46 37 35 34 38 39 36 35 34 33 32 30 26 21 19 20 23 26 28 32 30 24 24 27 32 33
11 11 13 21 14 28 35 45 29 28 19 11 4 14 36 35 43 40 38 38 32 31 33 34 36 35 33 32 29 22 20 21 22 24 26 27 30 25 21 22 25 28 29 30
17 13 15 10 23 21 36 13 27 23 19 11 11 22 19 36 38 31 31 31 31 33 36 36 35 35 31 26 23 22 21 24 26 26 28 27 20 19 20 23 25 25 28 32
15 22 22 22 15 17 25 23 19 18 24 21 14 23 27 36 28 27 32 36 37 37 36 34 31 30 26 25 25 24 25 25 24 27 21 19 20 21 24 23 23 27 32 36
23 23 19 17 9 16 12 15 16 18 20 20 22 26 29 33 31 27 30 34 34 35 33 30 27 25 26 26 26 26 25 25 22 22 24 22 22 23 22 23 28 31 35 40
21 13 20 22 14 19 12 9 8 17 13 25 19 32 32 33 29 26 28 30 30 28 26 24 23 25 25 25 27 27 22 22 20 18 18 21 20 20 23 27 28 33 38 40
18 17 23 19 18 19 17 14 13 19 23 15 26 30 36 33 29 27 23 21 19 20 21 24 21 21 18 14 13 11 11 14 15 15 16 16 19 23 23 24 29 35 39 38
13 10 14 21 18 19 21 23 19 16 25 20 24 32 34 34 30 26 23 21 19 19 20 19 16 14 13 11 11 13 14 14 14 14 16 20 24 25 26 31 34 35 36 38